<?xml version='1.0' encoding='UTF-8'?><gpx version="1.1" creator="JPX - https://github.com/jenetics/jpx" xmlns="http://www.topografix.com/GPX/1/1"><trk><trkseg><trkpt lat="42.6599749" lon="11.981138"><ele>458.0</ele><time>2026-04-18T06:57:18.841Z</time></trkpt><trkpt lat="42.6600203" lon="11.9809375"><ele>458.0</ele><time>2026-04-18T07:00:39.407Z</time></trkpt><trkpt lat="42.6599177" lon="11.9808084"><ele>458.0</ele><time>2026-04-18T07:00:41.463Z</time></trkpt><trkpt lat="42.6599154" lon="11.9810316"><ele>458.0</ele><time>2026-04-18T07:00:42.464Z</time></trkpt><trkpt lat="42.6598999" lon="11.9811205"><ele>458.0</ele><time>2026-04-18T07:00:44.463Z</time></trkpt><trkpt lat="42.659965" lon="11.9811967"><ele>458.0</ele><time>2026-04-18T07:01:58.838Z</time></trkpt><trkpt lat="42.66003" lon="11.9812367"><ele>458.0</ele><time>2026-04-18T07:02:00.838Z</time></trkpt><trkpt lat="42.6600883" lon="11.98127"><ele>458.0</ele><time>2026-04-18T07:02:02.839Z</time></trkpt><trkpt lat="42.660115" lon="11.9813533"><ele>458.0</ele><time>2026-04-18T07:02:14.838Z</time></trkpt><trkpt lat="42.6600967" lon="11.98146"><ele>458.0</ele><time>2026-04-18T07:02:16.839Z</time></trkpt><trkpt lat="42.66005" lon="11.981605"><ele>458.49999999999994</ele><time>2026-04-18T07:02:18.839Z</time></trkpt><trkpt lat="42.6600117" lon="11.9817383"><ele>459.0</ele><time>2026-04-18T07:02:20.839Z</time></trkpt><trkpt lat="42.6599767" lon="11.98186"><ele>459.5</ele><time>2026-04-18T07:02:22.839Z</time></trkpt><trkpt lat="42.6599483" lon="11.9819733"><ele>460.0</ele><time>2026-04-18T07:02:24.838Z</time></trkpt><trkpt lat="42.6599333" lon="11.982065"><ele>460.49999999999994</ele><time>2026-04-18T07:02:26.838Z</time></trkpt><trkpt lat="42.6599117" lon="11.9821667"><ele>461.0</ele><time>2026-04-18T07:02:28.838Z</time></trkpt><trkpt lat="42.6598817" lon="11.9822667"><ele>460.99999999999994</ele><time>2026-04-18T07:02:30.839Z</time></trkpt><trkpt lat="42.6598617" lon="11.9823683"><ele>461.0</ele><time>2026-04-18T07:02:32.838Z</time></trkpt><trkpt lat="42.659825" lon="11.9824917"><ele>461.0</ele><time>2026-04-18T07:02:34.839Z</time></trkpt><trkpt lat="42.6597817" lon="11.9825967"><ele>461.0</ele><time>2026-04-18T07:02:36.838Z</time></trkpt><trkpt lat="42.6597317" lon="11.9826583"><ele>460.99999999999994</ele><time>2026-04-18T07:02:38.839Z</time></trkpt><trkpt lat="42.65966" lon="11.9826767"><ele>461.0</ele><time>2026-04-18T07:02:40.839Z</time></trkpt><trkpt lat="42.6595883" lon="11.9826517"><ele>459.99999999999994</ele><time>2026-04-18T07:02:41.839Z</time></trkpt><trkpt lat="42.6595017" lon="11.9826183"><ele>459.0</ele><time>2026-04-18T07:02:42.838Z</time></trkpt><trkpt lat="42.6594167" lon="11.982595"><ele>458.0</ele><time>2026-04-18T07:02:43.839Z</time></trkpt><trkpt lat="42.659335" lon="11.9825717"><ele>457.0</ele><time>2026-04-18T07:02:44.838Z</time></trkpt><trkpt lat="42.6592583" lon="11.9825567"><ele>455.99999999999994</ele><time>2026-04-18T07:02:45.838Z</time></trkpt><trkpt lat="42.6591883" lon="11.982535"><ele>455.0</ele><time>2026-04-18T07:02:46.838Z</time></trkpt><trkpt lat="42.6591117" lon="11.9825083"><ele>454.99999999999994</ele><time>2026-04-18T07:02:47.839Z</time></trkpt><trkpt lat="42.6590283" lon="11.9824767"><ele>455.0</ele><time>2026-04-18T07:02:48.838Z</time></trkpt><trkpt lat="42.6589367" lon="11.9824517"><ele>455.0</ele><time>2026-04-18T07:02:49.839Z</time></trkpt><trkpt lat="42.65885" lon="11.9824483"><ele>455.0</ele><time>2026-04-18T07:02:50.838Z</time></trkpt><trkpt lat="42.6587617" lon="11.98245"><ele>454.99999999999994</ele><time>2026-04-18T07:02:51.839Z</time></trkpt><trkpt lat="42.6586733" lon="11.9824683"><ele>455.0</ele><time>2026-04-18T07:02:52.838Z</time></trkpt><trkpt lat="42.658585" lon="11.9824983"><ele>453.0</ele><time>2026-04-18T07:02:53.838Z</time></trkpt><trkpt lat="42.6584983" lon="11.98253"><ele>451.0</ele><time>2026-04-18T07:02:54.838Z</time></trkpt><trkpt lat="42.6584117" lon="11.9825567"><ele>449.0</ele><time>2026-04-18T07:02:55.838Z</time></trkpt><trkpt lat="42.6583267" lon="11.98258"><ele>447.0</ele><time>2026-04-18T07:02:56.838Z</time></trkpt><trkpt lat="42.658215" lon="11.982595"><ele>445.0</ele><time>2026-04-18T07:02:57.839Z</time></trkpt><trkpt lat="42.6581083" lon="11.9826067"><ele>445.0</ele><time>2026-04-18T07:02:58.838Z</time></trkpt><trkpt lat="42.6580083" lon="11.9826067"><ele>445.0</ele><time>2026-04-18T07:02:59.839Z</time></trkpt><trkpt lat="42.65792" lon="11.9826067"><ele>445.0</ele><time>2026-04-18T07:03:00.839Z</time></trkpt><trkpt lat="42.657835" lon="11.9826233"><ele>445.0</ele><time>2026-04-18T07:03:01.839Z</time></trkpt><trkpt lat="42.6577483" lon="11.9826483"><ele>445.0</ele><time>2026-04-18T07:03:02.838Z</time></trkpt><trkpt lat="42.657665" lon="11.9826883"><ele>446.2</ele><time>2026-04-18T07:03:03.839Z</time></trkpt><trkpt lat="42.6575767" lon="11.9827583"><ele>447.4</ele><time>2026-04-18T07:03:04.838Z</time></trkpt><trkpt lat="42.6575067" lon="11.9828533"><ele>448.6</ele><time>2026-04-18T07:03:05.839Z</time></trkpt><trkpt lat="42.657415" lon="11.9829333"><ele>449.8</ele><time>2026-04-18T07:03:06.838Z</time></trkpt><trkpt lat="42.6573233" lon="11.9830167"><ele>451.0</ele><time>2026-04-18T07:03:07.839Z</time></trkpt><trkpt lat="42.6572333" lon="11.9830967"><ele>451.00000000000006</ele><time>2026-04-18T07:03:08.838Z</time></trkpt><trkpt lat="42.65715" lon="11.9831767"><ele>451.0</ele><time>2026-04-18T07:03:09.838Z</time></trkpt><trkpt lat="42.6570667" lon="11.98324"><ele>451.0</ele><time>2026-04-18T07:03:10.839Z</time></trkpt><trkpt lat="42.65699" lon="11.983305"><ele>451.0</ele><time>2026-04-18T07:03:11.839Z</time></trkpt><trkpt lat="42.6569233" lon="11.9833567"><ele>451.00000000000006</ele><time>2026-04-18T07:03:12.838Z</time></trkpt><trkpt lat="42.6568583" lon="11.9833933"><ele>451.0</ele><time>2026-04-18T07:03:13.838Z</time></trkpt><trkpt lat="42.6567933" lon="11.983435"><ele>450.00000000000006</ele><time>2026-04-18T07:03:14.838Z</time></trkpt><trkpt lat="42.6567233" lon="11.9834767"><ele>449.0</ele><time>2026-04-18T07:03:15.838Z</time></trkpt><trkpt lat="42.656655" lon="11.9835283"><ele>448.0</ele><time>2026-04-18T07:03:16.838Z</time></trkpt><trkpt lat="42.65659" lon="11.98357"><ele>447.0</ele><time>2026-04-18T07:03:17.839Z</time></trkpt><trkpt lat="42.65652" lon="11.9836133"><ele>446.00000000000006</ele><time>2026-04-18T07:03:18.839Z</time></trkpt><trkpt lat="42.6564383" lon="11.983675"><ele>445.0</ele><time>2026-04-18T07:03:19.838Z</time></trkpt><trkpt lat="42.6563567" lon="11.9837333"><ele>445.0</ele><time>2026-04-18T07:03:20.838Z</time></trkpt><trkpt lat="42.6562767" lon="11.9837833"><ele>445.0</ele><time>2026-04-18T07:03:21.838Z</time></trkpt><trkpt lat="42.65615" lon="11.9838483"><ele>445.0</ele><time>2026-04-18T07:03:23.838Z</time></trkpt><trkpt lat="42.6560733" lon="11.983905"><ele>445.0</ele><time>2026-04-18T07:03:24.838Z</time></trkpt><trkpt lat="42.6559983" lon="11.9839717"><ele>445.0</ele><time>2026-04-18T07:03:25.839Z</time></trkpt><trkpt lat="42.655925" lon="11.9840533"><ele>444.2</ele><time>2026-04-18T07:03:26.839Z</time></trkpt><trkpt lat="42.6558517" lon="11.9841383"><ele>443.4</ele><time>2026-04-18T07:03:27.838Z</time></trkpt><trkpt lat="42.655775" lon="11.98421"><ele>442.6</ele><time>2026-04-18T07:03:28.839Z</time></trkpt><trkpt lat="42.6557017" lon="11.9842733"><ele>441.8</ele><time>2026-04-18T07:03:29.839Z</time></trkpt><trkpt lat="42.655615" lon="11.9843283"><ele>441.0</ele><time>2026-04-18T07:03:30.838Z</time></trkpt><trkpt lat="42.655525" lon="11.9843617"><ele>440.20000000000005</ele><time>2026-04-18T07:03:31.838Z</time></trkpt><trkpt lat="42.6554283" lon="11.984375"><ele>439.40000000000003</ele><time>2026-04-18T07:03:32.839Z</time></trkpt><trkpt lat="42.6553367" lon="11.9843717"><ele>438.6</ele><time>2026-04-18T07:03:33.838Z</time></trkpt><trkpt lat="42.6552283" lon="11.9843517"><ele>437.8</ele><time>2026-04-18T07:03:34.839Z</time></trkpt><trkpt lat="42.65512" lon="11.9843267"><ele>437.0</ele><time>2026-04-18T07:03:35.838Z</time></trkpt><trkpt lat="42.655025" lon="11.984315"><ele>435.3333333333333</ele><time>2026-04-18T07:03:36.839Z</time></trkpt><trkpt lat="42.654915" lon="11.9842933"><ele>433.66666666666663</ele><time>2026-04-18T07:03:37.838Z</time></trkpt><trkpt lat="42.6548367" lon="11.98429"><ele>432.0</ele><time>2026-04-18T07:03:38.839Z</time></trkpt><trkpt lat="42.6547583" lon="11.9842983"><ele>430.33333333333337</ele><time>2026-04-18T07:03:39.839Z</time></trkpt><trkpt lat="42.6546817" lon="11.9843433"><ele>428.6666666666667</ele><time>2026-04-18T07:03:40.838Z</time></trkpt><trkpt lat="42.654615" lon="11.984405"><ele>427.0</ele><time>2026-04-18T07:03:41.839Z</time></trkpt><trkpt lat="42.65456" lon="11.98448"><ele>427.00000000000006</ele><time>2026-04-18T07:03:42.838Z</time></trkpt><trkpt lat="42.6545017" lon="11.9845567"><ele>427.0</ele><time>2026-04-18T07:03:43.839Z</time></trkpt><trkpt lat="42.654435" lon="11.9846333"><ele>427.0</ele><time>2026-04-18T07:03:44.839Z</time></trkpt><trkpt lat="42.6543667" lon="11.984695"><ele>427.0</ele><time>2026-04-18T07:03:45.838Z</time></trkpt><trkpt lat="42.6542867" lon="11.9847433"><ele>427.00000000000006</ele><time>2026-04-18T07:03:46.839Z</time></trkpt><trkpt lat="42.6541983" lon="11.98481"><ele>427.0</ele><time>2026-04-18T07:03:47.839Z</time></trkpt><trkpt lat="42.65411" lon="11.9848617"><ele>424.40000000000003</ele><time>2026-04-18T07:03:48.838Z</time></trkpt><trkpt lat="42.6540233" lon="11.9849167"><ele>421.80000000000007</ele><time>2026-04-18T07:03:49.838Z</time></trkpt><trkpt lat="42.6539433" lon="11.9849733"><ele>419.2</ele><time>2026-04-18T07:03:50.838Z</time></trkpt><trkpt lat="42.6538633" lon="11.9850233"><ele>416.6</ele><time>2026-04-18T07:03:51.838Z</time></trkpt><trkpt lat="42.6537783" lon="11.985075"><ele>414.0</ele><time>2026-04-18T07:03:52.838Z</time></trkpt><trkpt lat="42.6536933" lon="11.9851183"><ele>411.3333333333333</ele><time>2026-04-18T07:03:53.838Z</time></trkpt><trkpt lat="42.653615" lon="11.9851517"><ele>408.66666666666663</ele><time>2026-04-18T07:03:54.839Z</time></trkpt><trkpt lat="42.6535433" lon="11.9851833"><ele>406.0</ele><time>2026-04-18T07:03:55.838Z</time></trkpt><trkpt lat="42.6534567" lon="11.9852017"><ele>403.3333333333333</ele><time>2026-04-18T07:03:56.838Z</time></trkpt><trkpt lat="42.6533717" lon="11.9852217"><ele>400.66666666666663</ele><time>2026-04-18T07:03:57.839Z</time></trkpt><trkpt lat="42.6532917" lon="11.985265"><ele>398.0</ele><time>2026-04-18T07:03:58.839Z</time></trkpt><trkpt lat="42.65322" lon="11.9853133"><ele>397.99999999999994</ele><time>2026-04-18T07:03:59.839Z</time></trkpt><trkpt lat="42.65315" lon="11.98535"><ele>398.0</ele><time>2026-04-18T07:04:00.838Z</time></trkpt><trkpt lat="42.6530717" lon="11.985385"><ele>398.0</ele><time>2026-04-18T07:04:01.839Z</time></trkpt><trkpt lat="42.6529967" lon="11.985435"><ele>398.0</ele><time>2026-04-18T07:04:02.838Z</time></trkpt><trkpt lat="42.6529267" lon="11.985475"><ele>397.99999999999994</ele><time>2026-04-18T07:04:03.839Z</time></trkpt><trkpt lat="42.6528633" lon="11.9855017"><ele>398.0</ele><time>2026-04-18T07:04:04.839Z</time></trkpt><trkpt lat="42.6527967" lon="11.985515"><ele>397.49999999999994</ele><time>2026-04-18T07:04:05.838Z</time></trkpt><trkpt lat="42.65273" lon="11.9855267"><ele>397.0</ele><time>2026-04-18T07:04:06.838Z</time></trkpt><trkpt lat="42.6526617" lon="11.9855133"><ele>396.5</ele><time>2026-04-18T07:04:07.838Z</time></trkpt><trkpt lat="42.6525533" lon="11.9854367"><ele>396.0</ele><time>2026-04-18T07:04:09.838Z</time></trkpt><trkpt lat="42.6524983" lon="11.9853617"><ele>395.49999999999994</ele><time>2026-04-18T07:04:10.838Z</time></trkpt><trkpt lat="42.6524567" lon="11.9852667"><ele>395.0</ele><time>2026-04-18T07:04:11.838Z</time></trkpt><trkpt lat="42.652415" lon="11.9851767"><ele>394.99999999999994</ele><time>2026-04-18T07:04:12.839Z</time></trkpt><trkpt lat="42.6523683" lon="11.985085"><ele>395.0</ele><time>2026-04-18T07:04:13.838Z</time></trkpt><trkpt lat="42.6523167" lon="11.985"><ele>395.0</ele><time>2026-04-18T07:04:14.838Z</time></trkpt><trkpt lat="42.6522667" lon="11.9849167"><ele>395.0</ele><time>2026-04-18T07:04:15.838Z</time></trkpt><trkpt lat="42.6522233" lon="11.9848367"><ele>394.99999999999994</ele><time>2026-04-18T07:04:16.838Z</time></trkpt><trkpt lat="42.6521867" lon="11.9847567"><ele>395.0</ele><time>2026-04-18T07:04:17.838Z</time></trkpt><trkpt lat="42.652145" lon="11.9846683"><ele>396.16666666666663</ele><time>2026-04-18T07:04:18.838Z</time></trkpt><trkpt lat="42.6521167" lon="11.9845783"><ele>397.3333333333333</ele><time>2026-04-18T07:04:19.838Z</time></trkpt><trkpt lat="42.6520867" lon="11.98448"><ele>398.5</ele><time>2026-04-18T07:04:20.838Z</time></trkpt><trkpt lat="42.6520467" lon="11.9843833"><ele>399.66666666666663</ele><time>2026-04-18T07:04:21.838Z</time></trkpt><trkpt lat="42.6520033" lon="11.9843033"><ele>400.8333333333333</ele><time>2026-04-18T07:04:22.838Z</time></trkpt><trkpt lat="42.6519267" lon="11.9841883"><ele>402.0</ele><time>2026-04-18T07:04:24.838Z</time></trkpt><trkpt lat="42.651845" lon="11.9841567"><ele>399.1666666666667</ele><time>2026-04-18T07:04:26.838Z</time></trkpt><trkpt lat="42.6517783" lon="11.9842583"><ele>396.33333333333337</ele><time>2026-04-18T07:04:28.838Z</time></trkpt><trkpt lat="42.651775" lon="11.9843483"><ele>393.5</ele><time>2026-04-18T07:04:29.838Z</time></trkpt><trkpt lat="42.651775" lon="11.98446"><ele>390.6666666666667</ele><time>2026-04-18T07:04:30.838Z</time></trkpt><trkpt lat="42.6517717" lon="11.98456"><ele>387.83333333333337</ele><time>2026-04-18T07:04:31.839Z</time></trkpt><trkpt lat="42.6517483" lon="11.98471"><ele>385.0</ele><time>2026-04-18T07:04:33.839Z</time></trkpt><trkpt lat="42.6516817" lon="11.98478"><ele>385.00000000000006</ele><time>2026-04-18T07:04:35.838Z</time></trkpt><trkpt lat="42.6515983" lon="11.98478"><ele>385.0</ele><time>2026-04-18T07:04:38.838Z</time></trkpt><trkpt lat="42.65155" lon="11.984725"><ele>385.0</ele><time>2026-04-18T07:04:41.839Z</time></trkpt><trkpt lat="42.6515983" lon="11.9847983"><ele>385.0</ele><time>2026-04-18T07:04:54.839Z</time></trkpt><trkpt lat="42.6516833" lon="11.9847583"><ele>385.00000000000006</ele><time>2026-04-18T07:04:57.838Z</time></trkpt><trkpt lat="42.6517333" lon="11.9846333"><ele>385.0</ele><time>2026-04-18T07:04:59.838Z</time></trkpt><trkpt lat="42.6517533" lon="11.98449"><ele>385.0</ele><time>2026-04-18T07:05:01.838Z</time></trkpt><trkpt lat="42.6517783" lon="11.984395"><ele>385.0</ele><time>2026-04-18T07:05:04.838Z</time></trkpt><trkpt lat="42.65178" lon="11.9842767"><ele>385.0</ele><time>2026-04-18T07:05:07.839Z</time></trkpt><trkpt lat="42.6517783" lon="11.984145"><ele>385.0</ele><time>2026-04-18T07:05:09.838Z</time></trkpt><trkpt lat="42.6517583" lon="11.9839933"><ele>385.0</ele><time>2026-04-18T07:05:11.838Z</time></trkpt><trkpt lat="42.6517283" lon="11.98386"><ele>383.83333333333337</ele><time>2026-04-18T07:05:13.839Z</time></trkpt><trkpt lat="42.6517217" lon="11.983745"><ele>382.6666666666667</ele><time>2026-04-18T07:05:15.838Z</time></trkpt><trkpt lat="42.6517683" lon="11.9836367"><ele>381.5</ele><time>2026-04-18T07:05:17.838Z</time></trkpt><trkpt lat="42.65185" lon="11.98352"><ele>380.33333333333337</ele><time>2026-04-18T07:05:19.838Z</time></trkpt><trkpt lat="42.6518983" lon="11.9834567"><ele>379.1666666666667</ele><time>2026-04-18T07:05:20.838Z</time></trkpt><trkpt lat="42.6519483" lon="11.983385"><ele>378.0</ele><time>2026-04-18T07:05:21.839Z</time></trkpt><trkpt lat="42.65201" lon="11.9833067"><ele>380.5</ele><time>2026-04-18T07:05:22.839Z</time></trkpt><trkpt lat="42.65207" lon="11.9832317"><ele>383.0</ele><time>2026-04-18T07:05:23.838Z</time></trkpt><trkpt lat="42.6521367" lon="11.98316"><ele>385.5</ele><time>2026-04-18T07:05:24.839Z</time></trkpt><trkpt lat="42.652205" lon="11.9831"><ele>388.0</ele><time>2026-04-18T07:05:25.839Z</time></trkpt><trkpt lat="42.652275" lon="11.9830317"><ele>390.5</ele><time>2026-04-18T07:05:26.838Z</time></trkpt><trkpt lat="42.652355" lon="11.9829483"><ele>393.0</ele><time>2026-04-18T07:05:27.839Z</time></trkpt><trkpt lat="42.6524317" lon="11.9828683"><ele>393.0</ele><time>2026-04-18T07:05:28.838Z</time></trkpt><trkpt lat="42.65252" lon="11.9827683"><ele>393.0</ele><time>2026-04-18T07:05:29.839Z</time></trkpt><trkpt lat="42.652615" lon="11.9826583"><ele>393.0</ele><time>2026-04-18T07:05:30.838Z</time></trkpt><trkpt lat="42.6527117" lon="11.9825367"><ele>393.0</ele><time>2026-04-18T07:05:31.839Z</time></trkpt><trkpt lat="42.6528183" lon="11.98242"><ele>394.5</ele><time>2026-04-18T07:05:32.838Z</time></trkpt><trkpt lat="42.652915" lon="11.9822983"><ele>396.0</ele><time>2026-04-18T07:05:33.839Z</time></trkpt><trkpt lat="42.6530083" lon="11.9821917"><ele>397.5</ele><time>2026-04-18T07:05:34.838Z</time></trkpt><trkpt lat="42.653105" lon="11.9820917"><ele>399.0</ele><time>2026-04-18T07:05:35.839Z</time></trkpt><trkpt lat="42.6532083" lon="11.9819917"><ele>399.0</ele><time>2026-04-18T07:05:36.839Z</time></trkpt><trkpt lat="42.6533033" lon="11.981905"><ele>399.0</ele><time>2026-04-18T07:05:37.838Z</time></trkpt><trkpt lat="42.6533733" lon="11.9818333"><ele>399.0</ele><time>2026-04-18T07:05:38.839Z</time></trkpt><trkpt lat="42.653435" lon="11.9817767"><ele>399.0</ele><time>2026-04-18T07:05:39.838Z</time></trkpt><trkpt lat="42.6535" lon="11.9817233"><ele>399.0</ele><time>2026-04-18T07:05:40.838Z</time></trkpt><trkpt lat="42.6535567" lon="11.981675"><ele>399.0</ele><time>2026-04-18T07:05:41.838Z</time></trkpt><trkpt lat="42.653615" lon="11.981625"><ele>398.57142857142856</ele><time>2026-04-18T07:05:42.838Z</time></trkpt><trkpt lat="42.6536767" lon="11.9815733"><ele>398.1428571428571</ele><time>2026-04-18T07:05:43.839Z</time></trkpt><trkpt lat="42.6537383" lon="11.981525"><ele>397.7142857142857</ele><time>2026-04-18T07:05:44.839Z</time></trkpt><trkpt lat="42.6538083" lon="11.9814783"><ele>397.2857142857143</ele><time>2026-04-18T07:05:45.839Z</time></trkpt><trkpt lat="42.6538733" lon="11.9814367"><ele>396.85714285714283</ele><time>2026-04-18T07:05:46.838Z</time></trkpt><trkpt lat="42.6539433" lon="11.981395"><ele>396.42857142857144</ele><time>2026-04-18T07:05:47.839Z</time></trkpt><trkpt lat="42.654015" lon="11.9813533"><ele>396.0</ele><time>2026-04-18T07:05:48.839Z</time></trkpt><trkpt lat="42.6540883" lon="11.98131"><ele>396.0</ele><time>2026-04-18T07:05:49.838Z</time></trkpt><trkpt lat="42.6541467" lon="11.98126"><ele>396.0</ele><time>2026-04-18T07:05:50.838Z</time></trkpt><trkpt lat="42.6542067" lon="11.9812133"><ele>396.0</ele><time>2026-04-18T07:05:51.838Z</time></trkpt><trkpt lat="42.6542717" lon="11.9811767"><ele>396.0</ele><time>2026-04-18T07:05:52.838Z</time></trkpt><trkpt lat="42.65433" lon="11.981135"><ele>396.0</ele><time>2026-04-18T07:05:53.838Z</time></trkpt><trkpt lat="42.6543933" lon="11.9810983"><ele>396.0</ele><time>2026-04-18T07:05:54.838Z</time></trkpt><trkpt lat="42.6544567" lon="11.981055"><ele>396.0</ele><time>2026-04-18T07:05:55.838Z</time></trkpt><trkpt lat="42.6545183" lon="11.981005"><ele>396.0</ele><time>2026-04-18T07:05:56.839Z</time></trkpt><trkpt lat="42.6545817" lon="11.98095"><ele>396.0</ele><time>2026-04-18T07:05:57.839Z</time></trkpt><trkpt lat="42.6546383" lon="11.9808833"><ele>396.0</ele><time>2026-04-18T07:05:58.839Z</time></trkpt><trkpt lat="42.6546917" lon="11.9808183"><ele>396.0</ele><time>2026-04-18T07:05:59.838Z</time></trkpt><trkpt lat="42.654745" lon="11.9807383"><ele>396.0</ele><time>2026-04-18T07:06:00.839Z</time></trkpt><trkpt lat="42.6547983" lon="11.9806567"><ele>396.0</ele><time>2026-04-18T07:06:01.838Z</time></trkpt><trkpt lat="42.654845" lon="11.980575"><ele>396.0</ele><time>2026-04-18T07:06:02.838Z</time></trkpt><trkpt lat="42.654885" lon="11.9805033"><ele>396.0</ele><time>2026-04-18T07:06:03.838Z</time></trkpt><trkpt lat="42.6549267" lon="11.9804383"><ele>396.0</ele><time>2026-04-18T07:06:04.839Z</time></trkpt><trkpt lat="42.655005" lon="11.9803067"><ele>396.0</ele><time>2026-04-18T07:06:06.838Z</time></trkpt><trkpt lat="42.6550867" lon="11.9801867"><ele>396.0</ele><time>2026-04-18T07:06:08.838Z</time></trkpt><trkpt lat="42.655175" lon="11.9800817"><ele>396.6</ele><time>2026-04-18T07:06:10.839Z</time></trkpt><trkpt lat="42.6552833" lon="11.9799833"><ele>397.20000000000005</ele><time>2026-04-18T07:06:12.839Z</time></trkpt><trkpt lat="42.6553483" lon="11.9799067"><ele>397.79999999999995</ele><time>2026-04-18T07:06:13.838Z</time></trkpt><trkpt lat="42.655415" lon="11.9798267"><ele>398.4</ele><time>2026-04-18T07:06:14.839Z</time></trkpt><trkpt lat="42.655485" lon="11.979735"><ele>399.0</ele><time>2026-04-18T07:06:15.838Z</time></trkpt><trkpt lat="42.65556" lon="11.9796417"><ele>399.0</ele><time>2026-04-18T07:06:16.838Z</time></trkpt><trkpt lat="42.6556317" lon="11.9795433"><ele>399.0</ele><time>2026-04-18T07:06:17.838Z</time></trkpt><trkpt lat="42.6557033" lon="11.9794317"><ele>399.0</ele><time>2026-04-18T07:06:18.839Z</time></trkpt><trkpt lat="42.65578" lon="11.9793233"><ele>399.0</ele><time>2026-04-18T07:06:19.838Z</time></trkpt><trkpt lat="42.65585" lon="11.9792217"><ele>399.0</ele><time>2026-04-18T07:06:20.838Z</time></trkpt><trkpt lat="42.65591" lon="11.9791433"><ele>399.0</ele><time>2026-04-18T07:06:21.838Z</time></trkpt><trkpt lat="42.6559683" lon="11.9790683"><ele>399.0</ele><time>2026-04-18T07:06:22.838Z</time></trkpt><trkpt lat="42.6560267" lon="11.978995"><ele>399.0</ele><time>2026-04-18T07:06:23.838Z</time></trkpt><trkpt lat="42.6560883" lon="11.9789117"><ele>399.0</ele><time>2026-04-18T07:06:24.838Z</time></trkpt><trkpt lat="42.6561483" lon="11.9788267"><ele>399.0</ele><time>2026-04-18T07:06:25.838Z</time></trkpt><trkpt lat="42.6562017" lon="11.9787433"><ele>399.0</ele><time>2026-04-18T07:06:26.839Z</time></trkpt><trkpt lat="42.65626" lon="11.978655"><ele>399.0</ele><time>2026-04-18T07:06:27.838Z</time></trkpt><trkpt lat="42.6563133" lon="11.978565"><ele>399.0</ele><time>2026-04-18T07:06:28.838Z</time></trkpt><trkpt lat="42.6563633" lon="11.9784633"><ele>399.0</ele><time>2026-04-18T07:06:29.839Z</time></trkpt><trkpt lat="42.656415" lon="11.97838"><ele>399.0</ele><time>2026-04-18T07:06:30.838Z</time></trkpt><trkpt lat="42.656475" lon="11.9782933"><ele>399.0</ele><time>2026-04-18T07:06:31.839Z</time></trkpt><trkpt lat="42.6565467" lon="11.97821"><ele>399.0</ele><time>2026-04-18T07:06:32.838Z</time></trkpt><trkpt lat="42.6566217" lon="11.978095"><ele>399.6</ele><time>2026-04-18T07:06:33.838Z</time></trkpt><trkpt lat="42.6566967" lon="11.9779867"><ele>400.2</ele><time>2026-04-18T07:06:34.838Z</time></trkpt><trkpt lat="42.6567717" lon="11.97789"><ele>400.8</ele><time>2026-04-18T07:06:35.838Z</time></trkpt><trkpt lat="42.656845" lon="11.977795"><ele>401.40000000000003</ele><time>2026-04-18T07:06:36.838Z</time></trkpt><trkpt lat="42.6569167" lon="11.9777167"><ele>402.0</ele><time>2026-04-18T07:06:37.838Z</time></trkpt><trkpt lat="42.6569883" lon="11.977645"><ele>402.0</ele><time>2026-04-18T07:06:38.839Z</time></trkpt><trkpt lat="42.657055" lon="11.9775717"><ele>402.0</ele><time>2026-04-18T07:06:39.839Z</time></trkpt><trkpt lat="42.657115" lon="11.977475"><ele>402.0</ele><time>2026-04-18T07:06:40.839Z</time></trkpt><trkpt lat="42.6571783" lon="11.9773767"><ele>402.0</ele><time>2026-04-18T07:06:41.839Z</time></trkpt><trkpt lat="42.6572483" lon="11.9772733"><ele>402.0</ele><time>2026-04-18T07:06:42.838Z</time></trkpt><trkpt lat="42.6573183" lon="11.9771767"><ele>401.20000000000005</ele><time>2026-04-18T07:06:43.838Z</time></trkpt><trkpt lat="42.657395" lon="11.9770767"><ele>400.4</ele><time>2026-04-18T07:06:44.838Z</time></trkpt><trkpt lat="42.6574617" lon="11.97699"><ele>399.6</ele><time>2026-04-18T07:06:45.838Z</time></trkpt><trkpt lat="42.6575333" lon="11.976915"><ele>398.79999999999995</ele><time>2026-04-18T07:06:46.839Z</time></trkpt><trkpt lat="42.6576017" lon="11.976845"><ele>398.0</ele><time>2026-04-18T07:06:47.838Z</time></trkpt><trkpt lat="42.65767" lon="11.9767867"><ele>398.0</ele><time>2026-04-18T07:06:48.839Z</time></trkpt><trkpt lat="42.65775" lon="11.976715"><ele>398.0</ele><time>2026-04-18T07:06:49.838Z</time></trkpt><trkpt lat="42.6578317" lon="11.9766483"><ele>398.0</ele><time>2026-04-18T07:06:50.839Z</time></trkpt><trkpt lat="42.6579167" lon="11.97658"><ele>398.0</ele><time>2026-04-18T07:06:51.838Z</time></trkpt><trkpt lat="42.657995" lon="11.9765283"><ele>398.0</ele><time>2026-04-18T07:06:52.839Z</time></trkpt><trkpt lat="42.658075" lon="11.9764683"><ele>398.16666666666663</ele><time>2026-04-18T07:06:53.839Z</time></trkpt><trkpt lat="42.658155" lon="11.9764183"><ele>398.3333333333333</ele><time>2026-04-18T07:06:54.839Z</time></trkpt><trkpt lat="42.6582267" lon="11.9763633"><ele>398.5</ele><time>2026-04-18T07:06:55.838Z</time></trkpt><trkpt lat="42.6582917" lon="11.9762917"><ele>398.66666666666663</ele><time>2026-04-18T07:06:56.838Z</time></trkpt><trkpt lat="42.6583517" lon="11.9762033"><ele>398.8333333333333</ele><time>2026-04-18T07:06:57.838Z</time></trkpt><trkpt lat="42.658405" lon="11.9761017"><ele>399.0</ele><time>2026-04-18T07:06:58.838Z</time></trkpt><trkpt lat="42.65846" lon="11.975995"><ele>399.0</ele><time>2026-04-18T07:06:59.839Z</time></trkpt><trkpt lat="42.6585183" lon="11.975885"><ele>399.0</ele><time>2026-04-18T07:07:00.839Z</time></trkpt><trkpt lat="42.65858" lon="11.9757783"><ele>399.0</ele><time>2026-04-18T07:07:01.838Z</time></trkpt><trkpt lat="42.6586417" lon="11.9756683"><ele>399.0</ele><time>2026-04-18T07:07:02.839Z</time></trkpt><trkpt lat="42.6587" lon="11.97557"><ele>399.0</ele><time>2026-04-18T07:07:03.839Z</time></trkpt><trkpt lat="42.6587583" lon="11.9754817"><ele>399.14285714285717</ele><time>2026-04-18T07:07:04.838Z</time></trkpt><trkpt lat="42.6588117" lon="11.9754017"><ele>399.2857142857143</ele><time>2026-04-18T07:07:05.839Z</time></trkpt><trkpt lat="42.6588667" lon="11.9753183"><ele>399.42857142857144</ele><time>2026-04-18T07:07:06.839Z</time></trkpt><trkpt lat="42.6589117" lon="11.97525"><ele>399.57142857142856</ele><time>2026-04-18T07:07:07.838Z</time></trkpt><trkpt lat="42.6589567" lon="11.97519"><ele>399.7142857142857</ele><time>2026-04-18T07:07:08.838Z</time></trkpt><trkpt lat="42.659005" lon="11.9751283"><ele>399.8571428571429</ele><time>2026-04-18T07:07:09.838Z</time></trkpt><trkpt lat="42.6590567" lon="11.97507"><ele>400.0</ele><time>2026-04-18T07:07:10.839Z</time></trkpt><trkpt lat="42.65911" lon="11.97501"><ele>399.33333333333337</ele><time>2026-04-18T07:07:11.838Z</time></trkpt><trkpt lat="42.659165" lon="11.9749533"><ele>398.6666666666667</ele><time>2026-04-18T07:07:12.838Z</time></trkpt><trkpt lat="42.659225" lon="11.9748967"><ele>398.0</ele><time>2026-04-18T07:07:13.838Z</time></trkpt><trkpt lat="42.659285" lon="11.97486"><ele>397.33333333333337</ele><time>2026-04-18T07:07:14.838Z</time></trkpt><trkpt lat="42.659345" lon="11.974825"><ele>396.6666666666667</ele><time>2026-04-18T07:07:15.839Z</time></trkpt><trkpt lat="42.6594083" lon="11.974795"><ele>396.0</ele><time>2026-04-18T07:07:16.838Z</time></trkpt><trkpt lat="42.6595283" lon="11.974765"><ele>395.8571428571429</ele><time>2026-04-18T07:07:18.839Z</time></trkpt><trkpt lat="42.6595933" lon="11.9747667"><ele>395.71428571428567</ele><time>2026-04-18T07:07:19.838Z</time></trkpt><trkpt lat="42.6596683" lon="11.9747733"><ele>395.57142857142856</ele><time>2026-04-18T07:07:20.838Z</time></trkpt><trkpt lat="42.65975" lon="11.974795"><ele>395.42857142857144</ele><time>2026-04-18T07:07:21.839Z</time></trkpt><trkpt lat="42.6598217" lon="11.9748183"><ele>395.28571428571433</ele><time>2026-04-18T07:07:22.839Z</time></trkpt><trkpt lat="42.6598917" lon="11.9748417"><ele>395.1428571428571</ele><time>2026-04-18T07:07:23.839Z</time></trkpt><trkpt lat="42.6599667" lon="11.9748617"><ele>395.0</ele><time>2026-04-18T07:07:24.838Z</time></trkpt><trkpt lat="42.6600267" lon="11.9748883"><ele>394.99999999999994</ele><time>2026-04-18T07:07:25.838Z</time></trkpt><trkpt lat="42.6600867" lon="11.974915"><ele>395.0</ele><time>2026-04-18T07:07:26.839Z</time></trkpt><trkpt lat="42.6601967" lon="11.9749933"><ele>395.0</ele><time>2026-04-18T07:07:28.839Z</time></trkpt><trkpt lat="42.66028" lon="11.9750217"><ele>395.0</ele><time>2026-04-18T07:07:30.839Z</time></trkpt><trkpt lat="42.6603683" lon="11.9749667"><ele>394.99999999999994</ele><time>2026-04-18T07:07:32.838Z</time></trkpt><trkpt lat="42.6604217" lon="11.9749017"><ele>395.0</ele><time>2026-04-18T07:07:33.838Z</time></trkpt><trkpt lat="42.6604667" lon="11.974835"><ele>394.8333333333333</ele><time>2026-04-18T07:07:34.839Z</time></trkpt><trkpt lat="42.660555" lon="11.9747117"><ele>394.66666666666663</ele><time>2026-04-18T07:07:36.838Z</time></trkpt><trkpt lat="42.6606033" lon="11.9746467"><ele>394.5</ele><time>2026-04-18T07:07:37.838Z</time></trkpt><trkpt lat="42.660655" lon="11.9745783"><ele>394.33333333333337</ele><time>2026-04-18T07:07:38.838Z</time></trkpt><trkpt lat="42.6607117" lon="11.9745067"><ele>394.1666666666667</ele><time>2026-04-18T07:07:39.838Z</time></trkpt><trkpt lat="42.660765" lon="11.97443"><ele>394.0</ele><time>2026-04-18T07:07:40.839Z</time></trkpt><trkpt lat="42.660815" lon="11.9743517"><ele>394.00000000000006</ele><time>2026-04-18T07:07:41.839Z</time></trkpt><trkpt lat="42.660855" lon="11.9742683"><ele>394.0</ele><time>2026-04-18T07:07:42.839Z</time></trkpt><trkpt lat="42.6609" lon="11.9741017"><ele>394.0</ele><time>2026-04-18T07:07:44.839Z</time></trkpt><trkpt lat="42.6609233" lon="11.9740083"><ele>394.0</ele><time>2026-04-18T07:07:45.838Z</time></trkpt><trkpt lat="42.6609383" lon="11.9739217"><ele>394.00000000000006</ele><time>2026-04-18T07:07:46.839Z</time></trkpt><trkpt lat="42.6609683" lon="11.973795"><ele>394.0</ele><time>2026-04-18T07:07:48.839Z</time></trkpt><trkpt lat="42.66102" lon="11.9736767"><ele>394.0</ele><time>2026-04-18T07:07:50.839Z</time></trkpt><trkpt lat="42.661105" lon="11.97355"><ele>394.0</ele><time>2026-04-18T07:07:52.838Z</time></trkpt><trkpt lat="42.6611483" lon="11.9734833"><ele>394.0</ele><time>2026-04-18T07:07:53.838Z</time></trkpt><trkpt lat="42.6612067" lon="11.9733583"><ele>394.0</ele><time>2026-04-18T07:07:55.838Z</time></trkpt><trkpt lat="42.6612383" lon="11.9731933"><ele>394.0</ele><time>2026-04-18T07:07:57.838Z</time></trkpt><trkpt lat="42.66126" lon="11.97309"><ele>394.00000000000006</ele><time>2026-04-18T07:07:58.838Z</time></trkpt><trkpt lat="42.661285" lon="11.9729833"><ele>394.0</ele><time>2026-04-18T07:07:59.839Z</time></trkpt><trkpt lat="42.661305" lon="11.9728933"><ele>394.0</ele><time>2026-04-18T07:08:00.839Z</time></trkpt><trkpt lat="42.6613517" lon="11.9727533"><ele>394.0</ele><time>2026-04-18T07:08:02.838Z</time></trkpt><trkpt lat="42.66139" lon="11.9726833"><ele>394.00000000000006</ele><time>2026-04-18T07:08:03.838Z</time></trkpt><trkpt lat="42.6614583" lon="11.9725733"><ele>394.0</ele><time>2026-04-18T07:08:05.839Z</time></trkpt><trkpt lat="42.6615217" lon="11.97246"><ele>393.33333333333337</ele><time>2026-04-18T07:08:07.839Z</time></trkpt><trkpt lat="42.6615783" lon="11.9723233"><ele>392.6666666666667</ele><time>2026-04-18T07:08:09.838Z</time></trkpt><trkpt lat="42.66162" lon="11.9721883"><ele>392.0</ele><time>2026-04-18T07:08:11.839Z</time></trkpt><trkpt lat="42.661635" lon="11.972095"><ele>391.33333333333337</ele><time>2026-04-18T07:08:12.839Z</time></trkpt><trkpt lat="42.66165" lon="11.9720017"><ele>390.6666666666667</ele><time>2026-04-18T07:08:13.838Z</time></trkpt><trkpt lat="42.661665" lon="11.9719083"><ele>390.0</ele><time>2026-04-18T07:08:14.838Z</time></trkpt><trkpt lat="42.6616817" lon="11.971785"><ele>390.1666666666667</ele><time>2026-04-18T07:08:15.838Z</time></trkpt><trkpt lat="42.661705" lon="11.9716783"><ele>390.33333333333337</ele><time>2026-04-18T07:08:16.839Z</time></trkpt><trkpt lat="42.6617167" lon="11.97157"><ele>390.5</ele><time>2026-04-18T07:08:17.838Z</time></trkpt><trkpt lat="42.6617283" lon="11.971465"><ele>390.6666666666667</ele><time>2026-04-18T07:08:18.838Z</time></trkpt><trkpt lat="42.66174" lon="11.9713567"><ele>390.83333333333337</ele><time>2026-04-18T07:08:19.839Z</time></trkpt><trkpt lat="42.6617567" lon="11.9712517"><ele>391.0</ele><time>2026-04-18T07:08:20.839Z</time></trkpt><trkpt lat="42.66176" lon="11.9711567"><ele>391.00000000000006</ele><time>2026-04-18T07:08:21.839Z</time></trkpt><trkpt lat="42.6617667" lon="11.9709867"><ele>391.0</ele><time>2026-04-18T07:08:23.838Z</time></trkpt><trkpt lat="42.6617683" lon="11.9708917"><ele>391.0</ele><time>2026-04-18T07:08:24.838Z</time></trkpt><trkpt lat="42.66177" lon="11.9707867"><ele>391.0</ele><time>2026-04-18T07:08:25.839Z</time></trkpt><trkpt lat="42.6617683" lon="11.9706767"><ele>391.00000000000006</ele><time>2026-04-18T07:08:26.838Z</time></trkpt><trkpt lat="42.6617617" lon="11.9705583"><ele>391.0</ele><time>2026-04-18T07:08:27.838Z</time></trkpt><trkpt lat="42.6617617" lon="11.9704417"><ele>391.6666666666667</ele><time>2026-04-18T07:08:28.839Z</time></trkpt><trkpt lat="42.6617667" lon="11.9703283"><ele>392.33333333333337</ele><time>2026-04-18T07:08:29.839Z</time></trkpt><trkpt lat="42.6617817" lon="11.97023"><ele>393.0</ele><time>2026-04-18T07:08:30.838Z</time></trkpt><trkpt lat="42.6618017" lon="11.97014"><ele>393.66666666666663</ele><time>2026-04-18T07:08:31.838Z</time></trkpt><trkpt lat="42.66183" lon="11.9700467"><ele>394.3333333333333</ele><time>2026-04-18T07:08:32.838Z</time></trkpt><trkpt lat="42.661855" lon="11.9699483"><ele>395.0</ele><time>2026-04-18T07:08:33.839Z</time></trkpt><trkpt lat="42.6618833" lon="11.9698467"><ele>394.99999999999994</ele><time>2026-04-18T07:08:34.838Z</time></trkpt><trkpt lat="42.6619133" lon="11.9697433"><ele>395.0</ele><time>2026-04-18T07:08:35.838Z</time></trkpt><trkpt lat="42.6619483" lon="11.9696383"><ele>395.0</ele><time>2026-04-18T07:08:36.838Z</time></trkpt><trkpt lat="42.66199" lon="11.9695367"><ele>395.0</ele><time>2026-04-18T07:08:37.838Z</time></trkpt><trkpt lat="42.6620317" lon="11.9694383"><ele>394.99999999999994</ele><time>2026-04-18T07:08:38.838Z</time></trkpt><trkpt lat="42.6620717" lon="11.9693417"><ele>395.0</ele><time>2026-04-18T07:08:39.838Z</time></trkpt><trkpt lat="42.662115" lon="11.9692533"><ele>395.2</ele><time>2026-04-18T07:08:40.839Z</time></trkpt><trkpt lat="42.6621583" lon="11.9691767"><ele>395.4</ele><time>2026-04-18T07:08:41.838Z</time></trkpt><trkpt lat="42.662225" lon="11.969035"><ele>395.6</ele><time>2026-04-18T07:08:43.838Z</time></trkpt><trkpt lat="42.6622517" lon="11.9689517"><ele>395.8</ele><time>2026-04-18T07:08:44.838Z</time></trkpt><trkpt lat="42.6622767" lon="11.96883"><ele>396.0</ele><time>2026-04-18T07:08:45.838Z</time></trkpt><trkpt lat="42.6623033" lon="11.9687"><ele>396.0</ele><time>2026-04-18T07:08:46.839Z</time></trkpt><trkpt lat="42.6623383" lon="11.9685467"><ele>396.0</ele><time>2026-04-18T07:08:47.839Z</time></trkpt><trkpt lat="42.66237" lon="11.9684067"><ele>396.0</ele><time>2026-04-18T07:08:48.838Z</time></trkpt><trkpt lat="42.6624117" lon="11.9682617"><ele>396.0</ele><time>2026-04-18T07:08:49.839Z</time></trkpt><trkpt lat="42.66245" lon="11.9681183"><ele>395.8</ele><time>2026-04-18T07:08:50.838Z</time></trkpt><trkpt lat="42.6624717" lon="11.9679783"><ele>395.6</ele><time>2026-04-18T07:08:51.839Z</time></trkpt><trkpt lat="42.6624883" lon="11.9678683"><ele>395.4</ele><time>2026-04-18T07:08:52.838Z</time></trkpt><trkpt lat="42.6624867" lon="11.96773"><ele>395.2</ele><time>2026-04-18T07:08:54.838Z</time></trkpt><trkpt lat="42.662455" lon="11.9676017"><ele>395.0</ele><time>2026-04-18T07:08:56.838Z</time></trkpt><trkpt lat="42.6624617" lon="11.9674583"><ele>394.8333333333333</ele><time>2026-04-18T07:08:58.839Z</time></trkpt><trkpt lat="42.6624883" lon="11.9673617"><ele>394.66666666666663</ele><time>2026-04-18T07:08:59.839Z</time></trkpt><trkpt lat="42.6625117" lon="11.9672633"><ele>394.5</ele><time>2026-04-18T07:09:00.839Z</time></trkpt><trkpt lat="42.6625483" lon="11.967155"><ele>394.33333333333337</ele><time>2026-04-18T07:09:01.838Z</time></trkpt><trkpt lat="42.66259" lon="11.9670633"><ele>394.1666666666667</ele><time>2026-04-18T07:09:02.839Z</time></trkpt><trkpt lat="42.662625" lon="11.9669567"><ele>394.0</ele><time>2026-04-18T07:09:03.838Z</time></trkpt><trkpt lat="42.6626683" lon="11.966845"><ele>394.00000000000006</ele><time>2026-04-18T07:09:04.839Z</time></trkpt><trkpt lat="42.6627167" lon="11.9667183"><ele>394.0</ele><time>2026-04-18T07:09:05.838Z</time></trkpt><trkpt lat="42.662755" lon="11.9666"><ele>394.0</ele><time>2026-04-18T07:09:06.838Z</time></trkpt><trkpt lat="42.66279" lon="11.9665017"><ele>394.0</ele><time>2026-04-18T07:09:07.838Z</time></trkpt><trkpt lat="42.662825" lon="11.9664133"><ele>394.00000000000006</ele><time>2026-04-18T07:09:08.838Z</time></trkpt><trkpt lat="42.6628683" lon="11.9663183"><ele>394.0</ele><time>2026-04-18T07:09:09.839Z</time></trkpt><trkpt lat="42.66292" lon="11.9662267"><ele>394.2857142857143</ele><time>2026-04-18T07:09:10.838Z</time></trkpt><trkpt lat="42.66297" lon="11.9661433"><ele>394.57142857142856</ele><time>2026-04-18T07:09:11.839Z</time></trkpt><trkpt lat="42.6630183" lon="11.9660767"><ele>394.8571428571429</ele><time>2026-04-18T07:09:12.838Z</time></trkpt><trkpt lat="42.663065" lon="11.96601"><ele>395.1428571428571</ele><time>2026-04-18T07:09:13.839Z</time></trkpt><trkpt lat="42.6631167" lon="11.9659433"><ele>395.4285714285714</ele><time>2026-04-18T07:09:14.838Z</time></trkpt><trkpt lat="42.6631733" lon="11.9658767"><ele>395.7142857142857</ele><time>2026-04-18T07:09:15.839Z</time></trkpt><trkpt lat="42.6632367" lon="11.9658067"><ele>396.0</ele><time>2026-04-18T07:09:16.838Z</time></trkpt><trkpt lat="42.663295" lon="11.9657417"><ele>396.0</ele><time>2026-04-18T07:09:17.838Z</time></trkpt><trkpt lat="42.663355" lon="11.9656767"><ele>396.0</ele><time>2026-04-18T07:09:18.839Z</time></trkpt><trkpt lat="42.6634083" lon="11.9656183"><ele>396.0</ele><time>2026-04-18T07:09:19.838Z</time></trkpt><trkpt lat="42.6634583" lon="11.9655633"><ele>396.0</ele><time>2026-04-18T07:09:20.838Z</time></trkpt><trkpt lat="42.6635417" lon="11.965455"><ele>396.0</ele><time>2026-04-18T07:09:22.838Z</time></trkpt><trkpt lat="42.6636067" lon="11.9653167"><ele>396.0</ele><time>2026-04-18T07:09:24.838Z</time></trkpt><trkpt lat="42.663635" lon="11.9652233"><ele>396.3333333333333</ele><time>2026-04-18T07:09:25.838Z</time></trkpt><trkpt lat="42.663655" lon="11.9651083"><ele>396.66666666666663</ele><time>2026-04-18T07:09:26.838Z</time></trkpt><trkpt lat="42.6636717" lon="11.964995"><ele>397.0</ele><time>2026-04-18T07:09:27.838Z</time></trkpt><trkpt lat="42.6636833" lon="11.9648883"><ele>397.3333333333333</ele><time>2026-04-18T07:09:28.839Z</time></trkpt><trkpt lat="42.6637067" lon="11.9648033"><ele>397.66666666666663</ele><time>2026-04-18T07:09:29.838Z</time></trkpt><trkpt lat="42.6637367" lon="11.9647267"><ele>398.0</ele><time>2026-04-18T07:09:30.838Z</time></trkpt><trkpt lat="42.6638117" lon="11.9645883"><ele>398.0</ele><time>2026-04-18T07:09:32.838Z</time></trkpt><trkpt lat="42.6638583" lon="11.964515"><ele>398.0</ele><time>2026-04-18T07:09:33.838Z</time></trkpt><trkpt lat="42.6639117" lon="11.9644483"><ele>398.0</ele><time>2026-04-18T07:09:34.839Z</time></trkpt><trkpt lat="42.664" lon="11.9643483"><ele>398.0</ele><time>2026-04-18T07:09:36.839Z</time></trkpt><trkpt lat="42.664035" lon="11.964245"><ele>398.0</ele><time>2026-04-18T07:09:38.839Z</time></trkpt><trkpt lat="42.6640417" lon="11.96408"><ele>397.99999999999994</ele><time>2026-04-18T07:09:40.839Z</time></trkpt><trkpt lat="42.6640217" lon="11.9639583"><ele>398.0</ele><time>2026-04-18T07:09:41.838Z</time></trkpt><trkpt lat="42.6640033" lon="11.9638467"><ele>398.0</ele><time>2026-04-18T07:09:42.838Z</time></trkpt><trkpt lat="42.6639933" lon="11.9637533"><ele>398.0</ele><time>2026-04-18T07:09:43.838Z</time></trkpt><trkpt lat="42.6639967" lon="11.9636567"><ele>397.99999999999994</ele><time>2026-04-18T07:09:44.839Z</time></trkpt><trkpt lat="42.6640083" lon="11.9635583"><ele>398.0</ele><time>2026-04-18T07:09:45.838Z</time></trkpt><trkpt lat="42.664025" lon="11.9634567"><ele>397.99999999999994</ele><time>2026-04-18T07:09:46.839Z</time></trkpt><trkpt lat="42.664045" lon="11.9633667"><ele>398.0</ele><time>2026-04-18T07:09:47.839Z</time></trkpt><trkpt lat="42.6640733" lon="11.963285"><ele>398.0</ele><time>2026-04-18T07:09:48.839Z</time></trkpt><trkpt lat="42.6641067" lon="11.96321"><ele>398.0</ele><time>2026-04-18T07:09:49.838Z</time></trkpt><trkpt lat="42.664145" lon="11.9631367"><ele>398.0</ele><time>2026-04-18T07:09:50.838Z</time></trkpt><trkpt lat="42.6641883" lon="11.9630717"><ele>397.99999999999994</ele><time>2026-04-18T07:09:51.838Z</time></trkpt><trkpt lat="42.664235" lon="11.9630083"><ele>398.0</ele><time>2026-04-18T07:09:52.838Z</time></trkpt><trkpt lat="42.6642833" lon="11.9629517"><ele>398.2</ele><time>2026-04-18T07:09:53.838Z</time></trkpt><trkpt lat="42.6643767" lon="11.9628567"><ele>398.4</ele><time>2026-04-18T07:09:55.838Z</time></trkpt><trkpt lat="42.66446" lon="11.96278"><ele>398.59999999999997</ele><time>2026-04-18T07:09:57.838Z</time></trkpt><trkpt lat="42.6645533" lon="11.9627317"><ele>398.79999999999995</ele><time>2026-04-18T07:09:59.838Z</time></trkpt><trkpt lat="42.6646733" lon="11.9626917"><ele>399.0</ele><time>2026-04-18T07:10:01.839Z</time></trkpt><trkpt lat="42.6647467" lon="11.9626617"><ele>399.0</ele><time>2026-04-18T07:10:02.839Z</time></trkpt><trkpt lat="42.6648167" lon="11.9626217"><ele>399.0</ele><time>2026-04-18T07:10:03.838Z</time></trkpt><trkpt lat="42.664895" lon="11.9625667"><ele>399.0</ele><time>2026-04-18T07:10:04.839Z</time></trkpt><trkpt lat="42.6649783" lon="11.9625117"><ele>399.0</ele><time>2026-04-18T07:10:05.838Z</time></trkpt><trkpt lat="42.6650567" lon="11.96246"><ele>399.0</ele><time>2026-04-18T07:10:06.838Z</time></trkpt><trkpt lat="42.665115" lon="11.96241"><ele>399.0</ele><time>2026-04-18T07:10:07.838Z</time></trkpt><trkpt lat="42.6652017" lon="11.9623467"><ele>397.4</ele><time>2026-04-18T07:10:09.839Z</time></trkpt><trkpt lat="42.6652567" lon="11.96226"><ele>395.79999999999995</ele><time>2026-04-18T07:10:11.839Z</time></trkpt><trkpt lat="42.6653" lon="11.9621317"><ele>394.20000000000005</ele><time>2026-04-18T07:10:13.839Z</time></trkpt><trkpt lat="42.6652917" lon="11.96198"><ele>392.6</ele><time>2026-04-18T07:10:15.838Z</time></trkpt><trkpt lat="42.66527" lon="11.9618967"><ele>391.0</ele><time>2026-04-18T07:10:16.839Z</time></trkpt><trkpt lat="42.66522" lon="11.9617583"><ele>390.20000000000005</ele><time>2026-04-18T07:10:18.838Z</time></trkpt><trkpt lat="42.6651567" lon="11.961635"><ele>389.40000000000003</ele><time>2026-04-18T07:10:20.838Z</time></trkpt><trkpt lat="42.6651083" lon="11.9615667"><ele>388.6</ele><time>2026-04-18T07:10:21.839Z</time></trkpt><trkpt lat="42.6650317" lon="11.9614917"><ele>387.8</ele><time>2026-04-18T07:10:22.838Z</time></trkpt><trkpt lat="42.6649633" lon="11.9614083"><ele>387.0</ele><time>2026-04-18T07:10:23.838Z</time></trkpt><trkpt lat="42.6648917" lon="11.9613383"><ele>387.0</ele><time>2026-04-18T07:10:24.839Z</time></trkpt><trkpt lat="42.6648233" lon="11.9612833"><ele>387.0</ele><time>2026-04-18T07:10:25.838Z</time></trkpt><trkpt lat="42.6647667" lon="11.96124"><ele>387.0</ele><time>2026-04-18T07:10:26.838Z</time></trkpt><trkpt lat="42.6646617" lon="11.9611867"><ele>387.0</ele><time>2026-04-18T07:10:28.838Z</time></trkpt><trkpt lat="42.664595" lon="11.961165"><ele>387.0</ele><time>2026-04-18T07:10:29.838Z</time></trkpt><trkpt lat="42.6645083" lon="11.96116"><ele>387.0</ele><time>2026-04-18T07:10:30.839Z</time></trkpt><trkpt lat="42.66442" lon="11.9611617"><ele>386.1666666666667</ele><time>2026-04-18T07:10:31.839Z</time></trkpt><trkpt lat="42.6643333" lon="11.9611567"><ele>385.3333333333333</ele><time>2026-04-18T07:10:32.839Z</time></trkpt><trkpt lat="42.6642517" lon="11.96115"><ele>384.5</ele><time>2026-04-18T07:10:33.838Z</time></trkpt><trkpt lat="42.6641767" lon="11.9611433"><ele>383.66666666666663</ele><time>2026-04-18T07:10:34.839Z</time></trkpt><trkpt lat="42.664085" lon="11.9611617"><ele>382.8333333333333</ele><time>2026-04-18T07:10:35.838Z</time></trkpt><trkpt lat="42.663985" lon="11.96117"><ele>382.0</ele><time>2026-04-18T07:10:36.839Z</time></trkpt><trkpt lat="42.6638817" lon="11.9611633"><ele>382.0</ele><time>2026-04-18T07:10:37.839Z</time></trkpt><trkpt lat="42.6637867" lon="11.961145"><ele>382.0</ele><time>2026-04-18T07:10:38.838Z</time></trkpt><trkpt lat="42.663695" lon="11.9611167"><ele>382.0</ele><time>2026-04-18T07:10:39.839Z</time></trkpt><trkpt lat="42.6636133" lon="11.961085"><ele>382.0</ele><time>2026-04-18T07:10:40.838Z</time></trkpt><trkpt lat="42.66353" lon="11.9610383"><ele>382.0</ele><time>2026-04-18T07:10:41.839Z</time></trkpt><trkpt lat="42.6634417" lon="11.961"><ele>381.16666666666663</ele><time>2026-04-18T07:10:42.838Z</time></trkpt><trkpt lat="42.6633617" lon="11.9609633"><ele>380.3333333333333</ele><time>2026-04-18T07:10:43.838Z</time></trkpt><trkpt lat="42.6632833" lon="11.9609317"><ele>379.5</ele><time>2026-04-18T07:10:44.839Z</time></trkpt><trkpt lat="42.6632133" lon="11.9608983"><ele>378.6666666666667</ele><time>2026-04-18T07:10:45.838Z</time></trkpt><trkpt lat="42.6631333" lon="11.9608933"><ele>377.83333333333337</ele><time>2026-04-18T07:10:46.839Z</time></trkpt><trkpt lat="42.6630433" lon="11.9609133"><ele>377.0</ele><time>2026-04-18T07:10:47.838Z</time></trkpt><trkpt lat="42.6629633" lon="11.9609383"><ele>377.0</ele><time>2026-04-18T07:10:48.838Z</time></trkpt><trkpt lat="42.6628883" lon="11.9609567"><ele>377.0</ele><time>2026-04-18T07:10:49.839Z</time></trkpt><trkpt lat="42.6628033" lon="11.9609683"><ele>377.0</ele><time>2026-04-18T07:10:50.839Z</time></trkpt><trkpt lat="42.6627133" lon="11.9609667"><ele>377.0</ele><time>2026-04-18T07:10:51.839Z</time></trkpt><trkpt lat="42.6626317" lon="11.960965"><ele>377.0</ele><time>2026-04-18T07:10:52.838Z</time></trkpt><trkpt lat="42.66254" lon="11.9609467"><ele>377.0</ele><time>2026-04-18T07:10:53.838Z</time></trkpt><trkpt lat="42.662455" lon="11.9609283"><ele>376.6</ele><time>2026-04-18T07:10:54.838Z</time></trkpt><trkpt lat="42.6623583" lon="11.9608917"><ele>376.20000000000005</ele><time>2026-04-18T07:10:55.839Z</time></trkpt><trkpt lat="42.66226" lon="11.96085"><ele>375.8</ele><time>2026-04-18T07:10:56.838Z</time></trkpt><trkpt lat="42.6621617" lon="11.9608167"><ele>375.4</ele><time>2026-04-18T07:10:57.839Z</time></trkpt><trkpt lat="42.6620683" lon="11.96078"><ele>375.0</ele><time>2026-04-18T07:10:58.839Z</time></trkpt><trkpt lat="42.661995" lon="11.9607517"><ele>375.6</ele><time>2026-04-18T07:10:59.838Z</time></trkpt><trkpt lat="42.6619317" lon="11.960725"><ele>376.2</ele><time>2026-04-18T07:11:00.838Z</time></trkpt><trkpt lat="42.6618417" lon="11.9606533"><ele>376.79999999999995</ele><time>2026-04-18T07:11:02.838Z</time></trkpt><trkpt lat="42.6617683" lon="11.9605517"><ele>377.4</ele><time>2026-04-18T07:11:04.838Z</time></trkpt><trkpt lat="42.66173" lon="11.9603983"><ele>378.0</ele><time>2026-04-18T07:11:06.838Z</time></trkpt><trkpt lat="42.66172" lon="11.9603067"><ele>378.0</ele><time>2026-04-18T07:11:07.838Z</time></trkpt><trkpt lat="42.6617117" lon="11.960205"><ele>378.0</ele><time>2026-04-18T07:11:08.839Z</time></trkpt><trkpt lat="42.6617" lon="11.9600983"><ele>378.0</ele><time>2026-04-18T07:11:09.838Z</time></trkpt><trkpt lat="42.6616783" lon="11.9599383"><ele>378.0</ele><time>2026-04-18T07:11:11.838Z</time></trkpt><trkpt lat="42.6616633" lon="11.9598117"><ele>378.0</ele><time>2026-04-18T07:11:13.838Z</time></trkpt><trkpt lat="42.6616633" lon="11.9597"><ele>377.59999999999997</ele><time>2026-04-18T07:11:15.839Z</time></trkpt><trkpt lat="42.6616617" lon="11.9595533"><ele>377.2</ele><time>2026-04-18T07:11:17.839Z</time></trkpt><trkpt lat="42.661665" lon="11.959415"><ele>376.8</ele><time>2026-04-18T07:11:19.839Z</time></trkpt><trkpt lat="42.6616917" lon="11.9593"><ele>376.4</ele><time>2026-04-18T07:11:21.838Z</time></trkpt><trkpt lat="42.661775" lon="11.95919"><ele>376.0</ele><time>2026-04-18T07:11:23.839Z</time></trkpt><trkpt lat="42.661845" lon="11.959125"><ele>374.75</ele><time>2026-04-18T07:11:24.838Z</time></trkpt><trkpt lat="42.6619333" lon="11.959045"><ele>373.5</ele><time>2026-04-18T07:11:25.838Z</time></trkpt><trkpt lat="42.6620367" lon="11.95894"><ele>372.25</ele><time>2026-04-18T07:11:26.839Z</time></trkpt><trkpt lat="42.6621417" lon="11.9588433"><ele>371.0</ele><time>2026-04-18T07:11:27.838Z</time></trkpt><trkpt lat="42.6622283" lon="11.958775"><ele>372.6666666666667</ele><time>2026-04-18T07:11:28.839Z</time></trkpt><trkpt lat="42.6623017" lon="11.9587267"><ele>374.33333333333337</ele><time>2026-04-18T07:11:29.839Z</time></trkpt><trkpt lat="42.6623683" lon="11.95868"><ele>376.0</ele><time>2026-04-18T07:11:30.839Z</time></trkpt><trkpt lat="42.66244" lon="11.9586317"><ele>377.6666666666667</ele><time>2026-04-18T07:11:31.838Z</time></trkpt><trkpt lat="42.6625117" lon="11.9585967"><ele>379.3333333333333</ele><time>2026-04-18T07:11:32.839Z</time></trkpt><trkpt lat="42.6625833" lon="11.9585633"><ele>381.0</ele><time>2026-04-18T07:11:33.839Z</time></trkpt><trkpt lat="42.6626483" lon="11.9585217"><ele>381.0</ele><time>2026-04-18T07:11:34.838Z</time></trkpt><trkpt lat="42.6627183" lon="11.9584533"><ele>381.0</ele><time>2026-04-18T07:11:36.838Z</time></trkpt><trkpt lat="42.6627617" lon="11.9583517"><ele>381.0</ele><time>2026-04-18T07:11:38.839Z</time></trkpt><trkpt lat="42.6627917" lon="11.9582633"><ele>381.0</ele><time>2026-04-18T07:11:39.838Z</time></trkpt><trkpt lat="42.6628217" lon="11.958165"><ele>381.0</ele><time>2026-04-18T07:11:40.838Z</time></trkpt><trkpt lat="42.6628567" lon="11.9580617"><ele>381.0</ele><time>2026-04-18T07:11:41.838Z</time></trkpt><trkpt lat="42.6629017" lon="11.9579767"><ele>381.8</ele><time>2026-04-18T07:11:42.837Z</time></trkpt><trkpt lat="42.6630133" lon="11.9579017"><ele>382.6</ele><time>2026-04-18T07:11:44.838Z</time></trkpt><trkpt lat="42.6630883" lon="11.95789"><ele>383.4</ele><time>2026-04-18T07:11:45.838Z</time></trkpt><trkpt lat="42.6631567" lon="11.957885"><ele>384.2</ele><time>2026-04-18T07:11:46.837Z</time></trkpt><trkpt lat="42.6632717" lon="11.9578783"><ele>385.0</ele><time>2026-04-18T07:11:48.838Z</time></trkpt><trkpt lat="42.6633867" lon="11.957845"><ele>385.0</ele><time>2026-04-18T07:11:50.838Z</time></trkpt><trkpt lat="42.6634883" lon="11.95771"><ele>385.0</ele><time>2026-04-18T07:11:52.837Z</time></trkpt><trkpt lat="42.663525" lon="11.9575817"><ele>385.0</ele><time>2026-04-18T07:11:53.838Z</time></trkpt><trkpt lat="42.6635617" lon="11.9574117"><ele>385.0</ele><time>2026-04-18T07:11:54.837Z</time></trkpt><trkpt lat="42.6636017" lon="11.9572483"><ele>385.00000000000006</ele><time>2026-04-18T07:11:55.837Z</time></trkpt><trkpt lat="42.6636367" lon="11.9571217"><ele>385.0</ele><time>2026-04-18T07:11:56.837Z</time></trkpt><trkpt lat="42.6636767" lon="11.957045"><ele>385.0</ele><time>2026-04-18T07:11:57.837Z</time></trkpt><trkpt lat="42.66376" lon="11.9569767"><ele>385.0</ele><time>2026-04-18T07:11:59.837Z</time></trkpt><trkpt lat="42.6638233" lon="11.9569567"><ele>385.00000000000006</ele><time>2026-04-18T07:12:00.838Z</time></trkpt><trkpt lat="42.6638967" lon="11.9569117"><ele>385.0</ele><time>2026-04-18T07:12:01.837Z</time></trkpt><trkpt lat="42.663965" lon="11.9568517"><ele>385.00000000000006</ele><time>2026-04-18T07:12:02.837Z</time></trkpt><trkpt lat="42.6640217" lon="11.95677"><ele>385.0</ele><time>2026-04-18T07:12:03.837Z</time></trkpt><trkpt lat="42.6640583" lon="11.9566533"><ele>385.0</ele><time>2026-04-18T07:12:04.838Z</time></trkpt><trkpt lat="42.6640833" lon="11.9565533"><ele>385.0</ele><time>2026-04-18T07:12:05.838Z</time></trkpt><trkpt lat="42.6641067" lon="11.9564717"><ele>385.00000000000006</ele><time>2026-04-18T07:12:06.837Z</time></trkpt><trkpt lat="42.6640967" lon="11.95635"><ele>385.0</ele><time>2026-04-18T07:12:08.837Z</time></trkpt><trkpt lat="42.66404" lon="11.9562317"><ele>384.8</ele><time>2026-04-18T07:12:10.837Z</time></trkpt><trkpt lat="42.6639633" lon="11.9561133"><ele>384.6</ele><time>2026-04-18T07:12:12.837Z</time></trkpt><trkpt lat="42.663895" lon="11.9560117"><ele>384.4</ele><time>2026-04-18T07:12:14.838Z</time></trkpt><trkpt lat="42.6638717" lon="11.955885"><ele>384.2</ele><time>2026-04-18T07:12:16.837Z</time></trkpt><trkpt lat="42.6639017" lon="11.9557467"><ele>384.0</ele><time>2026-04-18T07:12:18.837Z</time></trkpt><trkpt lat="42.6639367" lon="11.9556633"><ele>383.0</ele><time>2026-04-18T07:12:19.837Z</time></trkpt><trkpt lat="42.6639883" lon="11.9555633"><ele>382.0</ele><time>2026-04-18T07:12:20.838Z</time></trkpt><trkpt lat="42.66403" lon="11.9554533"><ele>381.0</ele><time>2026-04-18T07:12:21.838Z</time></trkpt><trkpt lat="42.66406" lon="11.955365"><ele>380.0</ele><time>2026-04-18T07:12:22.838Z</time></trkpt><trkpt lat="42.66413" lon="11.9552267"><ele>379.0</ele><time>2026-04-18T07:12:24.837Z</time></trkpt><trkpt lat="42.66424" lon="11.9551567"><ele>379.0</ele><time>2026-04-18T07:12:26.837Z</time></trkpt><trkpt lat="42.6643033" lon="11.9551283"><ele>379.0</ele><time>2026-04-18T07:12:27.837Z</time></trkpt><trkpt lat="42.6643817" lon="11.95506"><ele>379.0</ele><time>2026-04-18T07:12:29.838Z</time></trkpt><trkpt lat="42.6643817" lon="11.9549567"><ele>379.0</ele><time>2026-04-18T07:12:31.837Z</time></trkpt><trkpt lat="42.6642417" lon="11.9548617"><ele>379.0</ele><time>2026-04-18T07:12:33.837Z</time></trkpt><trkpt lat="42.6641283" lon="11.9548067"><ele>377.79999999999995</ele><time>2026-04-18T07:12:34.837Z</time></trkpt><trkpt lat="42.6640117" lon="11.9547517"><ele>376.59999999999997</ele><time>2026-04-18T07:12:35.837Z</time></trkpt><trkpt lat="42.663915" lon="11.95467"><ele>375.4</ele><time>2026-04-18T07:12:36.838Z</time></trkpt><trkpt lat="42.6638383" lon="11.95459"><ele>374.2</ele><time>2026-04-18T07:12:37.837Z</time></trkpt><trkpt lat="42.66377" lon="11.9545067"><ele>373.0</ele><time>2026-04-18T07:12:38.837Z</time></trkpt><trkpt lat="42.6637133" lon="11.9544167"><ele>373.0</ele><time>2026-04-18T07:12:39.837Z</time></trkpt><trkpt lat="42.6636683" lon="11.9543217"><ele>373.0</ele><time>2026-04-18T07:12:40.838Z</time></trkpt><trkpt lat="42.6636383" lon="11.9542317"><ele>373.0</ele><time>2026-04-18T07:12:41.837Z</time></trkpt><trkpt lat="42.6636117" lon="11.954065"><ele>373.0</ele><time>2026-04-18T07:12:43.837Z</time></trkpt><trkpt lat="42.6636267" lon="11.9539217"><ele>373.0</ele><time>2026-04-18T07:12:45.838Z</time></trkpt><trkpt lat="42.66368" lon="11.953825"><ele>373.16666666666663</ele><time>2026-04-18T07:12:47.838Z</time></trkpt><trkpt lat="42.663775" lon="11.9537867"><ele>373.3333333333333</ele><time>2026-04-18T07:12:49.838Z</time></trkpt><trkpt lat="42.6638817" lon="11.9538217"><ele>373.5</ele><time>2026-04-18T07:12:51.837Z</time></trkpt><trkpt lat="42.6639433" lon="11.9538533"><ele>373.6666666666667</ele><time>2026-04-18T07:12:52.837Z</time></trkpt><trkpt lat="42.6640133" lon="11.953885"><ele>373.83333333333337</ele><time>2026-04-18T07:12:53.837Z</time></trkpt><trkpt lat="42.6640967" lon="11.9539083"><ele>374.0</ele><time>2026-04-18T07:12:54.838Z</time></trkpt><trkpt lat="42.6641683" lon="11.9539"><ele>374.0</ele><time>2026-04-18T07:12:55.837Z</time></trkpt><trkpt lat="42.664265" lon="11.953805"><ele>374.0</ele><time>2026-04-18T07:12:57.838Z</time></trkpt><trkpt lat="42.6643133" lon="11.9537167"><ele>374.0</ele><time>2026-04-18T07:12:58.838Z</time></trkpt><trkpt lat="42.6643633" lon="11.9536317"><ele>374.0</ele><time>2026-04-18T07:12:59.837Z</time></trkpt><trkpt lat="42.6644067" lon="11.9535617"><ele>374.0</ele><time>2026-04-18T07:13:00.838Z</time></trkpt><trkpt lat="42.664485" lon="11.9534483"><ele>375.0</ele><time>2026-04-18T07:13:02.838Z</time></trkpt><trkpt lat="42.664555" lon="11.9533417"><ele>376.0</ele><time>2026-04-18T07:13:04.837Z</time></trkpt><trkpt lat="42.6646167" lon="11.9532267"><ele>377.0</ele><time>2026-04-18T07:13:06.837Z</time></trkpt><trkpt lat="42.6646383" lon="11.95308"><ele>378.0</ele><time>2026-04-18T07:13:08.837Z</time></trkpt><trkpt lat="42.6645867" lon="11.9529317"><ele>379.0</ele><time>2026-04-18T07:13:10.837Z</time></trkpt><trkpt lat="42.6645417" lon="11.9528667"><ele>379.0</ele><time>2026-04-18T07:13:11.837Z</time></trkpt><trkpt lat="42.6644817" lon="11.9528183"><ele>379.0</ele><time>2026-04-18T07:13:12.837Z</time></trkpt><trkpt lat="42.6644083" lon="11.95276"><ele>379.0</ele><time>2026-04-18T07:13:13.837Z</time></trkpt><trkpt lat="42.6643333" lon="11.9526983"><ele>379.0</ele><time>2026-04-18T07:13:14.838Z</time></trkpt><trkpt lat="42.66427" lon="11.9526417"><ele>379.0</ele><time>2026-04-18T07:13:15.837Z</time></trkpt><trkpt lat="42.664175" lon="11.9525383"><ele>379.0</ele><time>2026-04-18T07:13:17.838Z</time></trkpt><trkpt lat="42.6641367" lon="11.9523933"><ele>379.4</ele><time>2026-04-18T07:13:19.837Z</time></trkpt><trkpt lat="42.6641717" lon="11.9522417"><ele>379.79999999999995</ele><time>2026-04-18T07:13:21.837Z</time></trkpt><trkpt lat="42.6642417" lon="11.9521067"><ele>380.20000000000005</ele><time>2026-04-18T07:13:23.838Z</time></trkpt><trkpt lat="42.6642967" lon="11.9520583"><ele>380.6</ele><time>2026-04-18T07:13:24.838Z</time></trkpt><trkpt lat="42.6643717" lon="11.952035"><ele>381.0</ele><time>2026-04-18T07:13:25.837Z</time></trkpt><trkpt lat="42.6644583" lon="11.9520233"><ele>381.0</ele><time>2026-04-18T07:13:26.838Z</time></trkpt><trkpt lat="42.664535" lon="11.9520183"><ele>381.0</ele><time>2026-04-18T07:13:27.838Z</time></trkpt><trkpt lat="42.6646117" lon="11.95201"><ele>381.0</ele><time>2026-04-18T07:13:28.838Z</time></trkpt><trkpt lat="42.6647033" lon="11.9520283"><ele>381.0</ele><time>2026-04-18T07:13:30.838Z</time></trkpt><trkpt lat="42.6647833" lon="11.9519533"><ele>381.0</ele><time>2026-04-18T07:13:32.837Z</time></trkpt><trkpt lat="42.6648233" lon="11.951865"><ele>381.0</ele><time>2026-04-18T07:13:33.838Z</time></trkpt><trkpt lat="42.6648433" lon="11.9517567"><ele>381.1666666666667</ele><time>2026-04-18T07:13:34.837Z</time></trkpt><trkpt lat="42.6648567" lon="11.9516433"><ele>381.3333333333333</ele><time>2026-04-18T07:13:35.837Z</time></trkpt><trkpt lat="42.6648767" lon="11.9515283"><ele>381.5</ele><time>2026-04-18T07:13:36.837Z</time></trkpt><trkpt lat="42.6648867" lon="11.95142"><ele>381.66666666666663</ele><time>2026-04-18T07:13:37.837Z</time></trkpt><trkpt lat="42.6649" lon="11.9512983"><ele>381.8333333333333</ele><time>2026-04-18T07:13:38.837Z</time></trkpt><trkpt lat="42.6649183" lon="11.9511683"><ele>382.0</ele><time>2026-04-18T07:13:39.837Z</time></trkpt><trkpt lat="42.6649417" lon="11.9510367"><ele>382.0</ele><time>2026-04-18T07:13:40.837Z</time></trkpt><trkpt lat="42.6649667" lon="11.9509183"><ele>382.0</ele><time>2026-04-18T07:13:41.838Z</time></trkpt><trkpt lat="42.6649967" lon="11.95081"><ele>382.0</ele><time>2026-04-18T07:13:42.837Z</time></trkpt><trkpt lat="42.665015" lon="11.9507083"><ele>382.0</ele><time>2026-04-18T07:13:43.837Z</time></trkpt><trkpt lat="42.66504" lon="11.9506067"><ele>382.0</ele><time>2026-04-18T07:13:44.837Z</time></trkpt><trkpt lat="42.66506" lon="11.9505117"><ele>382.0</ele><time>2026-04-18T07:13:45.838Z</time></trkpt><trkpt lat="42.6650817" lon="11.9504217"><ele>382.3333333333333</ele><time>2026-04-18T07:13:46.838Z</time></trkpt><trkpt lat="42.665105" lon="11.9502933"><ele>382.66666666666663</ele><time>2026-04-18T07:13:48.837Z</time></trkpt><trkpt lat="42.665105" lon="11.950205"><ele>383.0</ele><time>2026-04-18T07:13:51.837Z</time></trkpt><trkpt lat="42.6651383" lon="11.95013"><ele>383.3333333333333</ele><time>2026-04-18T07:13:54.838Z</time></trkpt><trkpt lat="42.6652017" lon="11.9500967"><ele>383.6666666666667</ele><time>2026-04-18T07:13:56.838Z</time></trkpt><trkpt lat="42.66531" lon="11.9500933"><ele>384.0</ele><time>2026-04-18T07:13:58.837Z</time></trkpt><trkpt lat="42.665385" lon="11.9500967"><ele>384.0</ele><time>2026-04-18T07:13:59.837Z</time></trkpt><trkpt lat="42.665465" lon="11.95011"><ele>384.0</ele><time>2026-04-18T07:14:00.837Z</time></trkpt><trkpt lat="42.665545" lon="11.9501267"><ele>384.0</ele><time>2026-04-18T07:14:01.837Z</time></trkpt><trkpt lat="42.6656283" lon="11.9501467"><ele>384.0</ele><time>2026-04-18T07:14:02.837Z</time></trkpt><trkpt lat="42.6657083" lon="11.950175"><ele>384.0</ele><time>2026-04-18T07:14:03.837Z</time></trkpt><trkpt lat="42.66579" lon="11.9502"><ele>384.0</ele><time>2026-04-18T07:14:04.837Z</time></trkpt><trkpt lat="42.665875" lon="11.9502267"><ele>384.0</ele><time>2026-04-18T07:14:05.838Z</time></trkpt><trkpt lat="42.66595" lon="11.950255"><ele>384.0</ele><time>2026-04-18T07:14:06.837Z</time></trkpt><trkpt lat="42.6660233" lon="11.9502817"><ele>384.0</ele><time>2026-04-18T07:14:07.837Z</time></trkpt><trkpt lat="42.6661017" lon="11.9503017"><ele>384.0</ele><time>2026-04-18T07:14:08.837Z</time></trkpt><trkpt lat="42.66618" lon="11.9503083"><ele>384.0</ele><time>2026-04-18T07:14:09.838Z</time></trkpt><trkpt lat="42.6662717" lon="11.95031"><ele>384.0</ele><time>2026-04-18T07:14:10.838Z</time></trkpt><trkpt lat="42.6663683" lon="11.9502867"><ele>385.1666666666667</ele><time>2026-04-18T07:14:11.837Z</time></trkpt><trkpt lat="42.66647" lon="11.9502583"><ele>386.33333333333337</ele><time>2026-04-18T07:14:12.838Z</time></trkpt><trkpt lat="42.6665583" lon="11.9502317"><ele>387.5</ele><time>2026-04-18T07:14:13.837Z</time></trkpt><trkpt lat="42.666635" lon="11.9502133"><ele>388.6666666666667</ele><time>2026-04-18T07:14:14.837Z</time></trkpt><trkpt lat="42.6667017" lon="11.9502033"><ele>389.83333333333337</ele><time>2026-04-18T07:14:15.837Z</time></trkpt><trkpt lat="42.666775" lon="11.950205"><ele>391.0</ele><time>2026-04-18T07:14:16.837Z</time></trkpt><trkpt lat="42.6668633" lon="11.950225"><ele>392.4</ele><time>2026-04-18T07:14:17.837Z</time></trkpt><trkpt lat="42.666965" lon="11.9502567"><ele>393.8</ele><time>2026-04-18T07:14:18.837Z</time></trkpt><trkpt lat="42.6670667" lon="11.9502933"><ele>395.2</ele><time>2026-04-18T07:14:19.837Z</time></trkpt><trkpt lat="42.6671717" lon="11.9503217"><ele>396.59999999999997</ele><time>2026-04-18T07:14:20.837Z</time></trkpt><trkpt lat="42.6672817" lon="11.950355"><ele>398.0</ele><time>2026-04-18T07:14:21.837Z</time></trkpt><trkpt lat="42.6673917" lon="11.9503867"><ele>398.0</ele><time>2026-04-18T07:14:22.837Z</time></trkpt><trkpt lat="42.667495" lon="11.950415"><ele>398.0</ele><time>2026-04-18T07:14:23.837Z</time></trkpt><trkpt lat="42.6675967" lon="11.9504433"><ele>398.0</ele><time>2026-04-18T07:14:24.838Z</time></trkpt><trkpt lat="42.6676917" lon="11.9504717"><ele>398.0</ele><time>2026-04-18T07:14:25.837Z</time></trkpt><trkpt lat="42.6677733" lon="11.950505"><ele>398.0</ele><time>2026-04-18T07:14:26.838Z</time></trkpt><trkpt lat="42.6678717" lon="11.9505383"><ele>399.2</ele><time>2026-04-18T07:14:27.837Z</time></trkpt><trkpt lat="42.66797" lon="11.9505517"><ele>400.4</ele><time>2026-04-18T07:14:28.837Z</time></trkpt><trkpt lat="42.6680783" lon="11.9505733"><ele>401.59999999999997</ele><time>2026-04-18T07:14:29.838Z</time></trkpt><trkpt lat="42.6681783" lon="11.9505933"><ele>402.79999999999995</ele><time>2026-04-18T07:14:30.837Z</time></trkpt><trkpt lat="42.668275" lon="11.9506233"><ele>404.0</ele><time>2026-04-18T07:14:31.837Z</time></trkpt><trkpt lat="42.6683733" lon="11.950655"><ele>403.99999999999994</ele><time>2026-04-18T07:14:32.837Z</time></trkpt><trkpt lat="42.6684683" lon="11.950685"><ele>404.0</ele><time>2026-04-18T07:14:33.838Z</time></trkpt><trkpt lat="42.668565" lon="11.950715"><ele>404.0</ele><time>2026-04-18T07:14:34.838Z</time></trkpt><trkpt lat="42.66867" lon="11.9507683"><ele>404.0</ele><time>2026-04-18T07:14:35.837Z</time></trkpt><trkpt lat="42.6687417" lon="11.9507717"><ele>403.99999999999994</ele><time>2026-04-18T07:14:36.837Z</time></trkpt><trkpt lat="42.668805" lon="11.9507767"><ele>404.0</ele><time>2026-04-18T07:14:37.838Z</time></trkpt><trkpt lat="42.668875" lon="11.9507667"><ele>406.4</ele><time>2026-04-18T07:14:38.838Z</time></trkpt><trkpt lat="42.668955" lon="11.9506567"><ele>408.79999999999995</ele><time>2026-04-18T07:14:40.837Z</time></trkpt><trkpt lat="42.6689783" lon="11.9505633"><ele>411.20000000000005</ele><time>2026-04-18T07:14:41.838Z</time></trkpt><trkpt lat="42.668995" lon="11.95045"><ele>413.6</ele><time>2026-04-18T07:14:42.838Z</time></trkpt><trkpt lat="42.6690167" lon="11.9503017"><ele>416.0</ele><time>2026-04-18T07:14:43.837Z</time></trkpt><trkpt lat="42.6690433" lon="11.9501133"><ele>415.0</ele><time>2026-04-18T07:14:44.838Z</time></trkpt><trkpt lat="42.66907" lon="11.9499267"><ele>414.0</ele><time>2026-04-18T07:14:45.837Z</time></trkpt><trkpt lat="42.6690917" lon="11.9497483"><ele>413.0</ele><time>2026-04-18T07:14:46.837Z</time></trkpt><trkpt lat="42.6691217" lon="11.949575"><ele>412.0</ele><time>2026-04-18T07:14:47.837Z</time></trkpt><trkpt lat="42.66915" lon="11.9494067"><ele>412.0</ele><time>2026-04-18T07:14:48.837Z</time></trkpt><trkpt lat="42.6691767" lon="11.9492483"><ele>412.0</ele><time>2026-04-18T07:14:49.838Z</time></trkpt><trkpt lat="42.6691983" lon="11.9490917"><ele>412.0</ele><time>2026-04-18T07:14:50.837Z</time></trkpt><trkpt lat="42.669225" lon="11.948935"><ele>412.0</ele><time>2026-04-18T07:14:51.838Z</time></trkpt><trkpt lat="42.6692717" lon="11.9487517"><ele>412.0</ele><time>2026-04-18T07:14:52.837Z</time></trkpt><trkpt lat="42.6693017" lon="11.9485783"><ele>412.0</ele><time>2026-04-18T07:14:53.838Z</time></trkpt><trkpt lat="42.6693333" lon="11.9484"><ele>412.0</ele><time>2026-04-18T07:14:54.837Z</time></trkpt><trkpt lat="42.66937" lon="11.9482333"><ele>412.0</ele><time>2026-04-18T07:14:55.837Z</time></trkpt><trkpt lat="42.6694033" lon="11.9480517"><ele>412.25</ele><time>2026-04-18T07:14:56.837Z</time></trkpt><trkpt lat="42.6694417" lon="11.9478783"><ele>412.5</ele><time>2026-04-18T07:14:57.837Z</time></trkpt><trkpt lat="42.669475" lon="11.94771"><ele>412.75</ele><time>2026-04-18T07:14:58.837Z</time></trkpt><trkpt lat="42.6695" lon="11.9475417"><ele>413.0</ele><time>2026-04-18T07:14:59.837Z</time></trkpt><trkpt lat="42.6695233" lon="11.9473783"><ele>413.75</ele><time>2026-04-18T07:15:00.838Z</time></trkpt><trkpt lat="42.6695467" lon="11.9472167"><ele>414.5</ele><time>2026-04-18T07:15:01.838Z</time></trkpt><trkpt lat="42.669575" lon="11.9470517"><ele>415.25</ele><time>2026-04-18T07:15:02.837Z</time></trkpt><trkpt lat="42.6696033" lon="11.9468817"><ele>416.0</ele><time>2026-04-18T07:15:03.838Z</time></trkpt><trkpt lat="42.6696317" lon="11.9467217"><ele>416.0</ele><time>2026-04-18T07:15:04.837Z</time></trkpt><trkpt lat="42.6696567" lon="11.9465683"><ele>416.0</ele><time>2026-04-18T07:15:05.837Z</time></trkpt><trkpt lat="42.6696833" lon="11.9464167"><ele>416.0</ele><time>2026-04-18T07:15:06.838Z</time></trkpt><trkpt lat="42.6697067" lon="11.9462517"><ele>416.0</ele><time>2026-04-18T07:15:07.837Z</time></trkpt><trkpt lat="42.6697317" lon="11.9460783"><ele>416.0</ele><time>2026-04-18T07:15:08.837Z</time></trkpt><trkpt lat="42.6697583" lon="11.9459033"><ele>416.0</ele><time>2026-04-18T07:15:09.837Z</time></trkpt><trkpt lat="42.6697833" lon="11.9457317"><ele>416.0</ele><time>2026-04-18T07:15:10.837Z</time></trkpt><trkpt lat="42.669805" lon="11.9455717"><ele>416.0</ele><time>2026-04-18T07:15:11.837Z</time></trkpt><trkpt lat="42.6698317" lon="11.9454133"><ele>416.0</ele><time>2026-04-18T07:15:12.837Z</time></trkpt><trkpt lat="42.6698533" lon="11.9452583"><ele>416.0</ele><time>2026-04-18T07:15:13.837Z</time></trkpt><trkpt lat="42.6698733" lon="11.9450967"><ele>416.0</ele><time>2026-04-18T07:15:14.837Z</time></trkpt><trkpt lat="42.669885" lon="11.944925"><ele>416.0</ele><time>2026-04-18T07:15:15.838Z</time></trkpt><trkpt lat="42.6698883" lon="11.94475"><ele>415.75</ele><time>2026-04-18T07:15:16.837Z</time></trkpt><trkpt lat="42.6698867" lon="11.94458"><ele>415.5</ele><time>2026-04-18T07:15:17.837Z</time></trkpt><trkpt lat="42.6698933" lon="11.9444117"><ele>415.25</ele><time>2026-04-18T07:15:18.838Z</time></trkpt><trkpt lat="42.6699067" lon="11.944245"><ele>415.0</ele><time>2026-04-18T07:15:19.837Z</time></trkpt><trkpt lat="42.6699317" lon="11.9440867"><ele>414.25</ele><time>2026-04-18T07:15:20.837Z</time></trkpt><trkpt lat="42.6699583" lon="11.9439333"><ele>413.5</ele><time>2026-04-18T07:15:21.838Z</time></trkpt><trkpt lat="42.6699867" lon="11.9437767"><ele>412.75</ele><time>2026-04-18T07:15:22.837Z</time></trkpt><trkpt lat="42.6700017" lon="11.9436217"><ele>412.0</ele><time>2026-04-18T07:15:23.837Z</time></trkpt><trkpt lat="42.670015" lon="11.943455"><ele>411.75</ele><time>2026-04-18T07:15:24.838Z</time></trkpt><trkpt lat="42.6700333" lon="11.9432883"><ele>411.5</ele><time>2026-04-18T07:15:25.837Z</time></trkpt><trkpt lat="42.6700433" lon="11.94312"><ele>411.25</ele><time>2026-04-18T07:15:26.837Z</time></trkpt><trkpt lat="42.6700533" lon="11.9429533"><ele>411.0</ele><time>2026-04-18T07:15:27.837Z</time></trkpt><trkpt lat="42.670065" lon="11.9427833"><ele>411.0</ele><time>2026-04-18T07:15:28.837Z</time></trkpt><trkpt lat="42.670085" lon="11.94261"><ele>411.0</ele><time>2026-04-18T07:15:29.837Z</time></trkpt><trkpt lat="42.6700983" lon="11.94245"><ele>411.0</ele><time>2026-04-18T07:15:30.837Z</time></trkpt><trkpt lat="42.6701083" lon="11.9422967"><ele>411.0</ele><time>2026-04-18T07:15:31.838Z</time></trkpt><trkpt lat="42.6701217" lon="11.942155"><ele>411.0</ele><time>2026-04-18T07:15:32.837Z</time></trkpt><trkpt lat="42.67013" lon="11.9420183"><ele>411.0</ele><time>2026-04-18T07:15:33.837Z</time></trkpt><trkpt lat="42.6701383" lon="11.9418883"><ele>411.0</ele><time>2026-04-18T07:15:34.838Z</time></trkpt><trkpt lat="42.6701517" lon="11.94175"><ele>411.0</ele><time>2026-04-18T07:15:35.838Z</time></trkpt><trkpt lat="42.6701667" lon="11.9416183"><ele>411.0</ele><time>2026-04-18T07:15:36.837Z</time></trkpt><trkpt lat="42.6701767" lon="11.9414783"><ele>411.0</ele><time>2026-04-18T07:15:37.837Z</time></trkpt><trkpt lat="42.6702017" lon="11.9413483"><ele>411.0</ele><time>2026-04-18T07:15:38.838Z</time></trkpt><trkpt lat="42.67023" lon="11.9412333"><ele>411.0</ele><time>2026-04-18T07:15:39.838Z</time></trkpt><trkpt lat="42.6702633" lon="11.9411283"><ele>411.0</ele><time>2026-04-18T07:15:40.837Z</time></trkpt><trkpt lat="42.670295" lon="11.9410383"><ele>411.0</ele><time>2026-04-18T07:15:41.838Z</time></trkpt><trkpt lat="42.6703383" lon="11.9409617"><ele>411.0</ele><time>2026-04-18T07:15:42.837Z</time></trkpt><trkpt lat="42.6703733" lon="11.9408717"><ele>411.5</ele><time>2026-04-18T07:15:43.837Z</time></trkpt><trkpt lat="42.6704083" lon="11.940785"><ele>412.0</ele><time>2026-04-18T07:15:44.837Z</time></trkpt><trkpt lat="42.6704417" lon="11.9407083"><ele>412.5</ele><time>2026-04-18T07:15:45.838Z</time></trkpt><trkpt lat="42.670475" lon="11.9406167"><ele>413.0</ele><time>2026-04-18T07:15:46.837Z</time></trkpt><trkpt lat="42.670505" lon="11.9405167"><ele>413.5</ele><time>2026-04-18T07:15:47.837Z</time></trkpt><trkpt lat="42.67053" lon="11.9404067"><ele>414.0</ele><time>2026-04-18T07:15:48.837Z</time></trkpt><trkpt lat="42.6705567" lon="11.9402967"><ele>414.0</ele><time>2026-04-18T07:15:49.838Z</time></trkpt><trkpt lat="42.6705817" lon="11.9401883"><ele>414.0</ele><time>2026-04-18T07:15:50.837Z</time></trkpt><trkpt lat="42.67061" lon="11.9400767"><ele>414.0</ele><time>2026-04-18T07:15:51.837Z</time></trkpt><trkpt lat="42.6706367" lon="11.9399783"><ele>414.0</ele><time>2026-04-18T07:15:52.838Z</time></trkpt><trkpt lat="42.67067" lon="11.9398967"><ele>414.0</ele><time>2026-04-18T07:15:53.837Z</time></trkpt><trkpt lat="42.6707217" lon="11.9398117"><ele>414.0</ele><time>2026-04-18T07:15:54.838Z</time></trkpt><trkpt lat="42.670775" lon="11.939725"><ele>413.0</ele><time>2026-04-18T07:15:55.838Z</time></trkpt><trkpt lat="42.6708317" lon="11.9396317"><ele>412.0</ele><time>2026-04-18T07:15:56.837Z</time></trkpt><trkpt lat="42.670875" lon="11.9395233"><ele>411.0</ele><time>2026-04-18T07:15:57.837Z</time></trkpt><trkpt lat="42.6709117" lon="11.9394067"><ele>410.0</ele><time>2026-04-18T07:15:58.837Z</time></trkpt><trkpt lat="42.670945" lon="11.9392783"><ele>409.0</ele><time>2026-04-18T07:15:59.837Z</time></trkpt><trkpt lat="42.6709767" lon="11.93914"><ele>410.00000000000006</ele><time>2026-04-18T07:16:00.837Z</time></trkpt><trkpt lat="42.671005" lon="11.93901"><ele>411.0</ele><time>2026-04-18T07:16:01.838Z</time></trkpt><trkpt lat="42.6710283" lon="11.9388933"><ele>412.0</ele><time>2026-04-18T07:16:02.837Z</time></trkpt><trkpt lat="42.6710567" lon="11.9387867"><ele>413.0</ele><time>2026-04-18T07:16:03.837Z</time></trkpt><trkpt lat="42.6710867" lon="11.9386833"><ele>414.00000000000006</ele><time>2026-04-18T07:16:04.837Z</time></trkpt><trkpt lat="42.6711133" lon="11.938585"><ele>415.0</ele><time>2026-04-18T07:16:05.837Z</time></trkpt><trkpt lat="42.6711417" lon="11.9384983"><ele>415.00000000000006</ele><time>2026-04-18T07:16:06.837Z</time></trkpt><trkpt lat="42.6711683" lon="11.9383983"><ele>415.0</ele><time>2026-04-18T07:16:07.838Z</time></trkpt><trkpt lat="42.6711933" lon="11.9383"><ele>415.0</ele><time>2026-04-18T07:16:08.838Z</time></trkpt><trkpt lat="42.6712167" lon="11.9382"><ele>415.0</ele><time>2026-04-18T07:16:09.838Z</time></trkpt><trkpt lat="42.6712333" lon="11.9381117"><ele>415.00000000000006</ele><time>2026-04-18T07:16:10.837Z</time></trkpt><trkpt lat="42.6712533" lon="11.93803"><ele>415.0</ele><time>2026-04-18T07:16:11.837Z</time></trkpt><trkpt lat="42.67132" lon="11.9379167"><ele>412.8</ele><time>2026-04-18T07:16:13.837Z</time></trkpt><trkpt lat="42.67141" lon="11.93784"><ele>410.6</ele><time>2026-04-18T07:16:15.837Z</time></trkpt><trkpt lat="42.6714733" lon="11.9377933"><ele>408.4</ele><time>2026-04-18T07:16:16.837Z</time></trkpt><trkpt lat="42.6715517" lon="11.9377433"><ele>406.2</ele><time>2026-04-18T07:16:17.837Z</time></trkpt><trkpt lat="42.6716583" lon="11.9376967"><ele>404.0</ele><time>2026-04-18T07:16:18.837Z</time></trkpt><trkpt lat="42.67176" lon="11.9376633"><ele>403.99999999999994</ele><time>2026-04-18T07:16:19.837Z</time></trkpt><trkpt lat="42.6718533" lon="11.937625"><ele>404.0</ele><time>2026-04-18T07:16:20.838Z</time></trkpt><trkpt lat="42.6719317" lon="11.9375967"><ele>404.0</ele><time>2026-04-18T07:16:21.837Z</time></trkpt><trkpt lat="42.6719967" lon="11.9375583"><ele>404.0</ele><time>2026-04-18T07:16:22.837Z</time></trkpt><trkpt lat="42.6720683" lon="11.93752"><ele>403.99999999999994</ele><time>2026-04-18T07:16:23.838Z</time></trkpt><trkpt lat="42.6721417" lon="11.9374917"><ele>404.0</ele><time>2026-04-18T07:16:24.837Z</time></trkpt><trkpt lat="42.672205" lon="11.93748"><ele>403.0</ele><time>2026-04-18T07:16:25.838Z</time></trkpt><trkpt lat="42.6722983" lon="11.937465"><ele>402.0</ele><time>2026-04-18T07:16:27.837Z</time></trkpt><trkpt lat="42.6724367" lon="11.9374183"><ele>401.0</ele><time>2026-04-18T07:16:29.837Z</time></trkpt><trkpt lat="42.67252" lon="11.9373917"><ele>400.0</ele><time>2026-04-18T07:16:30.837Z</time></trkpt><trkpt lat="42.672605" lon="11.9373567"><ele>399.0</ele><time>2026-04-18T07:16:31.838Z</time></trkpt><trkpt lat="42.6726817" lon="11.937325"><ele>399.0</ele><time>2026-04-18T07:16:32.838Z</time></trkpt><trkpt lat="42.6727533" lon="11.937295"><ele>399.0</ele><time>2026-04-18T07:16:33.837Z</time></trkpt><trkpt lat="42.6728217" lon="11.937265"><ele>399.0</ele><time>2026-04-18T07:16:34.837Z</time></trkpt><trkpt lat="42.67289" lon="11.9372333"><ele>399.0</ele><time>2026-04-18T07:16:35.838Z</time></trkpt><trkpt lat="42.6729517" lon="11.9372067"><ele>399.0</ele><time>2026-04-18T07:16:36.837Z</time></trkpt><trkpt lat="42.673015" lon="11.9371833"><ele>399.0</ele><time>2026-04-18T07:16:37.837Z</time></trkpt><trkpt lat="42.67312" lon="11.937155"><ele>401.4</ele><time>2026-04-18T07:16:39.838Z</time></trkpt><trkpt lat="42.6732017" lon="11.937145"><ele>403.79999999999995</ele><time>2026-04-18T07:16:41.837Z</time></trkpt><trkpt lat="42.673295" lon="11.937105"><ele>406.20000000000005</ele><time>2026-04-18T07:16:43.838Z</time></trkpt><trkpt lat="42.6733417" lon="11.93701"><ele>408.6</ele><time>2026-04-18T07:16:45.837Z</time></trkpt><trkpt lat="42.67335" lon="11.9368433"><ele>411.0</ele><time>2026-04-18T07:16:47.838Z</time></trkpt><trkpt lat="42.673345" lon="11.93674"><ele>410.20000000000005</ele><time>2026-04-18T07:16:48.837Z</time></trkpt><trkpt lat="42.67334" lon="11.9366183"><ele>409.40000000000003</ele><time>2026-04-18T07:16:49.838Z</time></trkpt><trkpt lat="42.6733367" lon="11.936485"><ele>408.6</ele><time>2026-04-18T07:16:50.837Z</time></trkpt><trkpt lat="42.673325" lon="11.93635"><ele>407.8</ele><time>2026-04-18T07:16:51.838Z</time></trkpt><trkpt lat="42.6732967" lon="11.9362233"><ele>407.0</ele><time>2026-04-18T07:16:52.837Z</time></trkpt><trkpt lat="42.6732667" lon="11.93611"><ele>407.0</ele><time>2026-04-18T07:16:53.837Z</time></trkpt><trkpt lat="42.6732433" lon="11.93599"><ele>407.0</ele><time>2026-04-18T07:16:54.837Z</time></trkpt><trkpt lat="42.6732283" lon="11.9358517"><ele>407.0</ele><time>2026-04-18T07:16:55.838Z</time></trkpt><trkpt lat="42.6732233" lon="11.9357083"><ele>407.0</ele><time>2026-04-18T07:16:56.837Z</time></trkpt><trkpt lat="42.67322" lon="11.935545"><ele>407.0</ele><time>2026-04-18T07:16:57.837Z</time></trkpt><trkpt lat="42.6732233" lon="11.9353767"><ele>405.25</ele><time>2026-04-18T07:16:58.837Z</time></trkpt><trkpt lat="42.673225" lon="11.9352117"><ele>403.5</ele><time>2026-04-18T07:16:59.838Z</time></trkpt><trkpt lat="42.6732233" lon="11.9350633"><ele>401.75</ele><time>2026-04-18T07:17:00.837Z</time></trkpt><trkpt lat="42.67321" lon="11.93492"><ele>400.0</ele><time>2026-04-18T07:17:01.838Z</time></trkpt><trkpt lat="42.6731983" lon="11.934755"><ele>400.0</ele><time>2026-04-18T07:17:02.837Z</time></trkpt><trkpt lat="42.67319" lon="11.93458"><ele>400.0</ele><time>2026-04-18T07:17:03.837Z</time></trkpt><trkpt lat="42.6731783" lon="11.9343917"><ele>400.0</ele><time>2026-04-18T07:17:04.837Z</time></trkpt><trkpt lat="42.673175" lon="11.9342083"><ele>400.0</ele><time>2026-04-18T07:17:05.837Z</time></trkpt><trkpt lat="42.6731733" lon="11.9340233"><ele>400.75</ele><time>2026-04-18T07:17:06.837Z</time></trkpt><trkpt lat="42.6731717" lon="11.9338483"><ele>401.5</ele><time>2026-04-18T07:17:07.837Z</time></trkpt><trkpt lat="42.6731717" lon="11.933675"><ele>402.25</ele><time>2026-04-18T07:17:08.837Z</time></trkpt><trkpt lat="42.6731683" lon="11.9335033"><ele>403.0</ele><time>2026-04-18T07:17:09.837Z</time></trkpt><trkpt lat="42.6731683" lon="11.9333233"><ele>403.5</ele><time>2026-04-18T07:17:10.837Z</time></trkpt><trkpt lat="42.6731633" lon="11.9331383"><ele>404.0</ele><time>2026-04-18T07:17:11.838Z</time></trkpt><trkpt lat="42.6731667" lon="11.9329467"><ele>404.5</ele><time>2026-04-18T07:17:12.837Z</time></trkpt><trkpt lat="42.673165" lon="11.93278"><ele>405.0</ele><time>2026-04-18T07:17:13.837Z</time></trkpt><trkpt lat="42.6731583" lon="11.932625"><ele>407.0</ele><time>2026-04-18T07:17:14.838Z</time></trkpt><trkpt lat="42.6731483" lon="11.932465"><ele>409.0</ele><time>2026-04-18T07:17:15.838Z</time></trkpt><trkpt lat="42.6731367" lon="11.9322883"><ele>411.0</ele><time>2026-04-18T07:17:16.838Z</time></trkpt><trkpt lat="42.6731283" lon="11.9320883"><ele>413.0</ele><time>2026-04-18T07:17:17.837Z</time></trkpt><trkpt lat="42.67311" lon="11.931875"><ele>415.3333333333333</ele><time>2026-04-18T07:17:18.837Z</time></trkpt><trkpt lat="42.6731017" lon="11.931675"><ele>417.66666666666663</ele><time>2026-04-18T07:17:19.837Z</time></trkpt><trkpt lat="42.673095" lon="11.93146"><ele>420.0</ele><time>2026-04-18T07:17:20.837Z</time></trkpt><trkpt lat="42.6730883" lon="11.9312433"><ele>420.0</ele><time>2026-04-18T07:17:21.837Z</time></trkpt><trkpt lat="42.67309" lon="11.93104"><ele>420.0</ele><time>2026-04-18T07:17:22.837Z</time></trkpt><trkpt lat="42.673085" lon="11.9308467"><ele>420.0</ele><time>2026-04-18T07:17:23.837Z</time></trkpt><trkpt lat="42.6730867" lon="11.9306817"><ele>420.0</ele><time>2026-04-18T07:17:24.837Z</time></trkpt><trkpt lat="42.6731167" lon="11.930545"><ele>421.0</ele><time>2026-04-18T07:17:25.838Z</time></trkpt><trkpt lat="42.6731683" lon="11.9304483"><ele>422.0</ele><time>2026-04-18T07:17:26.837Z</time></trkpt><trkpt lat="42.67323" lon="11.9303583"><ele>423.0</ele><time>2026-04-18T07:17:27.838Z</time></trkpt><trkpt lat="42.6732817" lon="11.9302667"><ele>424.0</ele><time>2026-04-18T07:17:28.837Z</time></trkpt><trkpt lat="42.6733233" lon="11.9301667"><ele>425.0</ele><time>2026-04-18T07:17:29.837Z</time></trkpt><trkpt lat="42.673355" lon="11.9300383"><ele>426.0</ele><time>2026-04-18T07:17:30.837Z</time></trkpt><trkpt lat="42.67336" lon="11.9298783"><ele>428.33333333333337</ele><time>2026-04-18T07:17:31.838Z</time></trkpt><trkpt lat="42.6733567" lon="11.9296783"><ele>430.6666666666667</ele><time>2026-04-18T07:17:32.837Z</time></trkpt><trkpt lat="42.673355" lon="11.9294433"><ele>433.0</ele><time>2026-04-18T07:17:33.837Z</time></trkpt><trkpt lat="42.6733517" lon="11.9291617"><ele>434.6666666666667</ele><time>2026-04-18T07:17:34.837Z</time></trkpt><trkpt lat="42.67336" lon="11.928895"><ele>436.33333333333337</ele><time>2026-04-18T07:17:35.837Z</time></trkpt><trkpt lat="42.6733667" lon="11.92864"><ele>438.0</ele><time>2026-04-18T07:17:36.837Z</time></trkpt><trkpt lat="42.6733767" lon="11.9284333"><ele>438.0</ele><time>2026-04-18T07:17:37.838Z</time></trkpt><trkpt lat="42.6734" lon="11.9282583"><ele>438.0</ele><time>2026-04-18T07:17:38.837Z</time></trkpt><trkpt lat="42.673445" lon="11.928085"><ele>438.0</ele><time>2026-04-18T07:17:39.837Z</time></trkpt><trkpt lat="42.6735017" lon="11.9279667"><ele>438.0</ele><time>2026-04-18T07:17:40.838Z</time></trkpt><trkpt lat="42.6735483" lon="11.9278783"><ele>441.79999999999995</ele><time>2026-04-18T07:17:41.838Z</time></trkpt><trkpt lat="42.6736117" lon="11.9278067"><ele>445.59999999999997</ele><time>2026-04-18T07:17:42.837Z</time></trkpt><trkpt lat="42.6736767" lon="11.9277433"><ele>449.40000000000003</ele><time>2026-04-18T07:17:43.837Z</time></trkpt><trkpt lat="42.6737517" lon="11.9276917"><ele>453.20000000000005</ele><time>2026-04-18T07:17:44.837Z</time></trkpt><trkpt lat="42.6738417" lon="11.92765"><ele>457.0</ele><time>2026-04-18T07:17:45.837Z</time></trkpt><trkpt lat="42.6739483" lon="11.927625"><ele>457.0</ele><time>2026-04-18T07:17:46.837Z</time></trkpt><trkpt lat="42.6740583" lon="11.9276"><ele>457.0</ele><time>2026-04-18T07:17:47.838Z</time></trkpt><trkpt lat="42.6741617" lon="11.9275983"><ele>457.0</ele><time>2026-04-18T07:17:48.837Z</time></trkpt><trkpt lat="42.6742917" lon="11.9276017"><ele>457.0</ele><time>2026-04-18T07:17:49.837Z</time></trkpt><trkpt lat="42.6744233" lon="11.927605"><ele>458.25</ele><time>2026-04-18T07:17:50.838Z</time></trkpt><trkpt lat="42.6745533" lon="11.9276117"><ele>459.5</ele><time>2026-04-18T07:17:51.838Z</time></trkpt><trkpt lat="42.6746817" lon="11.927615"><ele>460.75</ele><time>2026-04-18T07:17:52.837Z</time></trkpt><trkpt lat="42.6748017" lon="11.9276267"><ele>462.0</ele><time>2026-04-18T07:17:53.838Z</time></trkpt><trkpt lat="42.6749217" lon="11.9276533"><ele>462.0</ele><time>2026-04-18T07:17:54.837Z</time></trkpt><trkpt lat="42.6750317" lon="11.92767"><ele>462.00000000000006</ele><time>2026-04-18T07:17:55.837Z</time></trkpt><trkpt lat="42.6751317" lon="11.92769"><ele>462.00000000000006</ele><time>2026-04-18T07:17:56.838Z</time></trkpt><trkpt lat="42.6752283" lon="11.9277067"><ele>462.0</ele><time>2026-04-18T07:17:57.837Z</time></trkpt><trkpt lat="42.67533" lon="11.927755"><ele>462.0</ele><time>2026-04-18T07:17:58.837Z</time></trkpt><trkpt lat="42.675425" lon="11.927805"><ele>459.20000000000005</ele><time>2026-04-18T07:17:59.837Z</time></trkpt><trkpt lat="42.6755183" lon="11.927865"><ele>456.40000000000003</ele><time>2026-04-18T07:18:00.837Z</time></trkpt><trkpt lat="42.675605" lon="11.9279417"><ele>453.59999999999997</ele><time>2026-04-18T07:18:01.838Z</time></trkpt><trkpt lat="42.6756883" lon="11.9280283"><ele>450.79999999999995</ele><time>2026-04-18T07:18:02.837Z</time></trkpt><trkpt lat="42.675765" lon="11.92811"><ele>448.0</ele><time>2026-04-18T07:18:03.837Z</time></trkpt><trkpt lat="42.675835" lon="11.9281833"><ele>448.00000000000006</ele><time>2026-04-18T07:18:04.837Z</time></trkpt><trkpt lat="42.6759017" lon="11.9282467"><ele>448.0</ele><time>2026-04-18T07:18:05.838Z</time></trkpt><trkpt lat="42.6759717" lon="11.9283117"><ele>448.0</ele><time>2026-04-18T07:18:06.837Z</time></trkpt><trkpt lat="42.6760417" lon="11.9283733"><ele>448.0</ele><time>2026-04-18T07:18:07.837Z</time></trkpt><trkpt lat="42.6761267" lon="11.9284383"><ele>448.00000000000006</ele><time>2026-04-18T07:18:08.837Z</time></trkpt><trkpt lat="42.67621" lon="11.9285"><ele>448.0</ele><time>2026-04-18T07:18:09.837Z</time></trkpt><trkpt lat="42.6762883" lon="11.9285533"><ele>448.1666666666667</ele><time>2026-04-18T07:18:10.838Z</time></trkpt><trkpt lat="42.676355" lon="11.9286033"><ele>448.33333333333337</ele><time>2026-04-18T07:18:11.837Z</time></trkpt><trkpt lat="42.6764167" lon="11.9286383"><ele>448.5</ele><time>2026-04-18T07:18:12.838Z</time></trkpt><trkpt lat="42.6765183" lon="11.9286667"><ele>448.66666666666663</ele><time>2026-04-18T07:18:14.838Z</time></trkpt><trkpt lat="42.67662" lon="11.9286283"><ele>448.8333333333333</ele><time>2026-04-18T07:18:16.838Z</time></trkpt><trkpt lat="42.6766717" lon="11.9285717"><ele>449.0</ele><time>2026-04-18T07:18:17.837Z</time></trkpt><trkpt lat="42.6767133" lon="11.928495"><ele>446.0</ele><time>2026-04-18T07:18:18.838Z</time></trkpt><trkpt lat="42.6767517" lon="11.92839"><ele>443.0</ele><time>2026-04-18T07:18:19.838Z</time></trkpt><trkpt lat="42.67678" lon="11.92825"><ele>440.0</ele><time>2026-04-18T07:18:20.837Z</time></trkpt><trkpt lat="42.676815" lon="11.9280567"><ele>437.0</ele><time>2026-04-18T07:18:21.837Z</time></trkpt><trkpt lat="42.6768533" lon="11.927855"><ele>437.0</ele><time>2026-04-18T07:18:22.837Z</time></trkpt><trkpt lat="42.6769067" lon="11.9276567"><ele>437.0</ele><time>2026-04-18T07:18:23.837Z</time></trkpt><trkpt lat="42.67696" lon="11.9274717"><ele>437.0</ele><time>2026-04-18T07:18:24.837Z</time></trkpt><trkpt lat="42.6770767" lon="11.9270917"><ele>436.75</ele><time>2026-04-18T07:18:26.837Z</time></trkpt><trkpt lat="42.67714" lon="11.9269183"><ele>436.5</ele><time>2026-04-18T07:18:27.837Z</time></trkpt><trkpt lat="42.6772" lon="11.92676"><ele>436.25</ele><time>2026-04-18T07:18:28.837Z</time></trkpt><trkpt lat="42.6772733" lon="11.92661"><ele>436.0</ele><time>2026-04-18T07:18:29.838Z</time></trkpt><trkpt lat="42.6773617" lon="11.926465"><ele>436.0</ele><time>2026-04-18T07:18:30.838Z</time></trkpt><trkpt lat="42.6774583" lon="11.92632"><ele>436.0</ele><time>2026-04-18T07:18:31.838Z</time></trkpt><trkpt lat="42.6775483" lon="11.92619"><ele>436.0</ele><time>2026-04-18T07:18:32.838Z</time></trkpt><trkpt lat="42.67763" lon="11.9260783"><ele>436.0</ele><time>2026-04-18T07:18:33.837Z</time></trkpt><trkpt lat="42.6777083" lon="11.925975"><ele>437.0</ele><time>2026-04-18T07:18:34.837Z</time></trkpt><trkpt lat="42.6777883" lon="11.9258833"><ele>438.0</ele><time>2026-04-18T07:18:35.837Z</time></trkpt><trkpt lat="42.6778733" lon="11.9258117"><ele>439.0</ele><time>2026-04-18T07:18:36.837Z</time></trkpt><trkpt lat="42.677965" lon="11.9257783"><ele>440.0</ele><time>2026-04-18T07:18:37.838Z</time></trkpt><trkpt lat="42.6780617" lon="11.9257633"><ele>441.0</ele><time>2026-04-18T07:18:38.838Z</time></trkpt><trkpt lat="42.678175" lon="11.92575"><ele>441.0</ele><time>2026-04-18T07:18:39.838Z</time></trkpt><trkpt lat="42.678295" lon="11.9257417"><ele>441.0</ele><time>2026-04-18T07:18:40.837Z</time></trkpt><trkpt lat="42.6784267" lon="11.9257383"><ele>441.0</ele><time>2026-04-18T07:18:41.838Z</time></trkpt><trkpt lat="42.67854" lon="11.9257267"><ele>441.0</ele><time>2026-04-18T07:18:42.838Z</time></trkpt><trkpt lat="42.67863" lon="11.9256817"><ele>445.4</ele><time>2026-04-18T07:18:43.837Z</time></trkpt><trkpt lat="42.678705" lon="11.9256183"><ele>449.8</ele><time>2026-04-18T07:18:44.838Z</time></trkpt><trkpt lat="42.678785" lon="11.9255317"><ele>454.19999999999993</ele><time>2026-04-18T07:18:45.837Z</time></trkpt><trkpt lat="42.6788433" lon="11.9254267"><ele>458.59999999999997</ele><time>2026-04-18T07:18:46.838Z</time></trkpt><trkpt lat="42.67888" lon="11.925315"><ele>463.0</ele><time>2026-04-18T07:18:47.838Z</time></trkpt><trkpt lat="42.67891" lon="11.925185"><ele>460.75</ele><time>2026-04-18T07:18:48.838Z</time></trkpt><trkpt lat="42.678925" lon="11.925035"><ele>458.5</ele><time>2026-04-18T07:18:49.837Z</time></trkpt><trkpt lat="42.678925" lon="11.9248783"><ele>456.25</ele><time>2026-04-18T07:18:50.838Z</time></trkpt><trkpt lat="42.6789" lon="11.92469"><ele>454.0</ele><time>2026-04-18T07:18:51.838Z</time></trkpt><trkpt lat="42.67887" lon="11.9244983"><ele>454.0</ele><time>2026-04-18T07:18:52.837Z</time></trkpt><trkpt lat="42.67884" lon="11.924325"><ele>454.0</ele><time>2026-04-18T07:18:53.837Z</time></trkpt><trkpt lat="42.678815" lon="11.9241683"><ele>454.0</ele><time>2026-04-18T07:18:54.837Z</time></trkpt><trkpt lat="42.6787967" lon="11.9240167"><ele>454.0</ele><time>2026-04-18T07:18:55.837Z</time></trkpt><trkpt lat="42.6787933" lon="11.9238717"><ele>452.5</ele><time>2026-04-18T07:18:56.838Z</time></trkpt><trkpt lat="42.678815" lon="11.9237283"><ele>451.0</ele><time>2026-04-18T07:18:57.837Z</time></trkpt><trkpt lat="42.6788533" lon="11.923575"><ele>449.5</ele><time>2026-04-18T07:18:58.838Z</time></trkpt><trkpt lat="42.6789217" lon="11.9234283"><ele>448.0</ele><time>2026-04-18T07:18:59.837Z</time></trkpt><trkpt lat="42.6790033" lon="11.9232867"><ele>445.0</ele><time>2026-04-18T07:19:00.838Z</time></trkpt><trkpt lat="42.6790817" lon="11.923145"><ele>442.0</ele><time>2026-04-18T07:19:01.837Z</time></trkpt><trkpt lat="42.6791583" lon="11.9230283"><ele>439.0</ele><time>2026-04-18T07:19:02.838Z</time></trkpt><trkpt lat="42.6792367" lon="11.922925"><ele>436.0</ele><time>2026-04-18T07:19:03.838Z</time></trkpt><trkpt lat="42.6793083" lon="11.9227967"><ele>436.0</ele><time>2026-04-18T07:19:04.838Z</time></trkpt><trkpt lat="42.6793767" lon="11.9226667"><ele>436.0</ele><time>2026-04-18T07:19:05.837Z</time></trkpt><trkpt lat="42.6794367" lon="11.9225383"><ele>436.0</ele><time>2026-04-18T07:19:06.838Z</time></trkpt><trkpt lat="42.679495" lon="11.9224167"><ele>436.0</ele><time>2026-04-18T07:19:07.838Z</time></trkpt><trkpt lat="42.6795467" lon="11.9222967"><ele>436.0</ele><time>2026-04-18T07:19:08.837Z</time></trkpt><trkpt lat="42.679585" lon="11.9221667"><ele>434.8</ele><time>2026-04-18T07:19:09.837Z</time></trkpt><trkpt lat="42.6796117" lon="11.9220433"><ele>433.6</ele><time>2026-04-18T07:19:10.837Z</time></trkpt><trkpt lat="42.67963" lon="11.9219183"><ele>432.4</ele><time>2026-04-18T07:19:11.837Z</time></trkpt><trkpt lat="42.67963" lon="11.9217817"><ele>431.2</ele><time>2026-04-18T07:19:12.837Z</time></trkpt><trkpt lat="42.6796033" lon="11.921655"><ele>430.0</ele><time>2026-04-18T07:19:13.838Z</time></trkpt><trkpt lat="42.679555" lon="11.9215067"><ele>428.75</ele><time>2026-04-18T07:19:14.837Z</time></trkpt><trkpt lat="42.6794917" lon="11.9213517"><ele>427.5</ele><time>2026-04-18T07:19:15.837Z</time></trkpt><trkpt lat="42.6794117" lon="11.9212067"><ele>426.25</ele><time>2026-04-18T07:19:16.837Z</time></trkpt><trkpt lat="42.6793217" lon="11.9210717"><ele>425.0</ele><time>2026-04-18T07:19:17.837Z</time></trkpt><trkpt lat="42.6792333" lon="11.9209467"><ele>422.8</ele><time>2026-04-18T07:19:18.837Z</time></trkpt><trkpt lat="42.679145" lon="11.920825"><ele>420.6</ele><time>2026-04-18T07:19:19.837Z</time></trkpt><trkpt lat="42.6790867" lon="11.9207267"><ele>418.4</ele><time>2026-04-18T07:19:20.837Z</time></trkpt><trkpt lat="42.6790383" lon="11.920625"><ele>416.2</ele><time>2026-04-18T07:19:21.838Z</time></trkpt><trkpt lat="42.6790067" lon="11.9205067"><ele>414.0</ele><time>2026-04-18T07:19:22.837Z</time></trkpt><trkpt lat="42.6789867" lon="11.9203733"><ele>414.0</ele><time>2026-04-18T07:19:23.837Z</time></trkpt><trkpt lat="42.6789917" lon="11.9202317"><ele>414.0</ele><time>2026-04-18T07:19:24.837Z</time></trkpt><trkpt lat="42.6790233" lon="11.9200667"><ele>414.0</ele><time>2026-04-18T07:19:25.837Z</time></trkpt><trkpt lat="42.679075" lon="11.9199"><ele>414.0</ele><time>2026-04-18T07:19:26.838Z</time></trkpt><trkpt lat="42.679155" lon="11.9197283"><ele>415.0</ele><time>2026-04-18T07:19:27.838Z</time></trkpt><trkpt lat="42.6792533" lon="11.9195533"><ele>416.0</ele><time>2026-04-18T07:19:28.838Z</time></trkpt><trkpt lat="42.6793617" lon="11.9193967"><ele>417.0</ele><time>2026-04-18T07:19:29.837Z</time></trkpt><trkpt lat="42.6794733" lon="11.9192533"><ele>419.5</ele><time>2026-04-18T07:19:30.837Z</time></trkpt><trkpt lat="42.67957" lon="11.9191167"><ele>422.0</ele><time>2026-04-18T07:19:31.837Z</time></trkpt><trkpt lat="42.67965" lon="11.91898"><ele>424.5</ele><time>2026-04-18T07:19:32.837Z</time></trkpt><trkpt lat="42.6797033" lon="11.91883"><ele>427.0</ele><time>2026-04-18T07:19:33.837Z</time></trkpt><trkpt lat="42.6797317" lon="11.9186667"><ele>427.0</ele><time>2026-04-18T07:19:34.838Z</time></trkpt><trkpt lat="42.679735" lon="11.9184983"><ele>427.00000000000006</ele><time>2026-04-18T07:19:35.838Z</time></trkpt><trkpt lat="42.6797367" lon="11.9183283"><ele>427.00000000000006</ele><time>2026-04-18T07:19:36.837Z</time></trkpt><trkpt lat="42.6797433" lon="11.9181967"><ele>427.0</ele><time>2026-04-18T07:19:37.838Z</time></trkpt><trkpt lat="42.6797467" lon="11.9180917"><ele>427.0</ele><time>2026-04-18T07:19:38.837Z</time></trkpt><trkpt lat="42.6797683" lon="11.9179333"><ele>426.75</ele><time>2026-04-18T07:19:40.838Z</time></trkpt><trkpt lat="42.6798067" lon="11.9178483"><ele>426.5</ele><time>2026-04-18T07:19:41.838Z</time></trkpt><trkpt lat="42.679875" lon="11.91774"><ele>426.25</ele><time>2026-04-18T07:19:42.838Z</time></trkpt><trkpt lat="42.6799917" lon="11.9176117"><ele>426.0</ele><time>2026-04-18T07:19:43.837Z</time></trkpt><trkpt lat="42.6801133" lon="11.917455"><ele>425.0</ele><time>2026-04-18T07:19:44.838Z</time></trkpt><trkpt lat="42.6802417" lon="11.9172467"><ele>424.0</ele><time>2026-04-18T07:19:45.838Z</time></trkpt><trkpt lat="42.6803533" lon="11.91703"><ele>423.0</ele><time>2026-04-18T07:19:46.838Z</time></trkpt><trkpt lat="42.6804567" lon="11.9168383"><ele>426.0</ele><time>2026-04-18T07:19:47.837Z</time></trkpt><trkpt lat="42.6805567" lon="11.9166783"><ele>429.0</ele><time>2026-04-18T07:19:48.838Z</time></trkpt><trkpt lat="42.6806683" lon="11.916545"><ele>432.0</ele><time>2026-04-18T07:19:49.838Z</time></trkpt><trkpt lat="42.6807833" lon="11.9164217"><ele>435.0</ele><time>2026-04-18T07:19:50.837Z</time></trkpt><trkpt lat="42.6809017" lon="11.916325"><ele>435.0</ele><time>2026-04-18T07:19:51.837Z</time></trkpt><trkpt lat="42.6810317" lon="11.9162567"><ele>435.0</ele><time>2026-04-18T07:19:52.838Z</time></trkpt><trkpt lat="42.6811667" lon="11.9162083"><ele>435.0</ele><time>2026-04-18T07:19:53.837Z</time></trkpt><trkpt lat="42.6813017" lon="11.9161733"><ele>435.0</ele><time>2026-04-18T07:19:54.837Z</time></trkpt><trkpt lat="42.68144" lon="11.9161683"><ele>437.66666666666663</ele><time>2026-04-18T07:19:55.838Z</time></trkpt><trkpt lat="42.6815967" lon="11.9161767"><ele>440.3333333333333</ele><time>2026-04-18T07:19:56.838Z</time></trkpt><trkpt lat="42.68175" lon="11.9162217"><ele>443.0</ele><time>2026-04-18T07:19:57.838Z</time></trkpt><trkpt lat="42.6818867" lon="11.9162917"><ele>443.0</ele><time>2026-04-18T07:19:58.838Z</time></trkpt><trkpt lat="42.68204" lon="11.9163817"><ele>443.0</ele><time>2026-04-18T07:19:59.838Z</time></trkpt><trkpt lat="42.6821767" lon="11.9164717"><ele>443.0</ele><time>2026-04-18T07:20:00.838Z</time></trkpt><trkpt lat="42.6823033" lon="11.91656"><ele>443.0</ele><time>2026-04-18T07:20:01.838Z</time></trkpt><trkpt lat="42.6824367" lon="11.916645"><ele>443.0</ele><time>2026-04-18T07:20:02.837Z</time></trkpt><trkpt lat="42.6825683" lon="11.9167183"><ele>443.0</ele><time>2026-04-18T07:20:03.837Z</time></trkpt><trkpt lat="42.6826983" lon="11.9167883"><ele>443.0</ele><time>2026-04-18T07:20:04.838Z</time></trkpt><trkpt lat="42.6828367" lon="11.916855"><ele>443.5</ele><time>2026-04-18T07:20:05.838Z</time></trkpt><trkpt lat="42.6829767" lon="11.916905"><ele>444.0</ele><time>2026-04-18T07:20:06.838Z</time></trkpt><trkpt lat="42.6831217" lon="11.9169233"><ele>444.5</ele><time>2026-04-18T07:20:07.837Z</time></trkpt><trkpt lat="42.6832717" lon="11.9169367"><ele>445.0</ele><time>2026-04-18T07:20:08.837Z</time></trkpt><trkpt lat="42.683405" lon="11.916905"><ele>445.0</ele><time>2026-04-18T07:20:09.838Z</time></trkpt><trkpt lat="42.6835367" lon="11.91681"><ele>445.0</ele><time>2026-04-18T07:20:10.837Z</time></trkpt><trkpt lat="42.6836533" lon="11.9167"><ele>445.0</ele><time>2026-04-18T07:20:11.838Z</time></trkpt><trkpt lat="42.68377" lon="11.9165483"><ele>446.33333333333337</ele><time>2026-04-18T07:20:12.838Z</time></trkpt><trkpt lat="42.6838917" lon="11.91637"><ele>447.66666666666663</ele><time>2026-04-18T07:20:13.837Z</time></trkpt><trkpt lat="42.6840167" lon="11.91618"><ele>449.0</ele><time>2026-04-18T07:20:14.837Z</time></trkpt><trkpt lat="42.6841383" lon="11.91601"><ele>449.0</ele><time>2026-04-18T07:20:15.838Z</time></trkpt><trkpt lat="42.684255" lon="11.9158217"><ele>449.0</ele><time>2026-04-18T07:20:16.838Z</time></trkpt><trkpt lat="42.68437" lon="11.9156467"><ele>449.0</ele><time>2026-04-18T07:20:17.837Z</time></trkpt><trkpt lat="42.6844733" lon="11.9154733"><ele>454.0</ele><time>2026-04-18T07:20:18.838Z</time></trkpt><trkpt lat="42.6845767" lon="11.915315"><ele>459.0</ele><time>2026-04-18T07:20:19.837Z</time></trkpt><trkpt lat="42.6846683" lon="11.9151383"><ele>464.0</ele><time>2026-04-18T07:20:20.837Z</time></trkpt><trkpt lat="42.684775" lon="11.914965"><ele>464.0</ele><time>2026-04-18T07:20:21.837Z</time></trkpt><trkpt lat="42.684865" lon="11.91477"><ele>464.0</ele><time>2026-04-18T07:20:22.838Z</time></trkpt><trkpt lat="42.6849183" lon="11.9145783"><ele>464.0</ele><time>2026-04-18T07:20:23.837Z</time></trkpt><trkpt lat="42.684955" lon="11.9143667"><ele>466.3333333333333</ele><time>2026-04-18T07:20:24.838Z</time></trkpt><trkpt lat="42.6849617" lon="11.9141417"><ele>468.66666666666663</ele><time>2026-04-18T07:20:25.837Z</time></trkpt><trkpt lat="42.6849517" lon="11.9138983"><ele>471.0</ele><time>2026-04-18T07:20:26.837Z</time></trkpt><trkpt lat="42.6849267" lon="11.91364"><ele>473.33333333333337</ele><time>2026-04-18T07:20:27.838Z</time></trkpt><trkpt lat="42.6848917" lon="11.9133833"><ele>475.6666666666667</ele><time>2026-04-18T07:20:28.838Z</time></trkpt><trkpt lat="42.6848617" lon="11.9131533"><ele>478.0</ele><time>2026-04-18T07:20:29.837Z</time></trkpt><trkpt lat="42.6848167" lon="11.912935"><ele>478.0</ele><time>2026-04-18T07:20:30.837Z</time></trkpt><trkpt lat="42.68477" lon="11.9127167"><ele>478.0</ele><time>2026-04-18T07:20:31.837Z</time></trkpt><trkpt lat="42.6847317" lon="11.9124967"><ele>478.0</ele><time>2026-04-18T07:20:32.837Z</time></trkpt><trkpt lat="42.6847" lon="11.9122517"><ele>479.6666666666667</ele><time>2026-04-18T07:20:33.837Z</time></trkpt><trkpt lat="42.6846633" lon="11.912015"><ele>481.33333333333337</ele><time>2026-04-18T07:20:34.837Z</time></trkpt><trkpt lat="42.6846367" lon="11.9117667"><ele>483.0</ele><time>2026-04-18T07:20:35.837Z</time></trkpt><trkpt lat="42.68461" lon="11.9115167"><ele>484.0</ele><time>2026-04-18T07:20:36.838Z</time></trkpt><trkpt lat="42.684595" lon="11.9112883"><ele>485.0</ele><time>2026-04-18T07:20:37.837Z</time></trkpt><trkpt lat="42.6845967" lon="11.9110317"><ele>486.0</ele><time>2026-04-18T07:20:38.837Z</time></trkpt><trkpt lat="42.684595" lon="11.9107917"><ele>486.33333333333337</ele><time>2026-04-18T07:20:39.837Z</time></trkpt><trkpt lat="42.684585" lon="11.9105533"><ele>486.6666666666667</ele><time>2026-04-18T07:20:40.837Z</time></trkpt><trkpt lat="42.684565" lon="11.9103317"><ele>487.0</ele><time>2026-04-18T07:20:41.838Z</time></trkpt><trkpt lat="42.684535" lon="11.91012"><ele>485.6666666666667</ele><time>2026-04-18T07:20:42.837Z</time></trkpt><trkpt lat="42.6844983" lon="11.9099133"><ele>484.33333333333337</ele><time>2026-04-18T07:20:43.837Z</time></trkpt><trkpt lat="42.68444" lon="11.9096917"><ele>483.0</ele><time>2026-04-18T07:20:44.837Z</time></trkpt><trkpt lat="42.6843783" lon="11.9095"><ele>481.0</ele><time>2026-04-18T07:20:45.838Z</time></trkpt><trkpt lat="42.684325" lon="11.9093133"><ele>479.0</ele><time>2026-04-18T07:20:46.837Z</time></trkpt><trkpt lat="42.6842767" lon="11.90913"><ele>477.0</ele><time>2026-04-18T07:20:47.837Z</time></trkpt><trkpt lat="42.6842083" lon="11.9089567"><ele>475.0</ele><time>2026-04-18T07:20:48.837Z</time></trkpt><trkpt lat="42.6841433" lon="11.9087733"><ele>475.0</ele><time>2026-04-18T07:20:49.837Z</time></trkpt><trkpt lat="42.6841033" lon="11.9085883"><ele>475.0</ele><time>2026-04-18T07:20:50.837Z</time></trkpt><trkpt lat="42.6840717" lon="11.908405"><ele>475.0</ele><time>2026-04-18T07:20:51.837Z</time></trkpt><trkpt lat="42.6840617" lon="11.908215"><ele>475.0</ele><time>2026-04-18T07:20:52.837Z</time></trkpt><trkpt lat="42.6840683" lon="11.9080217"><ele>477.0</ele><time>2026-04-18T07:20:53.837Z</time></trkpt><trkpt lat="42.684105" lon="11.9078333"><ele>479.0</ele><time>2026-04-18T07:20:54.837Z</time></trkpt><trkpt lat="42.6841733" lon="11.9076733"><ele>481.0</ele><time>2026-04-18T07:20:55.837Z</time></trkpt><trkpt lat="42.6842683" lon="11.9075183"><ele>483.0</ele><time>2026-04-18T07:20:56.838Z</time></trkpt><trkpt lat="42.6843583" lon="11.9073867"><ele>485.75</ele><time>2026-04-18T07:20:57.837Z</time></trkpt><trkpt lat="42.6844583" lon="11.90728"><ele>488.5</ele><time>2026-04-18T07:20:58.837Z</time></trkpt><trkpt lat="42.6845583" lon="11.907185"><ele>491.25</ele><time>2026-04-18T07:20:59.838Z</time></trkpt><trkpt lat="42.68467" lon="11.907095"><ele>494.0</ele><time>2026-04-18T07:21:00.837Z</time></trkpt><trkpt lat="42.6848017" lon="11.9070167"><ele>494.0</ele><time>2026-04-18T07:21:01.838Z</time></trkpt><trkpt lat="42.6849283" lon="11.9069317"><ele>494.0</ele><time>2026-04-18T07:21:02.838Z</time></trkpt><trkpt lat="42.685035" lon="11.906855"><ele>494.0</ele><time>2026-04-18T07:21:03.838Z</time></trkpt><trkpt lat="42.6851317" lon="11.906785"><ele>494.0</ele><time>2026-04-18T07:21:04.838Z</time></trkpt><trkpt lat="42.68522" lon="11.90673"><ele>494.2</ele><time>2026-04-18T07:21:05.837Z</time></trkpt><trkpt lat="42.685305" lon="11.90667"><ele>494.4</ele><time>2026-04-18T07:21:06.837Z</time></trkpt><trkpt lat="42.6853817" lon="11.9066283"><ele>494.6</ele><time>2026-04-18T07:21:07.837Z</time></trkpt><trkpt lat="42.6854533" lon="11.906575"><ele>494.8</ele><time>2026-04-18T07:21:08.838Z</time></trkpt><trkpt lat="42.685515" lon="11.9065133"><ele>495.0</ele><time>2026-04-18T07:21:09.837Z</time></trkpt><trkpt lat="42.6856267" lon="11.906445"><ele>495.0</ele><time>2026-04-18T07:21:11.837Z</time></trkpt><trkpt lat="42.6857317" lon="11.9063617"><ele>495.0</ele><time>2026-04-18T07:21:13.837Z</time></trkpt><trkpt lat="42.6857967" lon="11.9063333"><ele>495.0</ele><time>2026-04-18T07:21:17.838Z</time></trkpt><trkpt lat="42.685865" lon="11.9062617"><ele>495.0</ele><time>2026-04-18T07:21:32.838Z</time></trkpt><trkpt lat="42.685975" lon="11.9061883"><ele>495.0</ele><time>2026-04-18T07:21:34.838Z</time></trkpt><trkpt lat="42.6860867" lon="11.90612"><ele>495.2</ele><time>2026-04-18T07:21:36.838Z</time></trkpt><trkpt lat="42.6861717" lon="11.9060683"><ele>495.4</ele><time>2026-04-18T07:21:38.838Z</time></trkpt><trkpt lat="42.6862383" lon="11.9060117"><ele>495.6</ele><time>2026-04-18T07:21:40.837Z</time></trkpt><trkpt lat="42.6862367" lon="11.905885"><ele>495.8</ele><time>2026-04-18T07:21:43.838Z</time></trkpt><trkpt lat="42.6861833" lon="11.9057533"><ele>496.0</ele><time>2026-04-18T07:21:45.837Z</time></trkpt><trkpt lat="42.6861283" lon="11.9056667"><ele>496.0</ele><time>2026-04-18T07:21:46.838Z</time></trkpt><trkpt lat="42.6860833" lon="11.90556"><ele>496.0</ele><time>2026-04-18T07:21:47.838Z</time></trkpt><trkpt lat="42.6860333" lon="11.9054633"><ele>496.0</ele><time>2026-04-18T07:21:48.838Z</time></trkpt><trkpt lat="42.6859867" lon="11.9053533"><ele>496.0</ele><time>2026-04-18T07:21:49.837Z</time></trkpt><trkpt lat="42.685935" lon="11.9052183"><ele>496.0</ele><time>2026-04-18T07:21:50.837Z</time></trkpt><trkpt lat="42.68588" lon="11.9050733"><ele>496.0</ele><time>2026-04-18T07:21:51.837Z</time></trkpt><trkpt lat="42.6858183" lon="11.9049233"><ele>496.0</ele><time>2026-04-18T07:21:52.837Z</time></trkpt><trkpt lat="42.6857567" lon="11.904775"><ele>496.0</ele><time>2026-04-18T07:21:53.837Z</time></trkpt><trkpt lat="42.6856983" lon="11.90464"><ele>496.0</ele><time>2026-04-18T07:21:54.837Z</time></trkpt><trkpt lat="42.685645" lon="11.904495"><ele>496.0</ele><time>2026-04-18T07:21:55.837Z</time></trkpt><trkpt lat="42.6856083" lon="11.9043133"><ele>496.0</ele><time>2026-04-18T07:21:56.838Z</time></trkpt><trkpt lat="42.6855583" lon="11.9041533"><ele>496.0</ele><time>2026-04-18T07:21:57.837Z</time></trkpt><trkpt lat="42.6855233" lon="11.9039983"><ele>496.0</ele><time>2026-04-18T07:21:58.837Z</time></trkpt><trkpt lat="42.6854983" lon="11.9038383"><ele>496.5</ele><time>2026-04-18T07:21:59.838Z</time></trkpt><trkpt lat="42.6854717" lon="11.9036867"><ele>497.0</ele><time>2026-04-18T07:22:00.837Z</time></trkpt><trkpt lat="42.6854417" lon="11.9035217"><ele>497.5</ele><time>2026-04-18T07:22:01.838Z</time></trkpt><trkpt lat="42.6854217" lon="11.903355"><ele>498.0</ele><time>2026-04-18T07:22:02.838Z</time></trkpt><trkpt lat="42.685415" lon="11.9031767"><ele>498.5</ele><time>2026-04-18T07:22:03.838Z</time></trkpt><trkpt lat="42.6854133" lon="11.902985"><ele>499.0</ele><time>2026-04-18T07:22:04.837Z</time></trkpt><trkpt lat="42.6854133" lon="11.9028"><ele>499.5</ele><time>2026-04-18T07:22:05.838Z</time></trkpt><trkpt lat="42.6854333" lon="11.9026217"><ele>500.0</ele><time>2026-04-18T07:22:06.838Z</time></trkpt><trkpt lat="42.6854633" lon="11.9024267"><ele>500.66666666666663</ele><time>2026-04-18T07:22:07.837Z</time></trkpt><trkpt lat="42.6855117" lon="11.9022367"><ele>501.33333333333337</ele><time>2026-04-18T07:22:08.837Z</time></trkpt><trkpt lat="42.6855717" lon="11.90205"><ele>502.0</ele><time>2026-04-18T07:22:09.837Z</time></trkpt><trkpt lat="42.6856267" lon="11.9018533"><ele>502.6666666666667</ele><time>2026-04-18T07:22:10.837Z</time></trkpt><trkpt lat="42.6856833" lon="11.9016367"><ele>503.33333333333337</ele><time>2026-04-18T07:22:11.837Z</time></trkpt><trkpt lat="42.68572" lon="11.9014417"><ele>504.0</ele><time>2026-04-18T07:22:12.838Z</time></trkpt><trkpt lat="42.6857483" lon="11.9012533"><ele>504.0</ele><time>2026-04-18T07:22:13.838Z</time></trkpt><trkpt lat="42.68576" lon="11.90106"><ele>504.0</ele><time>2026-04-18T07:22:14.837Z</time></trkpt><trkpt lat="42.6857767" lon="11.9008633"><ele>504.0</ele><time>2026-04-18T07:22:15.837Z</time></trkpt><trkpt lat="42.6857817" lon="11.9006767"><ele>504.0</ele><time>2026-04-18T07:22:16.837Z</time></trkpt><trkpt lat="42.6858" lon="11.90048"><ele>504.75</ele><time>2026-04-18T07:22:17.837Z</time></trkpt><trkpt lat="42.6858167" lon="11.9002967"><ele>505.5</ele><time>2026-04-18T07:22:18.837Z</time></trkpt><trkpt lat="42.6858283" lon="11.9001033"><ele>506.25</ele><time>2026-04-18T07:22:19.837Z</time></trkpt><trkpt lat="42.6858333" lon="11.8999"><ele>507.0</ele><time>2026-04-18T07:22:20.838Z</time></trkpt><trkpt lat="42.6858183" lon="11.8996983"><ele>507.0</ele><time>2026-04-18T07:22:21.837Z</time></trkpt><trkpt lat="42.6857833" lon="11.8995017"><ele>507.0</ele><time>2026-04-18T07:22:22.837Z</time></trkpt><trkpt lat="42.6857267" lon="11.8993067"><ele>507.0</ele><time>2026-04-18T07:22:23.837Z</time></trkpt><trkpt lat="42.685645" lon="11.89914"><ele>507.0</ele><time>2026-04-18T07:22:24.837Z</time></trkpt><trkpt lat="42.6855283" lon="11.8990133"><ele>507.0</ele><time>2026-04-18T07:22:25.837Z</time></trkpt><trkpt lat="42.6853883" lon="11.89891"><ele>507.0</ele><time>2026-04-18T07:22:26.837Z</time></trkpt><trkpt lat="42.68524" lon="11.89881"><ele>505.33333333333337</ele><time>2026-04-18T07:22:27.838Z</time></trkpt><trkpt lat="42.6850883" lon="11.8987083"><ele>503.6666666666667</ele><time>2026-04-18T07:22:28.837Z</time></trkpt><trkpt lat="42.684945" lon="11.898605"><ele>502.0</ele><time>2026-04-18T07:22:29.837Z</time></trkpt><trkpt lat="42.6848033" lon="11.89848"><ele>502.6666666666667</ele><time>2026-04-18T07:22:30.838Z</time></trkpt><trkpt lat="42.68467" lon="11.8983517"><ele>503.33333333333337</ele><time>2026-04-18T07:22:31.837Z</time></trkpt><trkpt lat="42.6845433" lon="11.898215"><ele>504.0</ele><time>2026-04-18T07:22:32.837Z</time></trkpt><trkpt lat="42.6844233" lon="11.8980817"><ele>503.25</ele><time>2026-04-18T07:22:33.837Z</time></trkpt><trkpt lat="42.6843117" lon="11.8979567"><ele>502.5</ele><time>2026-04-18T07:22:34.837Z</time></trkpt><trkpt lat="42.684205" lon="11.8978183"><ele>501.75</ele><time>2026-04-18T07:22:35.837Z</time></trkpt><trkpt lat="42.6841167" lon="11.8976567"><ele>501.0</ele><time>2026-04-18T07:22:36.837Z</time></trkpt><trkpt lat="42.68406" lon="11.897475"><ele>501.0</ele><time>2026-04-18T07:22:37.838Z</time></trkpt><trkpt lat="42.68403" lon="11.8972783"><ele>501.0</ele><time>2026-04-18T07:22:38.838Z</time></trkpt><trkpt lat="42.6840283" lon="11.8970767"><ele>501.0</ele><time>2026-04-18T07:22:39.837Z</time></trkpt><trkpt lat="42.6840567" lon="11.896845"><ele>500.66666666666663</ele><time>2026-04-18T07:22:40.837Z</time></trkpt><trkpt lat="42.6841017" lon="11.89659"><ele>500.3333333333333</ele><time>2026-04-18T07:22:41.838Z</time></trkpt><trkpt lat="42.68416" lon="11.8963267"><ele>500.0</ele><time>2026-04-18T07:22:42.838Z</time></trkpt><trkpt lat="42.68422" lon="11.8960683"><ele>500.3333333333333</ele><time>2026-04-18T07:22:43.837Z</time></trkpt><trkpt lat="42.6842833" lon="11.8958233"><ele>500.66666666666663</ele><time>2026-04-18T07:22:44.838Z</time></trkpt><trkpt lat="42.68435" lon="11.8955883"><ele>501.0</ele><time>2026-04-18T07:22:45.838Z</time></trkpt><trkpt lat="42.6843967" lon="11.895345"><ele>497.66666666666663</ele><time>2026-04-18T07:22:46.837Z</time></trkpt><trkpt lat="42.68446" lon="11.8951183"><ele>494.3333333333333</ele><time>2026-04-18T07:22:47.837Z</time></trkpt><trkpt lat="42.6845233" lon="11.8949"><ele>491.0</ele><time>2026-04-18T07:22:48.838Z</time></trkpt><trkpt lat="42.684595" lon="11.8946933"><ele>489.3333333333333</ele><time>2026-04-18T07:22:49.837Z</time></trkpt><trkpt lat="42.6846683" lon="11.8945067"><ele>487.66666666666663</ele><time>2026-04-18T07:22:50.838Z</time></trkpt><trkpt lat="42.6847367" lon="11.8943267"><ele>486.0</ele><time>2026-04-18T07:22:51.838Z</time></trkpt><trkpt lat="42.684795" lon="11.8941367"><ele>484.33333333333337</ele><time>2026-04-18T07:22:52.837Z</time></trkpt><trkpt lat="42.6848283" lon="11.8939367"><ele>482.6666666666667</ele><time>2026-04-18T07:22:53.838Z</time></trkpt><trkpt lat="42.6848233" lon="11.8937067"><ele>481.0</ele><time>2026-04-18T07:22:54.837Z</time></trkpt><trkpt lat="42.6847933" lon="11.8934467"><ele>479.0</ele><time>2026-04-18T07:22:55.837Z</time></trkpt><trkpt lat="42.6847483" lon="11.8931883"><ele>477.0</ele><time>2026-04-18T07:22:56.837Z</time></trkpt><trkpt lat="42.68471" lon="11.89293"><ele>475.0</ele><time>2026-04-18T07:22:57.838Z</time></trkpt><trkpt lat="42.6846567" lon="11.89269"><ele>474.33333333333337</ele><time>2026-04-18T07:22:58.838Z</time></trkpt><trkpt lat="42.684605" lon="11.892465"><ele>473.66666666666663</ele><time>2026-04-18T07:22:59.837Z</time></trkpt><trkpt lat="42.6845417" lon="11.8922633"><ele>473.0</ele><time>2026-04-18T07:23:00.838Z</time></trkpt><trkpt lat="42.6844683" lon="11.8920767"><ele>472.25</ele><time>2026-04-18T07:23:01.837Z</time></trkpt><trkpt lat="42.68439" lon="11.8919317"><ele>471.5</ele><time>2026-04-18T07:23:02.837Z</time></trkpt><trkpt lat="42.6842933" lon="11.8917967"><ele>470.75</ele><time>2026-04-18T07:23:03.837Z</time></trkpt><trkpt lat="42.6841483" lon="11.891665"><ele>470.0</ele><time>2026-04-18T07:23:04.837Z</time></trkpt><trkpt lat="42.6840183" lon="11.891545"><ele>470.0</ele><time>2026-04-18T07:23:05.838Z</time></trkpt><trkpt lat="42.6839083" lon="11.891395"><ele>470.0</ele><time>2026-04-18T07:23:06.837Z</time></trkpt><trkpt lat="42.68382" lon="11.891235"><ele>470.0</ele><time>2026-04-18T07:23:07.838Z</time></trkpt><trkpt lat="42.6837883" lon="11.891025"><ele>469.0</ele><time>2026-04-18T07:23:08.837Z</time></trkpt><trkpt lat="42.6837933" lon="11.8908117"><ele>468.0</ele><time>2026-04-18T07:23:09.838Z</time></trkpt><trkpt lat="42.683835" lon="11.8905967"><ele>467.0</ele><time>2026-04-18T07:23:10.837Z</time></trkpt><trkpt lat="42.683915" lon="11.8903867"><ele>467.0</ele><time>2026-04-18T07:23:11.837Z</time></trkpt><trkpt lat="42.6839967" lon="11.89017"><ele>467.0</ele><time>2026-04-18T07:23:12.837Z</time></trkpt><trkpt lat="42.6840783" lon="11.88995"><ele>467.0</ele><time>2026-04-18T07:23:13.838Z</time></trkpt><trkpt lat="42.6841483" lon="11.8897417"><ele>466.0</ele><time>2026-04-18T07:23:14.837Z</time></trkpt><trkpt lat="42.684215" lon="11.8895383"><ele>465.0</ele><time>2026-04-18T07:23:15.838Z</time></trkpt><trkpt lat="42.6842733" lon="11.8893517"><ele>464.0</ele><time>2026-04-18T07:23:16.838Z</time></trkpt><trkpt lat="42.6843267" lon="11.8891767"><ele>463.66666666666663</ele><time>2026-04-18T07:23:17.837Z</time></trkpt><trkpt lat="42.6843633" lon="11.8889783"><ele>463.33333333333337</ele><time>2026-04-18T07:23:18.837Z</time></trkpt><trkpt lat="42.68437" lon="11.8887617"><ele>463.0</ele><time>2026-04-18T07:23:19.838Z</time></trkpt><trkpt lat="42.6843567" lon="11.888535"><ele>463.0</ele><time>2026-04-18T07:23:20.838Z</time></trkpt><trkpt lat="42.6843133" lon="11.888305"><ele>463.0</ele><time>2026-04-18T07:23:21.837Z</time></trkpt><trkpt lat="42.684265" lon="11.88808"><ele>463.0</ele><time>2026-04-18T07:23:22.837Z</time></trkpt><trkpt lat="42.684215" lon="11.887855"><ele>463.0</ele><time>2026-04-18T07:23:23.838Z</time></trkpt><trkpt lat="42.6841567" lon="11.8876367"><ele>463.0</ele><time>2026-04-18T07:23:24.837Z</time></trkpt><trkpt lat="42.6840983" lon="11.8874333"><ele>463.0</ele><time>2026-04-18T07:23:25.838Z</time></trkpt><trkpt lat="42.6840433" lon="11.8872283"><ele>463.0</ele><time>2026-04-18T07:23:26.837Z</time></trkpt><trkpt lat="42.68399" lon="11.8870217"><ele>463.0</ele><time>2026-04-18T07:23:27.838Z</time></trkpt><trkpt lat="42.6839467" lon="11.8868183"><ele>463.0</ele><time>2026-04-18T07:23:28.837Z</time></trkpt><trkpt lat="42.6838983" lon="11.8866183"><ele>463.0</ele><time>2026-04-18T07:23:29.838Z</time></trkpt><trkpt lat="42.6838483" lon="11.8864217"><ele>463.0</ele><time>2026-04-18T07:23:30.838Z</time></trkpt><trkpt lat="42.6838067" lon="11.886225"><ele>463.0</ele><time>2026-04-18T07:23:31.837Z</time></trkpt><trkpt lat="42.6837717" lon="11.8860267"><ele>462.75</ele><time>2026-04-18T07:23:32.838Z</time></trkpt><trkpt lat="42.68374" lon="11.8858317"><ele>462.5</ele><time>2026-04-18T07:23:33.837Z</time></trkpt><trkpt lat="42.683715" lon="11.8856367"><ele>462.25</ele><time>2026-04-18T07:23:34.837Z</time></trkpt><trkpt lat="42.68369" lon="11.88543"><ele>462.0</ele><time>2026-04-18T07:23:35.837Z</time></trkpt><trkpt lat="42.68368" lon="11.8852033"><ele>462.0</ele><time>2026-04-18T07:23:36.837Z</time></trkpt><trkpt lat="42.6837033" lon="11.8849683"><ele>462.0</ele><time>2026-04-18T07:23:37.838Z</time></trkpt><trkpt lat="42.683745" lon="11.884735"><ele>462.0</ele><time>2026-04-18T07:23:38.837Z</time></trkpt><trkpt lat="42.683775" lon="11.8845017"><ele>462.0</ele><time>2026-04-18T07:23:39.837Z</time></trkpt><trkpt lat="42.6838017" lon="11.884255"><ele>462.0</ele><time>2026-04-18T07:23:40.838Z</time></trkpt><trkpt lat="42.68383" lon="11.884015"><ele>462.0</ele><time>2026-04-18T07:23:41.838Z</time></trkpt><trkpt lat="42.6838683" lon="11.883775"><ele>462.0</ele><time>2026-04-18T07:23:42.837Z</time></trkpt><trkpt lat="42.6838917" lon="11.8835367"><ele>462.0</ele><time>2026-04-18T07:23:43.837Z</time></trkpt><trkpt lat="42.6839267" lon="11.883305"><ele>462.0</ele><time>2026-04-18T07:23:44.837Z</time></trkpt><trkpt lat="42.6839583" lon="11.8830733"><ele>462.66666666666663</ele><time>2026-04-18T07:23:45.837Z</time></trkpt><trkpt lat="42.684" lon="11.8828367"><ele>463.3333333333333</ele><time>2026-04-18T07:23:46.837Z</time></trkpt><trkpt lat="42.684055" lon="11.8825883"><ele>464.0</ele><time>2026-04-18T07:23:47.837Z</time></trkpt><trkpt lat="42.6841067" lon="11.882335"><ele>464.3333333333333</ele><time>2026-04-18T07:23:48.838Z</time></trkpt><trkpt lat="42.6841633" lon="11.8820733"><ele>464.66666666666663</ele><time>2026-04-18T07:23:49.838Z</time></trkpt><trkpt lat="42.6842183" lon="11.8817967"><ele>465.0</ele><time>2026-04-18T07:23:50.837Z</time></trkpt><trkpt lat="42.68427" lon="11.8815067"><ele>465.33333333333337</ele><time>2026-04-18T07:23:51.838Z</time></trkpt><trkpt lat="42.6843183" lon="11.88122"><ele>465.6666666666667</ele><time>2026-04-18T07:23:52.838Z</time></trkpt><trkpt lat="42.6843617" lon="11.880955"><ele>466.0</ele><time>2026-04-18T07:23:53.837Z</time></trkpt><trkpt lat="42.684425" lon="11.8807117"><ele>466.33333333333337</ele><time>2026-04-18T07:23:54.837Z</time></trkpt><trkpt lat="42.6845117" lon="11.8804917"><ele>466.66666666666663</ele><time>2026-04-18T07:23:55.837Z</time></trkpt><trkpt lat="42.6846017" lon="11.8803133"><ele>467.0</ele><time>2026-04-18T07:23:56.837Z</time></trkpt><trkpt lat="42.684685" lon="11.880155"><ele>466.0</ele><time>2026-04-18T07:23:57.837Z</time></trkpt><trkpt lat="42.6847517" lon="11.8799867"><ele>465.0</ele><time>2026-04-18T07:23:58.837Z</time></trkpt><trkpt lat="42.6847783" lon="11.8798083"><ele>464.0</ele><time>2026-04-18T07:23:59.837Z</time></trkpt><trkpt lat="42.6847717" lon="11.8796033"><ele>463.0</ele><time>2026-04-18T07:24:00.837Z</time></trkpt><trkpt lat="42.6847267" lon="11.8793617"><ele>464.0</ele><time>2026-04-18T07:24:01.838Z</time></trkpt><trkpt lat="42.6846483" lon="11.8791233"><ele>465.0</ele><time>2026-04-18T07:24:02.837Z</time></trkpt><trkpt lat="42.6845383" lon="11.8788867"><ele>466.0</ele><time>2026-04-18T07:24:03.838Z</time></trkpt><trkpt lat="42.6843967" lon="11.8786533"><ele>467.5</ele><time>2026-04-18T07:24:04.838Z</time></trkpt><trkpt lat="42.6842483" lon="11.8784117"><ele>469.0</ele><time>2026-04-18T07:24:05.837Z</time></trkpt><trkpt lat="42.6840917" lon="11.8781617"><ele>469.0</ele><time>2026-04-18T07:24:06.837Z</time></trkpt><trkpt lat="42.683935" lon="11.877935"><ele>469.0</ele><time>2026-04-18T07:24:07.837Z</time></trkpt><trkpt lat="42.6837917" lon="11.8777267"><ele>469.0</ele><time>2026-04-18T07:24:08.838Z</time></trkpt><trkpt lat="42.6836433" lon="11.8775533"><ele>469.0</ele><time>2026-04-18T07:24:09.837Z</time></trkpt><trkpt lat="42.68352" lon="11.877405"><ele>469.0</ele><time>2026-04-18T07:24:10.837Z</time></trkpt><trkpt lat="42.683405" lon="11.877255"><ele>469.0</ele><time>2026-04-18T07:24:11.838Z</time></trkpt><trkpt lat="42.6833067" lon="11.8771017"><ele>469.0</ele><time>2026-04-18T07:24:12.838Z</time></trkpt><trkpt lat="42.683215" lon="11.8769467"><ele>469.0</ele><time>2026-04-18T07:24:13.838Z</time></trkpt><trkpt lat="42.6831417" lon="11.87676"><ele>469.0</ele><time>2026-04-18T07:24:14.838Z</time></trkpt><trkpt lat="42.6830833" lon="11.8765817"><ele>469.0</ele><time>2026-04-18T07:24:15.837Z</time></trkpt><trkpt lat="42.6830283" lon="11.876405"><ele>470.0</ele><time>2026-04-18T07:24:16.837Z</time></trkpt><trkpt lat="42.6829817" lon="11.8762133"><ele>471.0</ele><time>2026-04-18T07:24:17.837Z</time></trkpt><trkpt lat="42.6829217" lon="11.8759983"><ele>472.0</ele><time>2026-04-18T07:24:18.838Z</time></trkpt><trkpt lat="42.6828733" lon="11.8757867"><ele>472.0</ele><time>2026-04-18T07:24:19.837Z</time></trkpt><trkpt lat="42.682805" lon="11.8755817"><ele>472.0</ele><time>2026-04-18T07:24:20.838Z</time></trkpt><trkpt lat="42.6827317" lon="11.875395"><ele>472.0</ele><time>2026-04-18T07:24:21.837Z</time></trkpt><trkpt lat="42.6826417" lon="11.8752183"><ele>472.33333333333337</ele><time>2026-04-18T07:24:22.838Z</time></trkpt><trkpt lat="42.68253" lon="11.875065"><ele>472.66666666666663</ele><time>2026-04-18T07:24:23.837Z</time></trkpt><trkpt lat="42.6824117" lon="11.8749283"><ele>473.0</ele><time>2026-04-18T07:24:24.837Z</time></trkpt><trkpt lat="42.6822917" lon="11.87481"><ele>473.0</ele><time>2026-04-18T07:24:25.837Z</time></trkpt><trkpt lat="42.6821767" lon="11.8746983"><ele>473.0</ele><time>2026-04-18T07:24:26.837Z</time></trkpt><trkpt lat="42.68206" lon="11.87459"><ele>473.0</ele><time>2026-04-18T07:24:27.837Z</time></trkpt><trkpt lat="42.681935" lon="11.87449"><ele>473.0</ele><time>2026-04-18T07:24:28.837Z</time></trkpt><trkpt lat="42.6818" lon="11.874395"><ele>473.3333333333333</ele><time>2026-04-18T07:24:29.837Z</time></trkpt><trkpt lat="42.6816483" lon="11.874295"><ele>473.66666666666663</ele><time>2026-04-18T07:24:30.837Z</time></trkpt><trkpt lat="42.681495" lon="11.8741967"><ele>474.0</ele><time>2026-04-18T07:24:31.838Z</time></trkpt><trkpt lat="42.6813433" lon="11.8741017"><ele>474.0</ele><time>2026-04-18T07:24:32.838Z</time></trkpt><trkpt lat="42.6811983" lon="11.8739983"><ele>474.0</ele><time>2026-04-18T07:24:33.837Z</time></trkpt><trkpt lat="42.6810533" lon="11.8738967"><ele>474.0</ele><time>2026-04-18T07:24:34.837Z</time></trkpt><trkpt lat="42.6809133" lon="11.8738167"><ele>474.25</ele><time>2026-04-18T07:24:35.837Z</time></trkpt><trkpt lat="42.6807833" lon="11.8737417"><ele>474.5</ele><time>2026-04-18T07:24:36.838Z</time></trkpt><trkpt lat="42.6806667" lon="11.8736633"><ele>474.75</ele><time>2026-04-18T07:24:37.837Z</time></trkpt><trkpt lat="42.68055" lon="11.8736033"><ele>475.0</ele><time>2026-04-18T07:24:38.837Z</time></trkpt><trkpt lat="42.6804317" lon="11.8735617"><ele>475.0</ele><time>2026-04-18T07:24:39.838Z</time></trkpt><trkpt lat="42.6803133" lon="11.8735417"><ele>475.0</ele><time>2026-04-18T07:24:40.837Z</time></trkpt><trkpt lat="42.6801933" lon="11.8735383"><ele>475.0</ele><time>2026-04-18T07:24:41.837Z</time></trkpt><trkpt lat="42.6800917" lon="11.8735267"><ele>475.0</ele><time>2026-04-18T07:24:42.837Z</time></trkpt><trkpt lat="42.680005" lon="11.8734917"><ele>475.0</ele><time>2026-04-18T07:24:43.837Z</time></trkpt><trkpt lat="42.679935" lon="11.8734167"><ele>475.0</ele><time>2026-04-18T07:24:44.838Z</time></trkpt><trkpt lat="42.6798733" lon="11.8732933"><ele>475.0</ele><time>2026-04-18T07:24:45.838Z</time></trkpt><trkpt lat="42.679825" lon="11.873125"><ele>475.0</ele><time>2026-04-18T07:24:46.837Z</time></trkpt><trkpt lat="42.6797983" lon="11.8729233"><ele>475.0</ele><time>2026-04-18T07:24:47.837Z</time></trkpt><trkpt lat="42.6797517" lon="11.8727017"><ele>475.33333333333337</ele><time>2026-04-18T07:24:48.838Z</time></trkpt><trkpt lat="42.6796867" lon="11.8724733"><ele>475.66666666666663</ele><time>2026-04-18T07:24:49.837Z</time></trkpt><trkpt lat="42.679595" lon="11.8723017"><ele>476.0</ele><time>2026-04-18T07:24:50.838Z</time></trkpt><trkpt lat="42.679505" lon="11.872165"><ele>476.0</ele><time>2026-04-18T07:24:51.838Z</time></trkpt><trkpt lat="42.6794233" lon="11.8720533"><ele>476.0</ele><time>2026-04-18T07:24:52.838Z</time></trkpt><trkpt lat="42.67934" lon="11.87196"><ele>476.0</ele><time>2026-04-18T07:24:53.837Z</time></trkpt><trkpt lat="42.679265" lon="11.8718733"><ele>476.0</ele><time>2026-04-18T07:24:54.837Z</time></trkpt><trkpt lat="42.679205" lon="11.871795"><ele>476.0</ele><time>2026-04-18T07:24:55.837Z</time></trkpt><trkpt lat="42.6791633" lon="11.8717183"><ele>475.75</ele><time>2026-04-18T07:24:56.837Z</time></trkpt><trkpt lat="42.67917" lon="11.8715583"><ele>475.5</ele><time>2026-04-18T07:24:58.837Z</time></trkpt><trkpt lat="42.6792317" lon="11.8714667"><ele>475.25</ele><time>2026-04-18T07:24:59.838Z</time></trkpt><trkpt lat="42.679315" lon="11.8713583"><ele>475.0</ele><time>2026-04-18T07:25:00.838Z</time></trkpt><trkpt lat="42.6794167" lon="11.87123"><ele>475.25</ele><time>2026-04-18T07:25:01.838Z</time></trkpt><trkpt lat="42.6795083" lon="11.8711083"><ele>475.5</ele><time>2026-04-18T07:25:02.837Z</time></trkpt><trkpt lat="42.6795983" lon="11.8709633"><ele>475.75</ele><time>2026-04-18T07:25:03.838Z</time></trkpt><trkpt lat="42.67969" lon="11.8708133"><ele>476.0</ele><time>2026-04-18T07:25:04.837Z</time></trkpt><trkpt lat="42.679785" lon="11.870665"><ele>476.25</ele><time>2026-04-18T07:25:05.838Z</time></trkpt><trkpt lat="42.67988" lon="11.87052"><ele>476.5</ele><time>2026-04-18T07:25:06.837Z</time></trkpt><trkpt lat="42.6799733" lon="11.8703817"><ele>476.75</ele><time>2026-04-18T07:25:07.838Z</time></trkpt><trkpt lat="42.680075" lon="11.8702383"><ele>477.0</ele><time>2026-04-18T07:25:08.837Z</time></trkpt><trkpt lat="42.680175" lon="11.8700983"><ele>477.5</ele><time>2026-04-18T07:25:09.837Z</time></trkpt><trkpt lat="42.68027" lon="11.86997"><ele>478.0</ele><time>2026-04-18T07:25:10.837Z</time></trkpt><trkpt lat="42.680365" lon="11.86985"><ele>478.5</ele><time>2026-04-18T07:25:11.837Z</time></trkpt><trkpt lat="42.68044" lon="11.869735"><ele>479.0</ele><time>2026-04-18T07:25:12.838Z</time></trkpt><trkpt lat="42.6804883" lon="11.8696"><ele>479.0</ele><time>2026-04-18T07:25:13.837Z</time></trkpt><trkpt lat="42.6805217" lon="11.8694417"><ele>479.0</ele><time>2026-04-18T07:25:14.838Z</time></trkpt><trkpt lat="42.6805333" lon="11.8692767"><ele>479.0</ele><time>2026-04-18T07:25:15.837Z</time></trkpt><trkpt lat="42.6805483" lon="11.869115"><ele>479.0</ele><time>2026-04-18T07:25:16.838Z</time></trkpt><trkpt lat="42.68056" lon="11.8689667"><ele>479.0</ele><time>2026-04-18T07:25:17.837Z</time></trkpt><trkpt lat="42.6805617" lon="11.8688233"><ele>479.0</ele><time>2026-04-18T07:25:18.838Z</time></trkpt><trkpt lat="42.68058" lon="11.86869"><ele>479.0</ele><time>2026-04-18T07:25:19.837Z</time></trkpt><trkpt lat="42.6806133" lon="11.8685617"><ele>479.0</ele><time>2026-04-18T07:25:20.838Z</time></trkpt><trkpt lat="42.6806733" lon="11.8684433"><ele>479.0</ele><time>2026-04-18T07:25:21.838Z</time></trkpt><trkpt lat="42.6807633" lon="11.8683283"><ele>480.0</ele><time>2026-04-18T07:25:22.838Z</time></trkpt><trkpt lat="42.68087" lon="11.8682267"><ele>481.0</ele><time>2026-04-18T07:25:23.837Z</time></trkpt><trkpt lat="42.68098" lon="11.8681383"><ele>482.0</ele><time>2026-04-18T07:25:24.837Z</time></trkpt><trkpt lat="42.681085" lon="11.8680517"><ele>483.0</ele><time>2026-04-18T07:25:25.837Z</time></trkpt><trkpt lat="42.6811867" lon="11.8679817"><ele>483.0</ele><time>2026-04-18T07:25:26.837Z</time></trkpt><trkpt lat="42.6812817" lon="11.8679117"><ele>482.99999999999994</ele><time>2026-04-18T07:25:27.837Z</time></trkpt><trkpt lat="42.6813717" lon="11.867875"><ele>482.99999999999994</ele><time>2026-04-18T07:25:28.838Z</time></trkpt><trkpt lat="42.68148" lon="11.86786"><ele>483.0</ele><time>2026-04-18T07:25:29.837Z</time></trkpt><trkpt lat="42.6816083" lon="11.867845"><ele>483.0</ele><time>2026-04-18T07:25:30.838Z</time></trkpt><trkpt lat="42.6817467" lon="11.867825"><ele>483.0</ele><time>2026-04-18T07:25:31.837Z</time></trkpt><trkpt lat="42.6818867" lon="11.86782"><ele>483.0</ele><time>2026-04-18T07:25:32.838Z</time></trkpt><trkpt lat="42.6820467" lon="11.8678033"><ele>483.0</ele><time>2026-04-18T07:25:33.838Z</time></trkpt><trkpt lat="42.6822033" lon="11.8677933"><ele>480.66666666666663</ele><time>2026-04-18T07:25:34.838Z</time></trkpt><trkpt lat="42.6823617" lon="11.8677867"><ele>478.3333333333333</ele><time>2026-04-18T07:25:35.837Z</time></trkpt><trkpt lat="42.682515" lon="11.8677717"><ele>476.0</ele><time>2026-04-18T07:25:36.837Z</time></trkpt><trkpt lat="42.6826583" lon="11.8677533"><ele>473.5</ele><time>2026-04-18T07:25:37.837Z</time></trkpt><trkpt lat="42.6827983" lon="11.86773"><ele>471.0</ele><time>2026-04-18T07:25:38.837Z</time></trkpt><trkpt lat="42.6829383" lon="11.8677033"><ele>468.5</ele><time>2026-04-18T07:25:39.837Z</time></trkpt><trkpt lat="42.68307" lon="11.8676817"><ele>466.0</ele><time>2026-04-18T07:25:40.838Z</time></trkpt><trkpt lat="42.6831983" lon="11.86767"><ele>466.0</ele><time>2026-04-18T07:25:41.838Z</time></trkpt><trkpt lat="42.683315" lon="11.867665"><ele>466.0</ele><time>2026-04-18T07:25:42.837Z</time></trkpt><trkpt lat="42.6834333" lon="11.8676633"><ele>466.0</ele><time>2026-04-18T07:25:43.838Z</time></trkpt><trkpt lat="42.6835617" lon="11.8676467"><ele>466.0</ele><time>2026-04-18T07:25:44.837Z</time></trkpt><trkpt lat="42.6837033" lon="11.867605"><ele>463.5</ele><time>2026-04-18T07:25:45.838Z</time></trkpt><trkpt lat="42.6838283" lon="11.8675383"><ele>461.0</ele><time>2026-04-18T07:25:46.838Z</time></trkpt><trkpt lat="42.6839267" lon="11.8674517"><ele>458.5</ele><time>2026-04-18T07:25:47.838Z</time></trkpt><trkpt lat="42.6840083" lon="11.8673333"><ele>456.0</ele><time>2026-04-18T07:25:48.838Z</time></trkpt><trkpt lat="42.6840817" lon="11.86716"><ele>456.0</ele><time>2026-04-18T07:25:49.838Z</time></trkpt><trkpt lat="42.6841383" lon="11.8669583"><ele>456.0</ele><time>2026-04-18T07:25:50.837Z</time></trkpt><trkpt lat="42.6841967" lon="11.8667717"><ele>456.0</ele><time>2026-04-18T07:25:51.838Z</time></trkpt><trkpt lat="42.6842767" lon="11.8666083"><ele>457.25</ele><time>2026-04-18T07:25:52.838Z</time></trkpt><trkpt lat="42.6843683" lon="11.8664667"><ele>458.5</ele><time>2026-04-18T07:25:53.837Z</time></trkpt><trkpt lat="42.6844817" lon="11.8663467"><ele>459.75</ele><time>2026-04-18T07:25:54.837Z</time></trkpt><trkpt lat="42.6845917" lon="11.8662233"><ele>461.0</ele><time>2026-04-18T07:25:55.837Z</time></trkpt><trkpt lat="42.68469" lon="11.8661017"><ele>461.25</ele><time>2026-04-18T07:25:56.838Z</time></trkpt><trkpt lat="42.6847817" lon="11.8659883"><ele>461.5</ele><time>2026-04-18T07:25:57.837Z</time></trkpt><trkpt lat="42.6848583" lon="11.86586"><ele>461.75</ele><time>2026-04-18T07:25:58.837Z</time></trkpt><trkpt lat="42.6849083" lon="11.8657183"><ele>462.0</ele><time>2026-04-18T07:25:59.837Z</time></trkpt><trkpt lat="42.6849333" lon="11.8655417"><ele>463.0</ele><time>2026-04-18T07:26:00.838Z</time></trkpt><trkpt lat="42.6849517" lon="11.865365"><ele>464.0</ele><time>2026-04-18T07:26:01.837Z</time></trkpt><trkpt lat="42.6849783" lon="11.8652167"><ele>465.0</ele><time>2026-04-18T07:26:02.837Z</time></trkpt><trkpt lat="42.6850267" lon="11.8650817"><ele>466.0</ele><time>2026-04-18T07:26:03.837Z</time></trkpt><trkpt lat="42.6850933" lon="11.8649683"><ele>467.20000000000005</ele><time>2026-04-18T07:26:04.838Z</time></trkpt><trkpt lat="42.68518" lon="11.8648733"><ele>468.40000000000003</ele><time>2026-04-18T07:26:05.838Z</time></trkpt><trkpt lat="42.6852817" lon="11.8647917"><ele>469.6</ele><time>2026-04-18T07:26:06.837Z</time></trkpt><trkpt lat="42.6853733" lon="11.8647117"><ele>470.8</ele><time>2026-04-18T07:26:07.838Z</time></trkpt><trkpt lat="42.6854533" lon="11.8646583"><ele>472.0</ele><time>2026-04-18T07:26:08.837Z</time></trkpt><trkpt lat="42.685525" lon="11.86462"><ele>473.00000000000006</ele><time>2026-04-18T07:26:09.838Z</time></trkpt><trkpt lat="42.6855867" lon="11.8645817"><ele>474.0</ele><time>2026-04-18T07:26:10.838Z</time></trkpt><trkpt lat="42.6856783" lon="11.864525"><ele>475.0</ele><time>2026-04-18T07:26:12.837Z</time></trkpt><trkpt lat="42.6857267" lon="11.8644583"><ele>476.0</ele><time>2026-04-18T07:26:14.837Z</time></trkpt><trkpt lat="42.685745" lon="11.8643533"><ele>477.00000000000006</ele><time>2026-04-18T07:26:17.838Z</time></trkpt><trkpt lat="42.685755" lon="11.8642167"><ele>478.0</ele><time>2026-04-18T07:26:20.837Z</time></trkpt><trkpt lat="42.685765" lon="11.8640717"><ele>478.83333333333337</ele><time>2026-04-18T07:26:22.837Z</time></trkpt><trkpt lat="42.6857867" lon="11.8639883"><ele>479.6666666666667</ele><time>2026-04-18T07:26:23.837Z</time></trkpt><trkpt lat="42.6858" lon="11.8639033"><ele>480.5</ele><time>2026-04-18T07:26:24.837Z</time></trkpt><trkpt lat="42.68584" lon="11.8638067"><ele>481.33333333333337</ele><time>2026-04-18T07:26:25.838Z</time></trkpt><trkpt lat="42.6858783" lon="11.86369"><ele>482.1666666666667</ele><time>2026-04-18T07:26:26.838Z</time></trkpt><trkpt lat="42.6859217" lon="11.8635667"><ele>483.0</ele><time>2026-04-18T07:26:27.837Z</time></trkpt><trkpt lat="42.6859517" lon="11.8634267"><ele>483.0</ele><time>2026-04-18T07:26:28.838Z</time></trkpt><trkpt lat="42.6859917" lon="11.863275"><ele>483.0</ele><time>2026-04-18T07:26:29.838Z</time></trkpt><trkpt lat="42.6860283" lon="11.8631267"><ele>483.0</ele><time>2026-04-18T07:26:30.837Z</time></trkpt><trkpt lat="42.686055" lon="11.8629817"><ele>483.0</ele><time>2026-04-18T07:26:31.838Z</time></trkpt><trkpt lat="42.6861017" lon="11.8628383"><ele>482.0</ele><time>2026-04-18T07:26:32.837Z</time></trkpt><trkpt lat="42.6861583" lon="11.8627"><ele>481.0</ele><time>2026-04-18T07:26:33.837Z</time></trkpt><trkpt lat="42.6862317" lon="11.8625733"><ele>480.0</ele><time>2026-04-18T07:26:34.837Z</time></trkpt><trkpt lat="42.6863117" lon="11.8624567"><ele>479.0</ele><time>2026-04-18T07:26:35.837Z</time></trkpt><trkpt lat="42.6864017" lon="11.8623367"><ele>478.4</ele><time>2026-04-18T07:26:36.837Z</time></trkpt><trkpt lat="42.6864783" lon="11.8622317"><ele>477.79999999999995</ele><time>2026-04-18T07:26:37.837Z</time></trkpt><trkpt lat="42.6865583" lon="11.8621367"><ele>477.20000000000005</ele><time>2026-04-18T07:26:38.838Z</time></trkpt><trkpt lat="42.6866333" lon="11.8620283"><ele>476.6</ele><time>2026-04-18T07:26:39.838Z</time></trkpt><trkpt lat="42.686715" lon="11.861905"><ele>476.0</ele><time>2026-04-18T07:26:40.837Z</time></trkpt><trkpt lat="42.68679" lon="11.86179"><ele>477.16666666666663</ele><time>2026-04-18T07:26:41.837Z</time></trkpt><trkpt lat="42.6868533" lon="11.86169"><ele>478.3333333333333</ele><time>2026-04-18T07:26:42.837Z</time></trkpt><trkpt lat="42.6869067" lon="11.8615917"><ele>479.5</ele><time>2026-04-18T07:26:43.838Z</time></trkpt><trkpt lat="42.6869517" lon="11.8614917"><ele>480.66666666666663</ele><time>2026-04-18T07:26:44.837Z</time></trkpt><trkpt lat="42.6869867" lon="11.86138"><ele>481.8333333333333</ele><time>2026-04-18T07:26:45.838Z</time></trkpt><trkpt lat="42.68701" lon="11.86128"><ele>483.0</ele><time>2026-04-18T07:26:46.837Z</time></trkpt><trkpt lat="42.68704" lon="11.8611817"><ele>483.0</ele><time>2026-04-18T07:26:47.838Z</time></trkpt><trkpt lat="42.687065" lon="11.86105"><ele>483.0</ele><time>2026-04-18T07:26:48.837Z</time></trkpt><trkpt lat="42.687095" lon="11.860905"><ele>483.0</ele><time>2026-04-18T07:26:49.838Z</time></trkpt><trkpt lat="42.68713" lon="11.86075"><ele>483.0</ele><time>2026-04-18T07:26:50.837Z</time></trkpt><trkpt lat="42.687165" lon="11.8605933"><ele>482.75</ele><time>2026-04-18T07:26:51.837Z</time></trkpt><trkpt lat="42.6872" lon="11.8604367"><ele>482.5</ele><time>2026-04-18T07:26:52.837Z</time></trkpt><trkpt lat="42.6872483" lon="11.860285"><ele>482.25</ele><time>2026-04-18T07:26:53.837Z</time></trkpt><trkpt lat="42.6873133" lon="11.8601283"><ele>482.0</ele><time>2026-04-18T07:26:54.837Z</time></trkpt><trkpt lat="42.687385" lon="11.85997"><ele>479.0</ele><time>2026-04-18T07:26:55.837Z</time></trkpt><trkpt lat="42.687455" lon="11.8598267"><ele>476.0</ele><time>2026-04-18T07:26:56.837Z</time></trkpt><trkpt lat="42.6875267" lon="11.8596833"><ele>473.0</ele><time>2026-04-18T07:26:57.837Z</time></trkpt><trkpt lat="42.6875933" lon="11.8595567"><ele>470.0</ele><time>2026-04-18T07:26:58.837Z</time></trkpt><trkpt lat="42.6876483" lon="11.8594417"><ele>469.99999999999994</ele><time>2026-04-18T07:26:59.838Z</time></trkpt><trkpt lat="42.687685" lon="11.8593217"><ele>470.0</ele><time>2026-04-18T07:27:00.837Z</time></trkpt><trkpt lat="42.6876983" lon="11.8592083"><ele>470.0</ele><time>2026-04-18T07:27:01.837Z</time></trkpt><trkpt lat="42.68769" lon="11.8591083"><ele>470.0</ele><time>2026-04-18T07:27:02.838Z</time></trkpt><trkpt lat="42.68767" lon="11.8590217"><ele>469.99999999999994</ele><time>2026-04-18T07:27:03.837Z</time></trkpt><trkpt lat="42.6876333" lon="11.8589433"><ele>470.0</ele><time>2026-04-18T07:27:04.837Z</time></trkpt><trkpt lat="42.68753" lon="11.858895"><ele>469.8</ele><time>2026-04-18T07:27:06.837Z</time></trkpt><trkpt lat="42.68746" lon="11.8588967"><ele>469.6</ele><time>2026-04-18T07:27:07.837Z</time></trkpt><trkpt lat="42.6873583" lon="11.858915"><ele>469.4</ele><time>2026-04-18T07:27:08.837Z</time></trkpt><trkpt lat="42.68724" lon="11.8589367"><ele>469.2</ele><time>2026-04-18T07:27:09.838Z</time></trkpt><trkpt lat="42.6871067" lon="11.8589517"><ele>469.0</ele><time>2026-04-18T07:27:10.837Z</time></trkpt><trkpt lat="42.6869633" lon="11.858945"><ele>468.5</ele><time>2026-04-18T07:27:11.838Z</time></trkpt><trkpt lat="42.686815" lon="11.8589217"><ele>468.0</ele><time>2026-04-18T07:27:12.838Z</time></trkpt><trkpt lat="42.686675" lon="11.8588883"><ele>467.5</ele><time>2026-04-18T07:27:13.837Z</time></trkpt><trkpt lat="42.68655" lon="11.8588583"><ele>467.0</ele><time>2026-04-18T07:27:14.837Z</time></trkpt><trkpt lat="42.6864433" lon="11.8588117"><ele>467.0</ele><time>2026-04-18T07:27:15.837Z</time></trkpt><trkpt lat="42.6863583" lon="11.8587667"><ele>467.0</ele><time>2026-04-18T07:27:16.838Z</time></trkpt><trkpt lat="42.6862583" lon="11.8586833"><ele>467.0</ele><time>2026-04-18T07:27:17.837Z</time></trkpt><trkpt lat="42.6861383" lon="11.8585633"><ele>467.0</ele><time>2026-04-18T07:27:18.837Z</time></trkpt><trkpt lat="42.6860167" lon="11.8584183"><ele>468.3333333333333</ele><time>2026-04-18T07:27:19.838Z</time></trkpt><trkpt lat="42.685895" lon="11.8582667"><ele>469.66666666666663</ele><time>2026-04-18T07:27:20.837Z</time></trkpt><trkpt lat="42.6857717" lon="11.858135"><ele>471.0</ele><time>2026-04-18T07:27:21.837Z</time></trkpt><trkpt lat="42.685645" lon="11.858005"><ele>471.0</ele><time>2026-04-18T07:27:22.837Z</time></trkpt><trkpt lat="42.685525" lon="11.8578717"><ele>471.0</ele><time>2026-04-18T07:27:23.837Z</time></trkpt><trkpt lat="42.6854217" lon="11.8577383"><ele>471.0</ele><time>2026-04-18T07:27:24.838Z</time></trkpt><trkpt lat="42.68532" lon="11.85763"><ele>471.0</ele><time>2026-04-18T07:27:25.838Z</time></trkpt><trkpt lat="42.6852333" lon="11.8575183"><ele>471.25</ele><time>2026-04-18T07:27:26.837Z</time></trkpt><trkpt lat="42.685165" lon="11.857415"><ele>471.5</ele><time>2026-04-18T07:27:27.837Z</time></trkpt><trkpt lat="42.6851133" lon="11.8572883"><ele>471.75</ele><time>2026-04-18T07:27:28.837Z</time></trkpt><trkpt lat="42.6850783" lon="11.8571417"><ele>472.0</ele><time>2026-04-18T07:27:29.837Z</time></trkpt><trkpt lat="42.68504" lon="11.8569483"><ele>474.33333333333337</ele><time>2026-04-18T07:27:30.837Z</time></trkpt><trkpt lat="42.685005" lon="11.85674"><ele>476.66666666666663</ele><time>2026-04-18T07:27:31.838Z</time></trkpt><trkpt lat="42.6849617" lon="11.8565167"><ele>479.0</ele><time>2026-04-18T07:27:32.837Z</time></trkpt><trkpt lat="42.6849233" lon="11.8562883"><ele>479.0</ele><time>2026-04-18T07:27:33.837Z</time></trkpt><trkpt lat="42.6848533" lon="11.8560717"><ele>479.0</ele><time>2026-04-18T07:27:34.837Z</time></trkpt><trkpt lat="42.6847767" lon="11.855875"><ele>479.0</ele><time>2026-04-18T07:27:35.837Z</time></trkpt><trkpt lat="42.6846967" lon="11.855685"><ele>480.75</ele><time>2026-04-18T07:27:36.837Z</time></trkpt><trkpt lat="42.6846133" lon="11.85552"><ele>482.5</ele><time>2026-04-18T07:27:37.837Z</time></trkpt><trkpt lat="42.6845383" lon="11.855385"><ele>484.25</ele><time>2026-04-18T07:27:38.837Z</time></trkpt><trkpt lat="42.684475" lon="11.8552633"><ele>486.0</ele><time>2026-04-18T07:27:39.838Z</time></trkpt><trkpt lat="42.684425" lon="11.8551367"><ele>482.75</ele><time>2026-04-18T07:27:40.837Z</time></trkpt><trkpt lat="42.68439" lon="11.8549933"><ele>479.5</ele><time>2026-04-18T07:27:41.838Z</time></trkpt><trkpt lat="42.6843567" lon="11.8548283"><ele>476.25</ele><time>2026-04-18T07:27:42.837Z</time></trkpt><trkpt lat="42.6843067" lon="11.8546567"><ele>473.0</ele><time>2026-04-18T07:27:43.837Z</time></trkpt><trkpt lat="42.684235" lon="11.85451"><ele>473.0</ele><time>2026-04-18T07:27:44.838Z</time></trkpt><trkpt lat="42.6841267" lon="11.8543783"><ele>473.0</ele><time>2026-04-18T07:27:45.837Z</time></trkpt><trkpt lat="42.684005" lon="11.8542467"><ele>473.0</ele><time>2026-04-18T07:27:46.837Z</time></trkpt><trkpt lat="42.6838867" lon="11.854105"><ele>474.5</ele><time>2026-04-18T07:27:47.837Z</time></trkpt><trkpt lat="42.6837783" lon="11.85396"><ele>476.0</ele><time>2026-04-18T07:27:48.837Z</time></trkpt><trkpt lat="42.6836783" lon="11.8538083"><ele>477.5</ele><time>2026-04-18T07:27:49.837Z</time></trkpt><trkpt lat="42.6835883" lon="11.8536517"><ele>479.0</ele><time>2026-04-18T07:27:50.837Z</time></trkpt><trkpt lat="42.6834967" lon="11.8535"><ele>480.0</ele><time>2026-04-18T07:27:51.837Z</time></trkpt><trkpt lat="42.6834067" lon="11.853365"><ele>481.0</ele><time>2026-04-18T07:27:52.838Z</time></trkpt><trkpt lat="42.6833083" lon="11.853245"><ele>482.0</ele><time>2026-04-18T07:27:53.837Z</time></trkpt><trkpt lat="42.6831867" lon="11.8531533"><ele>483.0</ele><time>2026-04-18T07:27:54.837Z</time></trkpt><trkpt lat="42.6830567" lon="11.85305"><ele>483.0</ele><time>2026-04-18T07:27:55.837Z</time></trkpt><trkpt lat="42.6829317" lon="11.852935"><ele>483.0</ele><time>2026-04-18T07:27:56.837Z</time></trkpt><trkpt lat="42.68281" lon="11.85282"><ele>483.0</ele><time>2026-04-18T07:27:57.837Z</time></trkpt><trkpt lat="42.682685" lon="11.852715"><ele>483.0</ele><time>2026-04-18T07:27:58.838Z</time></trkpt><trkpt lat="42.6825583" lon="11.8526017"><ele>483.75</ele><time>2026-04-18T07:27:59.837Z</time></trkpt><trkpt lat="42.6824417" lon="11.8525033"><ele>484.5</ele><time>2026-04-18T07:28:00.837Z</time></trkpt><trkpt lat="42.6823217" lon="11.852395"><ele>485.25</ele><time>2026-04-18T07:28:01.838Z</time></trkpt><trkpt lat="42.6821933" lon="11.8523067"><ele>486.0</ele><time>2026-04-18T07:28:02.837Z</time></trkpt><trkpt lat="42.6820533" lon="11.852225"><ele>484.5</ele><time>2026-04-18T07:28:03.837Z</time></trkpt><trkpt lat="42.681915" lon="11.8521667"><ele>483.0</ele><time>2026-04-18T07:28:04.837Z</time></trkpt><trkpt lat="42.68178" lon="11.8521067"><ele>481.5</ele><time>2026-04-18T07:28:05.837Z</time></trkpt><trkpt lat="42.6816633" lon="11.852055"><ele>480.0</ele><time>2026-04-18T07:28:06.838Z</time></trkpt><trkpt lat="42.681555" lon="11.8520233"><ele>480.0</ele><time>2026-04-18T07:28:07.838Z</time></trkpt><trkpt lat="42.6814617" lon="11.8519733"><ele>480.0</ele><time>2026-04-18T07:28:08.838Z</time></trkpt><trkpt lat="42.68137" lon="11.8519267"><ele>480.0</ele><time>2026-04-18T07:28:09.838Z</time></trkpt><trkpt lat="42.681275" lon="11.8518617"><ele>480.0</ele><time>2026-04-18T07:28:10.837Z</time></trkpt><trkpt lat="42.6811867" lon="11.8517717"><ele>480.0</ele><time>2026-04-18T07:28:11.837Z</time></trkpt><trkpt lat="42.68111" lon="11.8516517"><ele>480.75</ele><time>2026-04-18T07:28:12.837Z</time></trkpt><trkpt lat="42.6810333" lon="11.8515017"><ele>481.5</ele><time>2026-04-18T07:28:13.837Z</time></trkpt><trkpt lat="42.6809667" lon="11.85134"><ele>482.25</ele><time>2026-04-18T07:28:14.837Z</time></trkpt><trkpt lat="42.6809183" lon="11.8511867"><ele>483.0</ele><time>2026-04-18T07:28:15.838Z</time></trkpt><trkpt lat="42.68087" lon="11.8510617"><ele>483.0</ele><time>2026-04-18T07:28:16.837Z</time></trkpt><trkpt lat="42.6808283" lon="11.8509633"><ele>483.0</ele><time>2026-04-18T07:28:17.837Z</time></trkpt><trkpt lat="42.680785" lon="11.8508417"><ele>483.0</ele><time>2026-04-18T07:28:19.837Z</time></trkpt><trkpt lat="42.6808367" lon="11.8507133"><ele>483.0</ele><time>2026-04-18T07:28:22.838Z</time></trkpt><trkpt lat="42.680885" lon="11.8506417"><ele>483.0</ele><time>2026-04-18T07:28:23.837Z</time></trkpt><trkpt lat="42.6809483" lon="11.8505617"><ele>483.0</ele><time>2026-04-18T07:28:24.838Z</time></trkpt><trkpt lat="42.6810383" lon="11.85048"><ele>490.66666666666663</ele><time>2026-04-18T07:28:25.837Z</time></trkpt><trkpt lat="42.6811783" lon="11.8504083"><ele>498.3333333333333</ele><time>2026-04-18T07:28:26.838Z</time></trkpt><trkpt lat="42.681325" lon="11.8503283"><ele>506.0</ele><time>2026-04-18T07:28:27.837Z</time></trkpt><trkpt lat="42.68148" lon="11.8502583"><ele>506.0</ele><time>2026-04-18T07:28:28.837Z</time></trkpt><trkpt lat="42.6816433" lon="11.8501833"><ele>506.0</ele><time>2026-04-18T07:28:29.837Z</time></trkpt><trkpt lat="42.6818133" lon="11.8501117"><ele>506.0</ele><time>2026-04-18T07:28:30.837Z</time></trkpt><trkpt lat="42.68198" lon="11.8500833"><ele>507.66666666666663</ele><time>2026-04-18T07:28:31.837Z</time></trkpt><trkpt lat="42.6821383" lon="11.85004"><ele>509.33333333333337</ele><time>2026-04-18T07:28:32.838Z</time></trkpt><trkpt lat="42.6822933" lon="11.8499633"><ele>511.0</ele><time>2026-04-18T07:28:33.838Z</time></trkpt><trkpt lat="42.6824433" lon="11.8498783"><ele>511.0</ele><time>2026-04-18T07:28:34.838Z</time></trkpt><trkpt lat="42.6825667" lon="11.8497767"><ele>511.0</ele><time>2026-04-18T07:28:35.837Z</time></trkpt><trkpt lat="42.6826883" lon="11.8496567"><ele>511.0</ele><time>2026-04-18T07:28:36.837Z</time></trkpt><trkpt lat="42.6828017" lon="11.8495133"><ele>511.0</ele><time>2026-04-18T07:28:37.837Z</time></trkpt><trkpt lat="42.682885" lon="11.8493317"><ele>509.75</ele><time>2026-04-18T07:28:38.837Z</time></trkpt><trkpt lat="42.6829617" lon="11.8491767"><ele>508.5</ele><time>2026-04-18T07:28:39.837Z</time></trkpt><trkpt lat="42.68305" lon="11.84903"><ele>507.25</ele><time>2026-04-18T07:28:40.838Z</time></trkpt><trkpt lat="42.68315" lon="11.848895"><ele>506.0</ele><time>2026-04-18T07:28:41.838Z</time></trkpt><trkpt lat="42.68327" lon="11.848765"><ele>506.0</ele><time>2026-04-18T07:28:42.837Z</time></trkpt><trkpt lat="42.6834133" lon="11.8486367"><ele>506.0</ele><time>2026-04-18T07:28:43.838Z</time></trkpt><trkpt lat="42.6835633" lon="11.8485033"><ele>506.0</ele><time>2026-04-18T07:28:44.838Z</time></trkpt><trkpt lat="42.6837267" lon="11.848355"><ele>506.3333333333333</ele><time>2026-04-18T07:28:45.838Z</time></trkpt><trkpt lat="42.6838867" lon="11.8482083"><ele>506.66666666666663</ele><time>2026-04-18T07:28:46.837Z</time></trkpt><trkpt lat="42.6840417" lon="11.848065"><ele>507.0</ele><time>2026-04-18T07:28:47.837Z</time></trkpt><trkpt lat="42.684205" lon="11.8479283"><ele>507.0</ele><time>2026-04-18T07:28:48.837Z</time></trkpt><trkpt lat="42.6843717" lon="11.84778"><ele>507.0</ele><time>2026-04-18T07:28:49.838Z</time></trkpt><trkpt lat="42.684535" lon="11.8476333"><ele>507.0</ele><time>2026-04-18T07:28:50.838Z</time></trkpt><trkpt lat="42.6846783" lon="11.847485"><ele>509.33333333333337</ele><time>2026-04-18T07:28:51.837Z</time></trkpt><trkpt lat="42.6848333" lon="11.8473433"><ele>511.6666666666667</ele><time>2026-04-18T07:28:52.837Z</time></trkpt><trkpt lat="42.6849883" lon="11.8472033"><ele>514.0</ele><time>2026-04-18T07:28:53.837Z</time></trkpt><trkpt lat="42.6851417" lon="11.8470867"><ele>513.3333333333334</ele><time>2026-04-18T07:28:54.838Z</time></trkpt><trkpt lat="42.6852967" lon="11.8469717"><ele>512.6666666666666</ele><time>2026-04-18T07:28:55.838Z</time></trkpt><trkpt lat="42.6854567" lon="11.8468617"><ele>512.0</ele><time>2026-04-18T07:28:56.838Z</time></trkpt><trkpt lat="42.6856233" lon="11.8467667"><ele>513.6666666666666</ele><time>2026-04-18T07:28:57.837Z</time></trkpt><trkpt lat="42.6857783" lon="11.8466767"><ele>515.3333333333334</ele><time>2026-04-18T07:28:58.838Z</time></trkpt><trkpt lat="42.6859167" lon="11.8465883"><ele>517.0</ele><time>2026-04-18T07:28:59.837Z</time></trkpt><trkpt lat="42.6860533" lon="11.8465083"><ele>516.3333333333334</ele><time>2026-04-18T07:29:00.837Z</time></trkpt><trkpt lat="42.68619" lon="11.8464117"><ele>515.6666666666666</ele><time>2026-04-18T07:29:01.838Z</time></trkpt><trkpt lat="42.6863333" lon="11.846315"><ele>515.0</ele><time>2026-04-18T07:29:02.838Z</time></trkpt><trkpt lat="42.6864733" lon="11.8462183"><ele>515.0</ele><time>2026-04-18T07:29:03.837Z</time></trkpt><trkpt lat="42.68662" lon="11.84612"><ele>515.0</ele><time>2026-04-18T07:29:04.838Z</time></trkpt><trkpt lat="42.6867567" lon="11.846035"><ele>515.0</ele><time>2026-04-18T07:29:05.837Z</time></trkpt><trkpt lat="42.6868917" lon="11.8459683"><ele>510.25</ele><time>2026-04-18T07:29:06.838Z</time></trkpt><trkpt lat="42.6870267" lon="11.845915"><ele>505.5</ele><time>2026-04-18T07:29:07.837Z</time></trkpt><trkpt lat="42.6871633" lon="11.8459017"><ele>500.75</ele><time>2026-04-18T07:29:08.838Z</time></trkpt><trkpt lat="42.6873017" lon="11.8459183"><ele>496.0</ele><time>2026-04-18T07:29:09.838Z</time></trkpt><trkpt lat="42.6874417" lon="11.8459567"><ele>500.25</ele><time>2026-04-18T07:29:10.837Z</time></trkpt><trkpt lat="42.6875817" lon="11.846"><ele>504.5</ele><time>2026-04-18T07:29:11.838Z</time></trkpt><trkpt lat="42.6877133" lon="11.84604"><ele>508.75</ele><time>2026-04-18T07:29:12.837Z</time></trkpt><trkpt lat="42.6878317" lon="11.846045"><ele>513.0</ele><time>2026-04-18T07:29:13.838Z</time></trkpt><trkpt lat="42.687955" lon="11.8460183"><ele>509.5</ele><time>2026-04-18T07:29:14.837Z</time></trkpt><trkpt lat="42.6880617" lon="11.8459217"><ele>506.0</ele><time>2026-04-18T07:29:15.838Z</time></trkpt><trkpt lat="42.68815" lon="11.84577"><ele>502.5</ele><time>2026-04-18T07:29:16.838Z</time></trkpt><trkpt lat="42.6882267" lon="11.8456267"><ele>499.0</ele><time>2026-04-18T07:29:17.837Z</time></trkpt><trkpt lat="42.6883167" lon="11.84549"><ele>499.0</ele><time>2026-04-18T07:29:18.838Z</time></trkpt><trkpt lat="42.6884267" lon="11.8453817"><ele>499.0</ele><time>2026-04-18T07:29:19.837Z</time></trkpt><trkpt lat="42.688545" lon="11.8452783"><ele>499.0</ele><time>2026-04-18T07:29:20.837Z</time></trkpt><trkpt lat="42.6886933" lon="11.84518"><ele>499.0</ele><time>2026-04-18T07:29:21.837Z</time></trkpt><trkpt lat="42.688855" lon="11.8450683"><ele>496.33333333333337</ele><time>2026-04-18T07:29:22.837Z</time></trkpt><trkpt lat="42.689025" lon="11.8449467"><ele>493.66666666666663</ele><time>2026-04-18T07:29:23.838Z</time></trkpt><trkpt lat="42.6892133" lon="11.8448283"><ele>491.0</ele><time>2026-04-18T07:29:24.837Z</time></trkpt><trkpt lat="42.6894" lon="11.8447167"><ele>490.66666666666663</ele><time>2026-04-18T07:29:25.838Z</time></trkpt><trkpt lat="42.6895717" lon="11.8446217"><ele>490.33333333333337</ele><time>2026-04-18T07:29:26.837Z</time></trkpt><trkpt lat="42.6897283" lon="11.84455"><ele>490.0</ele><time>2026-04-18T07:29:27.838Z</time></trkpt><trkpt lat="42.689885" lon="11.8444967"><ele>490.0</ele><time>2026-04-18T07:29:28.837Z</time></trkpt><trkpt lat="42.6900483" lon="11.844435"><ele>490.0</ele><time>2026-04-18T07:29:29.838Z</time></trkpt><trkpt lat="42.6902033" lon="11.8444117"><ele>490.0</ele><time>2026-04-18T07:29:30.838Z</time></trkpt><trkpt lat="42.69037" lon="11.8443817"><ele>489.33333333333337</ele><time>2026-04-18T07:29:31.838Z</time></trkpt><trkpt lat="42.6905317" lon="11.8443617"><ele>488.66666666666663</ele><time>2026-04-18T07:29:32.838Z</time></trkpt><trkpt lat="42.6906967" lon="11.8443067"><ele>488.0</ele><time>2026-04-18T07:29:33.837Z</time></trkpt><trkpt lat="42.6908367" lon="11.844215"><ele>487.66666666666663</ele><time>2026-04-18T07:29:34.838Z</time></trkpt><trkpt lat="42.6909817" lon="11.8441033"><ele>487.33333333333337</ele><time>2026-04-18T07:29:35.838Z</time></trkpt><trkpt lat="42.69112" lon="11.8439967"><ele>487.0</ele><time>2026-04-18T07:29:36.837Z</time></trkpt><trkpt lat="42.69124" lon="11.8438983"><ele>487.00000000000006</ele><time>2026-04-18T07:29:37.838Z</time></trkpt><trkpt lat="42.6913417" lon="11.84382"><ele>487.0</ele><time>2026-04-18T07:29:38.837Z</time></trkpt><trkpt lat="42.6914217" lon="11.843755"><ele>487.0</ele><time>2026-04-18T07:29:39.838Z</time></trkpt><trkpt lat="42.69149" lon="11.8437017"><ele>487.0</ele><time>2026-04-18T07:29:40.837Z</time></trkpt><trkpt lat="42.691545" lon="11.8436567"><ele>487.00000000000006</ele><time>2026-04-18T07:29:41.837Z</time></trkpt><trkpt lat="42.6916283" lon="11.8436017"><ele>487.0</ele><time>2026-04-18T07:29:43.838Z</time></trkpt><trkpt lat="42.6915483" lon="11.8436283"><ele>487.0</ele><time>2026-04-18T07:29:47.837Z</time></trkpt><trkpt lat="42.691465" lon="11.8436867"><ele>487.0</ele><time>2026-04-18T07:29:48.837Z</time></trkpt><trkpt lat="42.6913633" lon="11.8437683"><ele>487.0</ele><time>2026-04-18T07:29:49.837Z</time></trkpt><trkpt lat="42.6912617" lon="11.8438683"><ele>487.0</ele><time>2026-04-18T07:29:50.837Z</time></trkpt><trkpt lat="42.691155" lon="11.8439533"><ele>485.0</ele><time>2026-04-18T07:29:51.838Z</time></trkpt><trkpt lat="42.69106" lon="11.8440283"><ele>483.00000000000006</ele><time>2026-04-18T07:29:52.838Z</time></trkpt><trkpt lat="42.690985" lon="11.8440933"><ele>481.00000000000006</ele><time>2026-04-18T07:29:53.837Z</time></trkpt><trkpt lat="42.690925" lon="11.8441333"><ele>479.0</ele><time>2026-04-18T07:29:54.837Z</time></trkpt><trkpt lat="42.690835" lon="11.8442033"><ele>477.0</ele><time>2026-04-18T07:29:56.838Z</time></trkpt><trkpt lat="42.6907617" lon="11.8442683"><ele>478.8333333333333</ele><time>2026-04-18T07:29:58.837Z</time></trkpt><trkpt lat="42.6906433" lon="11.844325"><ele>480.66666666666663</ele><time>2026-04-18T07:30:00.838Z</time></trkpt><trkpt lat="42.6905717" lon="11.8443617"><ele>482.5</ele><time>2026-04-18T07:30:01.837Z</time></trkpt><trkpt lat="42.6904883" lon="11.84439"><ele>484.3333333333333</ele><time>2026-04-18T07:30:02.837Z</time></trkpt><trkpt lat="42.6904233" lon="11.844385"><ele>486.16666666666663</ele><time>2026-04-18T07:30:03.837Z</time></trkpt><trkpt lat="42.69036" lon="11.844375"><ele>488.0</ele><time>2026-04-18T07:30:04.837Z</time></trkpt><trkpt lat="42.6902883" lon="11.84436"><ele>488.3333333333333</ele><time>2026-04-18T07:30:05.837Z</time></trkpt><trkpt lat="42.6902083" lon="11.8443467"><ele>488.66666666666663</ele><time>2026-04-18T07:30:06.838Z</time></trkpt><trkpt lat="42.690125" lon="11.8443267"><ele>489.0</ele><time>2026-04-18T07:30:07.837Z</time></trkpt><trkpt lat="42.690045" lon="11.8443083"><ele>489.33333333333337</ele><time>2026-04-18T07:30:08.837Z</time></trkpt><trkpt lat="42.6899617" lon="11.8442817"><ele>489.6666666666667</ele><time>2026-04-18T07:30:09.838Z</time></trkpt><trkpt lat="42.6898733" lon="11.8442483"><ele>490.0</ele><time>2026-04-18T07:30:10.837Z</time></trkpt><trkpt lat="42.689775" lon="11.84422"><ele>490.2</ele><time>2026-04-18T07:30:11.837Z</time></trkpt><trkpt lat="42.68968" lon="11.8442"><ele>490.4</ele><time>2026-04-18T07:30:12.837Z</time></trkpt><trkpt lat="42.68959" lon="11.8441933"><ele>490.6</ele><time>2026-04-18T07:30:13.838Z</time></trkpt><trkpt lat="42.689495" lon="11.8441933"><ele>490.8</ele><time>2026-04-18T07:30:14.837Z</time></trkpt><trkpt lat="42.6893967" lon="11.8442367"><ele>491.0</ele><time>2026-04-18T07:30:15.837Z</time></trkpt><trkpt lat="42.689295" lon="11.8442983"><ele>491.0</ele><time>2026-04-18T07:30:16.837Z</time></trkpt><trkpt lat="42.68919" lon="11.844355"><ele>491.0</ele><time>2026-04-18T07:30:17.838Z</time></trkpt><trkpt lat="42.6890883" lon="11.8444117"><ele>491.0</ele><time>2026-04-18T07:30:18.837Z</time></trkpt><trkpt lat="42.6889933" lon="11.844465"><ele>491.0</ele><time>2026-04-18T07:30:19.837Z</time></trkpt><trkpt lat="42.6889067" lon="11.84451"><ele>491.0</ele><time>2026-04-18T07:30:20.837Z</time></trkpt><trkpt lat="42.6888167" lon="11.8445533"><ele>491.0</ele><time>2026-04-18T07:30:21.837Z</time></trkpt><trkpt lat="42.6887217" lon="11.8446083"><ele>491.0</ele><time>2026-04-18T07:30:22.837Z</time></trkpt><trkpt lat="42.688635" lon="11.8446633"><ele>491.0</ele><time>2026-04-18T07:30:23.838Z</time></trkpt><trkpt lat="42.6885483" lon="11.8447167"><ele>491.0</ele><time>2026-04-18T07:30:24.837Z</time></trkpt><trkpt lat="42.6884483" lon="11.8447417"><ele>491.0</ele><time>2026-04-18T07:30:25.838Z</time></trkpt><trkpt lat="42.6883533" lon="11.8447567"><ele>489.66666666666663</ele><time>2026-04-18T07:30:26.837Z</time></trkpt><trkpt lat="42.688265" lon="11.8447667"><ele>488.3333333333333</ele><time>2026-04-18T07:30:27.837Z</time></trkpt><trkpt lat="42.6881817" lon="11.8447633"><ele>487.0</ele><time>2026-04-18T07:30:28.838Z</time></trkpt><trkpt lat="42.6881183" lon="11.8447533"><ele>485.66666666666663</ele><time>2026-04-18T07:30:29.837Z</time></trkpt><trkpt lat="42.6880517" lon="11.8447283"><ele>484.3333333333333</ele><time>2026-04-18T07:30:30.838Z</time></trkpt><trkpt lat="42.6879833" lon="11.8446733"><ele>483.0</ele><time>2026-04-18T07:30:31.837Z</time></trkpt><trkpt lat="42.687935" lon="11.8445917"><ele>483.0</ele><time>2026-04-18T07:30:32.838Z</time></trkpt><trkpt lat="42.6879033" lon="11.8444483"><ele>482.99999999999994</ele><time>2026-04-18T07:30:33.837Z</time></trkpt><trkpt lat="42.6878767" lon="11.8442867"><ele>482.99999999999994</ele><time>2026-04-18T07:30:34.838Z</time></trkpt><trkpt lat="42.6878517" lon="11.8441383"><ele>483.0</ele><time>2026-04-18T07:30:35.838Z</time></trkpt><trkpt lat="42.6878317" lon="11.8440133"><ele>483.0</ele><time>2026-04-18T07:30:36.837Z</time></trkpt><trkpt lat="42.6878133" lon="11.8439167"><ele>482.0</ele><time>2026-04-18T07:30:37.837Z</time></trkpt><trkpt lat="42.6878433" lon="11.8437683"><ele>480.99999999999994</ele><time>2026-04-18T07:30:39.838Z</time></trkpt><trkpt lat="42.6878983" lon="11.8436967"><ele>479.99999999999994</ele><time>2026-04-18T07:30:40.838Z</time></trkpt><trkpt lat="42.6879933" lon="11.8436233"><ele>479.0</ele><time>2026-04-18T07:30:41.838Z</time></trkpt><trkpt lat="42.68809" lon="11.843535"><ele>478.0</ele><time>2026-04-18T07:30:42.837Z</time></trkpt><trkpt lat="42.6881933" lon="11.8434383"><ele>478.0</ele><time>2026-04-18T07:30:43.837Z</time></trkpt><trkpt lat="42.6882867" lon="11.8433733"><ele>477.99999999999994</ele><time>2026-04-18T07:30:44.837Z</time></trkpt><trkpt lat="42.6883867" lon="11.8433233"><ele>477.99999999999994</ele><time>2026-04-18T07:30:45.837Z</time></trkpt><trkpt lat="42.6884833" lon="11.8432733"><ele>478.0</ele><time>2026-04-18T07:30:46.838Z</time></trkpt><trkpt lat="42.6885817" lon="11.84323"><ele>478.0</ele><time>2026-04-18T07:30:47.838Z</time></trkpt><trkpt lat="42.688685" lon="11.8431833"><ele>476.0</ele><time>2026-04-18T07:30:48.838Z</time></trkpt><trkpt lat="42.6887967" lon="11.84313"><ele>474.0</ele><time>2026-04-18T07:30:49.837Z</time></trkpt><trkpt lat="42.6889083" lon="11.8430583"><ele>472.0</ele><time>2026-04-18T07:30:50.837Z</time></trkpt><trkpt lat="42.689015" lon="11.84299"><ele>470.0</ele><time>2026-04-18T07:30:51.838Z</time></trkpt><trkpt lat="42.68912" lon="11.8429317"><ele>469.99999999999994</ele><time>2026-04-18T07:30:52.837Z</time></trkpt><trkpt lat="42.689215" lon="11.842885"><ele>470.0</ele><time>2026-04-18T07:30:53.838Z</time></trkpt><trkpt lat="42.6893017" lon="11.8428333"><ele>470.0</ele><time>2026-04-18T07:30:54.837Z</time></trkpt><trkpt lat="42.6893783" lon="11.8427767"><ele>470.0</ele><time>2026-04-18T07:30:55.837Z</time></trkpt><trkpt lat="42.6894383" lon="11.8427117"><ele>469.99999999999994</ele><time>2026-04-18T07:30:56.837Z</time></trkpt><trkpt lat="42.6894717" lon="11.8426383"><ele>470.0</ele><time>2026-04-18T07:30:57.837Z</time></trkpt><trkpt lat="42.68948" lon="11.8424917"><ele>471.16666666666663</ele><time>2026-04-18T07:30:59.837Z</time></trkpt><trkpt lat="42.6893967" lon="11.8423667"><ele>472.3333333333333</ele><time>2026-04-18T07:31:01.838Z</time></trkpt><trkpt lat="42.68932" lon="11.8423283"><ele>473.5</ele><time>2026-04-18T07:31:02.838Z</time></trkpt><trkpt lat="42.6892217" lon="11.8423133"><ele>474.66666666666663</ele><time>2026-04-18T07:31:03.838Z</time></trkpt><trkpt lat="42.6891417" lon="11.8423117"><ele>475.8333333333333</ele><time>2026-04-18T07:31:04.837Z</time></trkpt><trkpt lat="42.6890783" lon="11.8423267"><ele>477.0</ele><time>2026-04-18T07:31:05.837Z</time></trkpt><trkpt lat="42.6890117" lon="11.8423533"><ele>477.0</ele><time>2026-04-18T07:31:06.837Z</time></trkpt><trkpt lat="42.6889383" lon="11.8423983"><ele>477.00000000000006</ele><time>2026-04-18T07:31:07.838Z</time></trkpt><trkpt lat="42.6888433" lon="11.842455"><ele>477.00000000000006</ele><time>2026-04-18T07:31:08.837Z</time></trkpt><trkpt lat="42.6887317" lon="11.84251"><ele>477.0</ele><time>2026-04-18T07:31:09.837Z</time></trkpt><trkpt lat="42.688615" lon="11.8425467"><ele>477.0</ele><time>2026-04-18T07:31:10.838Z</time></trkpt><trkpt lat="42.688505" lon="11.84257"><ele>478.6</ele><time>2026-04-18T07:31:11.838Z</time></trkpt><trkpt lat="42.688405" lon="11.8425767"><ele>480.20000000000005</ele><time>2026-04-18T07:31:12.837Z</time></trkpt><trkpt lat="42.6883283" lon="11.8425667"><ele>481.8</ele><time>2026-04-18T07:31:13.837Z</time></trkpt><trkpt lat="42.688255" lon="11.8425433"><ele>483.4</ele><time>2026-04-18T07:31:15.837Z</time></trkpt><trkpt lat="42.6883833" lon="11.8425517"><ele>485.0</ele><time>2026-04-18T07:31:30.837Z</time></trkpt><trkpt lat="42.6884733" lon="11.84256"><ele>484.99999999999994</ele><time>2026-04-18T07:31:31.838Z</time></trkpt><trkpt lat="42.68855" lon="11.8425567"><ele>485.0</ele><time>2026-04-18T07:31:32.837Z</time></trkpt><trkpt lat="42.6886117" lon="11.84253"><ele>485.0</ele><time>2026-04-18T07:31:33.837Z</time></trkpt><trkpt lat="42.6886833" lon="11.8424917"><ele>485.0</ele><time>2026-04-18T07:31:34.838Z</time></trkpt><trkpt lat="42.6887683" lon="11.8424367"><ele>484.99999999999994</ele><time>2026-04-18T07:31:35.838Z</time></trkpt><trkpt lat="42.6888417" lon="11.8423867"><ele>485.0</ele><time>2026-04-18T07:31:36.837Z</time></trkpt><trkpt lat="42.6889017" lon="11.842355"><ele>484.99999999999994</ele><time>2026-04-18T07:31:37.838Z</time></trkpt><trkpt lat="42.6889667" lon="11.84232"><ele>485.0</ele><time>2026-04-18T07:31:39.838Z</time></trkpt><trkpt lat="42.688935" lon="11.84224"><ele>485.0</ele><time>2026-04-18T07:31:43.838Z</time></trkpt><trkpt lat="42.6888133" lon="11.842175"><ele>485.0</ele><time>2026-04-18T07:31:45.838Z</time></trkpt><trkpt lat="42.688745" lon="11.842135"><ele>484.99999999999994</ele><time>2026-04-18T07:31:46.838Z</time></trkpt><trkpt lat="42.6886867" lon="11.8420967"><ele>485.0</ele><time>2026-04-18T07:31:47.838Z</time></trkpt><trkpt lat="42.6885833" lon="11.842025"><ele>484.99999999999994</ele><time>2026-04-18T07:31:49.837Z</time></trkpt><trkpt lat="42.6884717" lon="11.8419583"><ele>485.0</ele><time>2026-04-18T07:31:51.837Z</time></trkpt><trkpt lat="42.6884083" lon="11.8419317"><ele>485.0</ele><time>2026-04-18T07:31:52.837Z</time></trkpt><trkpt lat="42.688345" lon="11.8419017"><ele>485.0</ele><time>2026-04-18T07:31:53.837Z</time></trkpt><trkpt lat="42.6882783" lon="11.8418783"><ele>484.99999999999994</ele><time>2026-04-18T07:31:54.838Z</time></trkpt><trkpt lat="42.6882117" lon="11.8418567"><ele>485.0</ele><time>2026-04-18T07:31:55.838Z</time></trkpt><trkpt lat="42.6880933" lon="11.841805"><ele>483.6</ele><time>2026-04-18T07:31:57.838Z</time></trkpt><trkpt lat="42.68803" lon="11.8417833"><ele>482.2</ele><time>2026-04-18T07:31:58.838Z</time></trkpt><trkpt lat="42.6879217" lon="11.8417333"><ele>480.79999999999995</ele><time>2026-04-18T07:32:00.837Z</time></trkpt><trkpt lat="42.687825" lon="11.8416883"><ele>479.4</ele><time>2026-04-18T07:32:02.837Z</time></trkpt><trkpt lat="42.6877067" lon="11.8416417"><ele>478.0</ele><time>2026-04-18T07:32:04.837Z</time></trkpt><trkpt lat="42.687585" lon="11.8415967"><ele>478.00000000000006</ele><time>2026-04-18T07:32:06.838Z</time></trkpt><trkpt lat="42.6875217" lon="11.8415417"><ele>478.0</ele><time>2026-04-18T07:32:07.838Z</time></trkpt><trkpt lat="42.6874517" lon="11.8414733"><ele>478.0</ele><time>2026-04-18T07:32:08.837Z</time></trkpt><trkpt lat="42.6873867" lon="11.8413817"><ele>478.0</ele><time>2026-04-18T07:32:09.837Z</time></trkpt><trkpt lat="42.68734" lon="11.8412783"><ele>478.00000000000006</ele><time>2026-04-18T07:32:10.837Z</time></trkpt><trkpt lat="42.6872867" lon="11.8411567"><ele>478.0</ele><time>2026-04-18T07:32:11.838Z</time></trkpt><trkpt lat="42.6872317" lon="11.8410233"><ele>476.79999999999995</ele><time>2026-04-18T07:32:12.838Z</time></trkpt><trkpt lat="42.6871817" lon="11.84091"><ele>475.59999999999997</ele><time>2026-04-18T07:32:13.837Z</time></trkpt><trkpt lat="42.6871483" lon="11.8408083"><ele>474.40000000000003</ele><time>2026-04-18T07:32:14.837Z</time></trkpt><trkpt lat="42.6871333" lon="11.8407133"><ele>473.20000000000005</ele><time>2026-04-18T07:32:15.838Z</time></trkpt><trkpt lat="42.6871367" lon="11.8405767"><ele>472.0</ele><time>2026-04-18T07:32:16.837Z</time></trkpt><trkpt lat="42.6871333" lon="11.84041"><ele>472.0</ele><time>2026-04-18T07:32:17.837Z</time></trkpt><trkpt lat="42.6871217" lon="11.8402217"><ele>472.0</ele><time>2026-04-18T07:32:18.838Z</time></trkpt><trkpt lat="42.6870917" lon="11.840035"><ele>472.0</ele><time>2026-04-18T07:32:19.838Z</time></trkpt><trkpt lat="42.6870533" lon="11.8398617"><ele>472.0</ele><time>2026-04-18T07:32:20.838Z</time></trkpt><trkpt lat="42.6870067" lon="11.83969"><ele>473.25</ele><time>2026-04-18T07:32:21.837Z</time></trkpt><trkpt lat="42.6869583" lon="11.83952"><ele>474.5</ele><time>2026-04-18T07:32:22.838Z</time></trkpt><trkpt lat="42.6868967" lon="11.8393667"><ele>475.75</ele><time>2026-04-18T07:32:23.837Z</time></trkpt><trkpt lat="42.68684" lon="11.8392183"><ele>477.0</ele><time>2026-04-18T07:32:24.837Z</time></trkpt><trkpt lat="42.6867817" lon="11.8390767"><ele>480.75</ele><time>2026-04-18T07:32:25.838Z</time></trkpt><trkpt lat="42.686715" lon="11.8389533"><ele>484.5</ele><time>2026-04-18T07:32:26.837Z</time></trkpt><trkpt lat="42.686645" lon="11.8388233"><ele>488.25</ele><time>2026-04-18T07:32:27.837Z</time></trkpt><trkpt lat="42.6865667" lon="11.8387"><ele>492.0</ele><time>2026-04-18T07:32:28.838Z</time></trkpt><trkpt lat="42.68648" lon="11.83857"><ele>494.20000000000005</ele><time>2026-04-18T07:32:29.837Z</time></trkpt><trkpt lat="42.6864033" lon="11.8384383"><ele>496.40000000000003</ele><time>2026-04-18T07:32:30.837Z</time></trkpt><trkpt lat="42.6863417" lon="11.8383133"><ele>498.59999999999997</ele><time>2026-04-18T07:32:31.837Z</time></trkpt><trkpt lat="42.68629" lon="11.8382083"><ele>500.79999999999995</ele><time>2026-04-18T07:32:32.837Z</time></trkpt><trkpt lat="42.6862417" lon="11.8381067"><ele>503.0</ele><time>2026-04-18T07:32:33.838Z</time></trkpt><trkpt lat="42.686185" lon="11.838015"><ele>503.0</ele><time>2026-04-18T07:32:34.837Z</time></trkpt><trkpt lat="42.6861383" lon="11.8379233"><ele>503.00000000000006</ele><time>2026-04-18T07:32:35.837Z</time></trkpt><trkpt lat="42.68611" lon="11.8378417"><ele>503.0</ele><time>2026-04-18T07:32:36.838Z</time></trkpt><trkpt lat="42.6861" lon="11.8377417"><ele>503.0</ele><time>2026-04-18T07:32:38.837Z</time></trkpt><trkpt lat="42.6860367" lon="11.8376767"><ele>503.00000000000006</ele><time>2026-04-18T07:32:42.837Z</time></trkpt><trkpt lat="42.685975" lon="11.8376467"><ele>503.0</ele><time>2026-04-18T07:32:43.837Z</time></trkpt><trkpt lat="42.6859" lon="11.83761"><ele>503.0</ele><time>2026-04-18T07:32:44.838Z</time></trkpt><trkpt lat="42.6858033" lon="11.8375467"><ele>503.75</ele><time>2026-04-18T07:32:45.837Z</time></trkpt><trkpt lat="42.68569" lon="11.837465"><ele>504.5</ele><time>2026-04-18T07:32:46.837Z</time></trkpt><trkpt lat="42.68557" lon="11.8373833"><ele>505.25</ele><time>2026-04-18T07:32:47.837Z</time></trkpt><trkpt lat="42.6854533" lon="11.8372933"><ele>506.0</ele><time>2026-04-18T07:32:48.838Z</time></trkpt><trkpt lat="42.6853467" lon="11.8371967"><ele>504.8</ele><time>2026-04-18T07:32:49.837Z</time></trkpt><trkpt lat="42.6852467" lon="11.8371017"><ele>503.6</ele><time>2026-04-18T07:32:50.837Z</time></trkpt><trkpt lat="42.6851533" lon="11.8370233"><ele>502.4</ele><time>2026-04-18T07:32:51.837Z</time></trkpt><trkpt lat="42.685065" lon="11.8369683"><ele>501.2</ele><time>2026-04-18T07:32:52.837Z</time></trkpt><trkpt lat="42.684965" lon="11.83693"><ele>500.0</ele><time>2026-04-18T07:32:53.837Z</time></trkpt><trkpt lat="42.68488" lon="11.8368933"><ele>500.0</ele><time>2026-04-18T07:32:54.837Z</time></trkpt><trkpt lat="42.6847833" lon="11.8368333"><ele>500.0</ele><time>2026-04-18T07:32:55.837Z</time></trkpt><trkpt lat="42.6846817" lon="11.8367633"><ele>500.0</ele><time>2026-04-18T07:32:56.837Z</time></trkpt><trkpt lat="42.6845633" lon="11.8366933"><ele>500.0</ele><time>2026-04-18T07:32:57.837Z</time></trkpt><trkpt lat="42.6844417" lon="11.8366317"><ele>502.25</ele><time>2026-04-18T07:32:58.838Z</time></trkpt><trkpt lat="42.68433" lon="11.836575"><ele>504.5</ele><time>2026-04-18T07:32:59.838Z</time></trkpt><trkpt lat="42.68422" lon="11.836535"><ele>506.75</ele><time>2026-04-18T07:33:00.838Z</time></trkpt><trkpt lat="42.6840917" lon="11.8364933"><ele>509.0</ele><time>2026-04-18T07:33:01.838Z</time></trkpt><trkpt lat="42.683955" lon="11.8364467"><ele>509.0</ele><time>2026-04-18T07:33:02.837Z</time></trkpt><trkpt lat="42.68381" lon="11.836395"><ele>509.0</ele><time>2026-04-18T07:33:03.837Z</time></trkpt><trkpt lat="42.6836717" lon="11.8363483"><ele>509.0</ele><time>2026-04-18T07:33:04.837Z</time></trkpt><trkpt lat="42.6835433" lon="11.83629"><ele>509.0</ele><time>2026-04-18T07:33:05.838Z</time></trkpt><trkpt lat="42.683425" lon="11.83624"><ele>506.3333333333333</ele><time>2026-04-18T07:33:06.838Z</time></trkpt><trkpt lat="42.6833" lon="11.836165"><ele>503.66666666666663</ele><time>2026-04-18T07:33:07.837Z</time></trkpt><trkpt lat="42.6831667" lon="11.836075"><ele>501.0</ele><time>2026-04-18T07:33:08.838Z</time></trkpt><trkpt lat="42.6830183" lon="11.835975"><ele>503.0</ele><time>2026-04-18T07:33:09.837Z</time></trkpt><trkpt lat="42.6828833" lon="11.835885"><ele>505.0</ele><time>2026-04-18T07:33:10.837Z</time></trkpt><trkpt lat="42.68276" lon="11.835815"><ele>507.0</ele><time>2026-04-18T07:33:11.838Z</time></trkpt><trkpt lat="42.682645" lon="11.8357583"><ele>509.0</ele><time>2026-04-18T07:33:12.838Z</time></trkpt><trkpt lat="42.68254" lon="11.8357167"><ele>509.0</ele><time>2026-04-18T07:33:13.838Z</time></trkpt><trkpt lat="42.6824417" lon="11.83569"><ele>509.0</ele><time>2026-04-18T07:33:14.838Z</time></trkpt><trkpt lat="42.6823217" lon="11.8356717"><ele>509.0</ele><time>2026-04-18T07:33:15.837Z</time></trkpt><trkpt lat="42.68219" lon="11.8356533"><ele>509.0</ele><time>2026-04-18T07:33:16.837Z</time></trkpt><trkpt lat="42.68205" lon="11.8356317"><ele>508.66666666666663</ele><time>2026-04-18T07:33:17.837Z</time></trkpt><trkpt lat="42.6818933" lon="11.835605"><ele>508.33333333333337</ele><time>2026-04-18T07:33:18.837Z</time></trkpt><trkpt lat="42.681725" lon="11.8355817"><ele>508.0</ele><time>2026-04-18T07:33:19.838Z</time></trkpt><trkpt lat="42.68157" lon="11.8355583"><ele>508.0</ele><time>2026-04-18T07:33:20.838Z</time></trkpt><trkpt lat="42.6814217" lon="11.8355333"><ele>508.0</ele><time>2026-04-18T07:33:21.838Z</time></trkpt><trkpt lat="42.6812883" lon="11.8355133"><ele>508.0</ele><time>2026-04-18T07:33:22.838Z</time></trkpt><trkpt lat="42.681145" lon="11.8354883"><ele>508.0</ele><time>2026-04-18T07:33:23.838Z</time></trkpt><trkpt lat="42.6809933" lon="11.835465"><ele>508.0</ele><time>2026-04-18T07:33:24.838Z</time></trkpt><trkpt lat="42.6808433" lon="11.835435"><ele>508.0</ele><time>2026-04-18T07:33:25.837Z</time></trkpt><trkpt lat="42.680695" lon="11.8354033"><ele>508.0</ele><time>2026-04-18T07:33:26.838Z</time></trkpt><trkpt lat="42.6805683" lon="11.8353667"><ele>508.0</ele><time>2026-04-18T07:33:27.838Z</time></trkpt><trkpt lat="42.68046" lon="11.8353317"><ele>508.0</ele><time>2026-04-18T07:33:28.837Z</time></trkpt><trkpt lat="42.6803583" lon="11.8352767"><ele>507.99999999999994</ele><time>2026-04-18T07:33:29.837Z</time></trkpt><trkpt lat="42.6802583" lon="11.835215"><ele>507.99999999999994</ele><time>2026-04-18T07:33:30.837Z</time></trkpt><trkpt lat="42.680165" lon="11.8351667"><ele>508.0</ele><time>2026-04-18T07:33:31.837Z</time></trkpt><trkpt lat="42.68008" lon="11.8351283"><ele>508.0</ele><time>2026-04-18T07:33:32.837Z</time></trkpt><trkpt lat="42.6799967" lon="11.8350783"><ele>508.75</ele><time>2026-04-18T07:33:33.837Z</time></trkpt><trkpt lat="42.679895" lon="11.8350317"><ele>509.5</ele><time>2026-04-18T07:33:34.838Z</time></trkpt><trkpt lat="42.6797767" lon="11.8349733"><ele>510.25</ele><time>2026-04-18T07:33:35.837Z</time></trkpt><trkpt lat="42.6796467" lon="11.8348967"><ele>511.0</ele><time>2026-04-18T07:33:36.837Z</time></trkpt><trkpt lat="42.6794983" lon="11.83479"><ele>510.6666666666667</ele><time>2026-04-18T07:33:37.838Z</time></trkpt><trkpt lat="42.6793333" lon="11.8346783"><ele>510.33333333333337</ele><time>2026-04-18T07:33:38.837Z</time></trkpt><trkpt lat="42.67918" lon="11.8345733"><ele>510.0</ele><time>2026-04-18T07:33:39.837Z</time></trkpt><trkpt lat="42.6790383" lon="11.8344783"><ele>510.0</ele><time>2026-04-18T07:33:40.837Z</time></trkpt><trkpt lat="42.678895" lon="11.83438"><ele>510.0</ele><time>2026-04-18T07:33:41.838Z</time></trkpt><trkpt lat="42.67875" lon="11.8342967"><ele>510.0</ele><time>2026-04-18T07:33:42.838Z</time></trkpt><trkpt lat="42.6786033" lon="11.834215"><ele>511.0</ele><time>2026-04-18T07:33:43.837Z</time></trkpt><trkpt lat="42.6784467" lon="11.8341367"><ele>512.0</ele><time>2026-04-18T07:33:44.837Z</time></trkpt><trkpt lat="42.6782817" lon="11.8340617"><ele>513.0</ele><time>2026-04-18T07:33:45.838Z</time></trkpt><trkpt lat="42.6781233" lon="11.8339817"><ele>513.0</ele><time>2026-04-18T07:33:46.838Z</time></trkpt><trkpt lat="42.677985" lon="11.83391"><ele>513.0</ele><time>2026-04-18T07:33:47.837Z</time></trkpt><trkpt lat="42.6778583" lon="11.8338383"><ele>513.0</ele><time>2026-04-18T07:33:48.837Z</time></trkpt><trkpt lat="42.6777217" lon="11.83375"><ele>513.0</ele><time>2026-04-18T07:33:49.837Z</time></trkpt><trkpt lat="42.6775883" lon="11.833665"><ele>512.25</ele><time>2026-04-18T07:33:50.838Z</time></trkpt><trkpt lat="42.67747" lon="11.833585"><ele>511.5</ele><time>2026-04-18T07:33:51.837Z</time></trkpt><trkpt lat="42.6773683" lon="11.8335283"><ele>510.75</ele><time>2026-04-18T07:33:52.837Z</time></trkpt><trkpt lat="42.677265" lon="11.8334867"><ele>510.0</ele><time>2026-04-18T07:33:53.837Z</time></trkpt><trkpt lat="42.677155" lon="11.8334483"><ele>511.25</ele><time>2026-04-18T07:33:54.837Z</time></trkpt><trkpt lat="42.6770233" lon="11.8334183"><ele>512.5</ele><time>2026-04-18T07:33:55.838Z</time></trkpt><trkpt lat="42.676895" lon="11.8333783"><ele>513.75</ele><time>2026-04-18T07:33:56.837Z</time></trkpt><trkpt lat="42.6767667" lon="11.83332"><ele>515.0</ele><time>2026-04-18T07:33:57.838Z</time></trkpt><trkpt lat="42.676635" lon="11.83325"><ele>515.0</ele><time>2026-04-18T07:33:58.837Z</time></trkpt><trkpt lat="42.67651" lon="11.8331817"><ele>515.0</ele><time>2026-04-18T07:33:59.837Z</time></trkpt><trkpt lat="42.6764067" lon="11.833145"><ele>515.0</ele><time>2026-04-18T07:34:00.837Z</time></trkpt><trkpt lat="42.676285" lon="11.8331067"><ele>515.0</ele><time>2026-04-18T07:34:01.837Z</time></trkpt><trkpt lat="42.67613" lon="11.8330783"><ele>515.0</ele><time>2026-04-18T07:34:02.837Z</time></trkpt><trkpt lat="42.675955" lon="11.8330583"><ele>515.0</ele><time>2026-04-18T07:34:03.837Z</time></trkpt><trkpt lat="42.6758083" lon="11.8330367"><ele>515.0</ele><time>2026-04-18T07:34:04.838Z</time></trkpt><trkpt lat="42.6756717" lon="11.83302"><ele>515.0</ele><time>2026-04-18T07:34:05.837Z</time></trkpt><trkpt lat="42.67553" lon="11.832985"><ele>515.0</ele><time>2026-04-18T07:34:06.838Z</time></trkpt><trkpt lat="42.6754" lon="11.8329483"><ele>515.0</ele><time>2026-04-18T07:34:07.837Z</time></trkpt><trkpt lat="42.6752633" lon="11.8328967"><ele>515.0</ele><time>2026-04-18T07:34:08.838Z</time></trkpt><trkpt lat="42.675105" lon="11.8328233"><ele>514.0</ele><time>2026-04-18T07:34:09.838Z</time></trkpt><trkpt lat="42.6749467" lon="11.83274"><ele>513.0</ele><time>2026-04-18T07:34:10.837Z</time></trkpt><trkpt lat="42.674795" lon="11.8326583"><ele>512.0</ele><time>2026-04-18T07:34:11.837Z</time></trkpt><trkpt lat="42.674675" lon="11.8326017"><ele>512.8000000000001</ele><time>2026-04-18T07:34:12.838Z</time></trkpt><trkpt lat="42.6745867" lon="11.8325483"><ele>513.6</ele><time>2026-04-18T07:34:13.838Z</time></trkpt><trkpt lat="42.6745133" lon="11.8325117"><ele>514.4000000000001</ele><time>2026-04-18T07:34:14.838Z</time></trkpt><trkpt lat="42.674435" lon="11.832435"><ele>515.2</ele><time>2026-04-18T07:34:16.838Z</time></trkpt><trkpt lat="42.6744817" lon="11.8323433"><ele>516.0</ele><time>2026-04-18T07:34:19.837Z</time></trkpt><trkpt lat="42.6745917" lon="11.832295"><ele>516.4</ele><time>2026-04-18T07:34:21.837Z</time></trkpt><trkpt lat="42.674675" lon="11.8322633"><ele>516.8</ele><time>2026-04-18T07:34:22.836Z</time></trkpt><trkpt lat="42.67477" lon="11.8322183"><ele>517.1999999999999</ele><time>2026-04-18T07:34:23.836Z</time></trkpt><trkpt lat="42.6748767" lon="11.832155"><ele>517.6</ele><time>2026-04-18T07:34:24.836Z</time></trkpt><trkpt lat="42.6749767" lon="11.8320667"><ele>518.0</ele><time>2026-04-18T07:34:25.837Z</time></trkpt><trkpt lat="42.675045" lon="11.8319417"><ele>518.0</ele><time>2026-04-18T07:34:26.837Z</time></trkpt><trkpt lat="42.67508" lon="11.831795"><ele>518.0</ele><time>2026-04-18T07:34:27.836Z</time></trkpt><trkpt lat="42.6750967" lon="11.8316533"><ele>518.0</ele><time>2026-04-18T07:34:28.837Z</time></trkpt><trkpt lat="42.67509" lon="11.8315117"><ele>518.0</ele><time>2026-04-18T07:34:29.837Z</time></trkpt><trkpt lat="42.6750733" lon="11.8313717"><ele>518.0</ele><time>2026-04-18T07:34:30.836Z</time></trkpt><trkpt lat="42.6750517" lon="11.8312383"><ele>518.0</ele><time>2026-04-18T07:34:31.836Z</time></trkpt><trkpt lat="42.6750267" lon="11.83112"><ele>518.0</ele><time>2026-04-18T07:34:32.836Z</time></trkpt><trkpt lat="42.6750033" lon="11.8310033"><ele>518.0</ele><time>2026-04-18T07:34:33.837Z</time></trkpt><trkpt lat="42.674985" lon="11.830905"><ele>518.0</ele><time>2026-04-18T07:34:34.837Z</time></trkpt><trkpt lat="42.6749667" lon="11.8308033"><ele>518.0</ele><time>2026-04-18T07:34:35.836Z</time></trkpt><trkpt lat="42.6749583" lon="11.830705"><ele>518.0</ele><time>2026-04-18T07:34:36.836Z</time></trkpt><trkpt lat="42.6749617" lon="11.8306183"><ele>517.8</ele><time>2026-04-18T07:34:37.837Z</time></trkpt><trkpt lat="42.674945" lon="11.83047"><ele>517.5999999999999</ele><time>2026-04-18T07:34:39.837Z</time></trkpt><trkpt lat="42.6748983" lon="11.8303267"><ele>517.4000000000001</ele><time>2026-04-18T07:34:41.836Z</time></trkpt><trkpt lat="42.6747917" lon="11.83021"><ele>517.2</ele><time>2026-04-18T07:34:43.837Z</time></trkpt><trkpt lat="42.6747167" lon="11.8301717"><ele>517.0</ele><time>2026-04-18T07:34:44.837Z</time></trkpt><trkpt lat="42.6746167" lon="11.830155"><ele>517.0</ele><time>2026-04-18T07:34:45.836Z</time></trkpt><trkpt lat="42.6745233" lon="11.8301383"><ele>517.0</ele><time>2026-04-18T07:34:46.836Z</time></trkpt><trkpt lat="42.6744367" lon="11.830125"><ele>517.0</ele><time>2026-04-18T07:34:47.836Z</time></trkpt><trkpt lat="42.674345" lon="11.8300983"><ele>517.0</ele><time>2026-04-18T07:34:48.837Z</time></trkpt><trkpt lat="42.6742717" lon="11.8300817"><ele>517.0</ele><time>2026-04-18T07:34:49.836Z</time></trkpt><trkpt lat="42.674205" lon="11.8300683"><ele>517.0</ele><time>2026-04-18T07:34:50.836Z</time></trkpt><trkpt lat="42.6740983" lon="11.8300083"><ele>517.0</ele><time>2026-04-18T07:34:52.837Z</time></trkpt><trkpt lat="42.6740067" lon="11.829915"><ele>517.0</ele><time>2026-04-18T07:34:54.836Z</time></trkpt><trkpt lat="42.673955" lon="11.829855"><ele>517.0</ele><time>2026-04-18T07:34:55.836Z</time></trkpt><trkpt lat="42.673905" lon="11.8297867"><ele>517.0</ele><time>2026-04-18T07:34:56.836Z</time></trkpt><trkpt lat="42.6738567" lon="11.82972"><ele>517.0</ele><time>2026-04-18T07:34:57.837Z</time></trkpt><trkpt lat="42.6738067" lon="11.829645"><ele>517.0</ele><time>2026-04-18T07:34:58.837Z</time></trkpt><trkpt lat="42.6737617" lon="11.8295483"><ele>517.0</ele><time>2026-04-18T07:34:59.837Z</time></trkpt><trkpt lat="42.67372" lon="11.82943"><ele>517.0</ele><time>2026-04-18T07:35:00.837Z</time></trkpt><trkpt lat="42.6736983" lon="11.8293083"><ele>517.0</ele><time>2026-04-18T07:35:01.837Z</time></trkpt><trkpt lat="42.673695" lon="11.829195"><ele>517.0</ele><time>2026-04-18T07:35:02.836Z</time></trkpt><trkpt lat="42.6737017" lon="11.8291"><ele>517.0</ele><time>2026-04-18T07:35:03.836Z</time></trkpt><trkpt lat="42.6737383" lon="11.8290033"><ele>517.0</ele><time>2026-04-18T07:35:04.836Z</time></trkpt><trkpt lat="42.6737833" lon="11.8289267"><ele>517.0</ele><time>2026-04-18T07:35:05.836Z</time></trkpt><trkpt lat="42.673855" lon="11.82885"><ele>517.0</ele><time>2026-04-18T07:35:06.836Z</time></trkpt><trkpt lat="42.6739467" lon="11.8287867"><ele>517.0</ele><time>2026-04-18T07:35:07.837Z</time></trkpt><trkpt lat="42.6740533" lon="11.8287233"><ele>517.0</ele><time>2026-04-18T07:35:08.836Z</time></trkpt><trkpt lat="42.6741767" lon="11.8286583"><ele>517.0</ele><time>2026-04-18T07:35:09.836Z</time></trkpt><trkpt lat="42.67431" lon="11.8286017"><ele>518.25</ele><time>2026-04-18T07:35:10.836Z</time></trkpt><trkpt lat="42.6744483" lon="11.8285583"><ele>519.5</ele><time>2026-04-18T07:35:11.836Z</time></trkpt><trkpt lat="42.6745833" lon="11.8285217"><ele>520.75</ele><time>2026-04-18T07:35:12.836Z</time></trkpt><trkpt lat="42.6747183" lon="11.8284783"><ele>522.0</ele><time>2026-04-18T07:35:13.837Z</time></trkpt><trkpt lat="42.67485" lon="11.8284483"><ele>516.3333333333334</ele><time>2026-04-18T07:35:14.836Z</time></trkpt><trkpt lat="42.6750033" lon="11.8283983"><ele>510.6666666666667</ele><time>2026-04-18T07:35:15.836Z</time></trkpt><trkpt lat="42.6751583" lon="11.8283517"><ele>505.0</ele><time>2026-04-18T07:35:16.837Z</time></trkpt><trkpt lat="42.67529" lon="11.8283117"><ele>504.2</ele><time>2026-04-18T07:35:17.836Z</time></trkpt><trkpt lat="42.6754033" lon="11.82827"><ele>503.4</ele><time>2026-04-18T07:35:18.837Z</time></trkpt><trkpt lat="42.67551" lon="11.8282317"><ele>502.6</ele><time>2026-04-18T07:35:19.837Z</time></trkpt><trkpt lat="42.67561" lon="11.8282083"><ele>501.8</ele><time>2026-04-18T07:35:20.836Z</time></trkpt><trkpt lat="42.6757217" lon="11.828205"><ele>501.0</ele><time>2026-04-18T07:35:21.836Z</time></trkpt><trkpt lat="42.6758333" lon="11.82822"><ele>501.0</ele><time>2026-04-18T07:35:22.836Z</time></trkpt><trkpt lat="42.675955" lon="11.82823"><ele>501.0</ele><time>2026-04-18T07:35:23.837Z</time></trkpt><trkpt lat="42.6760817" lon="11.8282483"><ele>501.0</ele><time>2026-04-18T07:35:24.837Z</time></trkpt><trkpt lat="42.676205" lon="11.8282633"><ele>501.0</ele><time>2026-04-18T07:35:25.836Z</time></trkpt><trkpt lat="42.6763167" lon="11.8282767"><ele>500.6666666666667</ele><time>2026-04-18T07:35:26.837Z</time></trkpt><trkpt lat="42.6764217" lon="11.8282817"><ele>500.33333333333337</ele><time>2026-04-18T07:35:27.836Z</time></trkpt><trkpt lat="42.67651" lon="11.828265"><ele>500.0</ele><time>2026-04-18T07:35:28.836Z</time></trkpt><trkpt lat="42.67658" lon="11.8282167"><ele>499.6666666666667</ele><time>2026-04-18T07:35:29.836Z</time></trkpt><trkpt lat="42.6766233" lon="11.8281267"><ele>499.33333333333337</ele><time>2026-04-18T07:35:30.836Z</time></trkpt><trkpt lat="42.6766567" lon="11.8280167"><ele>499.0</ele><time>2026-04-18T07:35:31.836Z</time></trkpt><trkpt lat="42.6766717" lon="11.8278517"><ele>496.5</ele><time>2026-04-18T07:35:32.836Z</time></trkpt><trkpt lat="42.6766733" lon="11.8276433"><ele>494.0</ele><time>2026-04-18T07:35:33.836Z</time></trkpt><trkpt lat="42.6766933" lon="11.82745"><ele>491.5</ele><time>2026-04-18T07:35:34.837Z</time></trkpt><trkpt lat="42.67671" lon="11.8272767"><ele>489.0</ele><time>2026-04-18T07:35:35.837Z</time></trkpt><trkpt lat="42.6767267" lon="11.82713"><ele>489.0</ele><time>2026-04-18T07:35:36.836Z</time></trkpt><trkpt lat="42.6767233" lon="11.8269933"><ele>489.0</ele><time>2026-04-18T07:35:37.836Z</time></trkpt><trkpt lat="42.6766917" lon="11.8268467"><ele>489.0</ele><time>2026-04-18T07:35:38.837Z</time></trkpt><trkpt lat="42.6766517" lon="11.8266983"><ele>489.0</ele><time>2026-04-18T07:35:39.837Z</time></trkpt><trkpt lat="42.6766033" lon="11.826535"><ele>490.25</ele><time>2026-04-18T07:35:40.837Z</time></trkpt><trkpt lat="42.676565" lon="11.82637"><ele>491.5</ele><time>2026-04-18T07:35:41.836Z</time></trkpt><trkpt lat="42.6765267" lon="11.8262183"><ele>492.75</ele><time>2026-04-18T07:35:42.836Z</time></trkpt><trkpt lat="42.67649" lon="11.82607"><ele>494.0</ele><time>2026-04-18T07:35:43.837Z</time></trkpt><trkpt lat="42.676445" lon="11.8259567"><ele>496.75</ele><time>2026-04-18T07:35:44.837Z</time></trkpt><trkpt lat="42.6763883" lon="11.8258433"><ele>499.5</ele><time>2026-04-18T07:35:45.836Z</time></trkpt><trkpt lat="42.6763233" lon="11.8257117"><ele>502.25</ele><time>2026-04-18T07:35:46.837Z</time></trkpt><trkpt lat="42.6762483" lon="11.82556"><ele>505.0</ele><time>2026-04-18T07:35:47.837Z</time></trkpt><trkpt lat="42.6761767" lon="11.8254083"><ele>505.0</ele><time>2026-04-18T07:35:48.836Z</time></trkpt><trkpt lat="42.6761133" lon="11.8252667"><ele>505.0</ele><time>2026-04-18T07:35:49.836Z</time></trkpt><trkpt lat="42.6760383" lon="11.8251167"><ele>505.0</ele><time>2026-04-18T07:35:50.837Z</time></trkpt><trkpt lat="42.6759733" lon="11.8249517"><ele>505.0</ele><time>2026-04-18T07:35:51.837Z</time></trkpt><trkpt lat="42.67589" lon="11.8247717"><ele>505.0</ele><time>2026-04-18T07:35:52.837Z</time></trkpt><trkpt lat="42.6758233" lon="11.82459"><ele>505.0</ele><time>2026-04-18T07:35:53.836Z</time></trkpt><trkpt lat="42.6757417" lon="11.8244233"><ele>505.0</ele><time>2026-04-18T07:35:54.837Z</time></trkpt><trkpt lat="42.6756767" lon="11.8242733"><ele>505.0</ele><time>2026-04-18T07:35:55.837Z</time></trkpt><trkpt lat="42.6756183" lon="11.8241283"><ele>506.5</ele><time>2026-04-18T07:35:56.836Z</time></trkpt><trkpt lat="42.6755383" lon="11.8240033"><ele>508.0</ele><time>2026-04-18T07:35:57.836Z</time></trkpt><trkpt lat="42.675455" lon="11.823925"><ele>509.5</ele><time>2026-04-18T07:35:58.837Z</time></trkpt><trkpt lat="42.6753617" lon="11.8238433"><ele>511.0</ele><time>2026-04-18T07:35:59.837Z</time></trkpt><trkpt lat="42.6752567" lon="11.8237567"><ele>511.20000000000005</ele><time>2026-04-18T07:36:00.837Z</time></trkpt><trkpt lat="42.675145" lon="11.82368"><ele>511.40000000000003</ele><time>2026-04-18T07:36:01.837Z</time></trkpt><trkpt lat="42.6750483" lon="11.8236133"><ele>511.6</ele><time>2026-04-18T07:36:02.836Z</time></trkpt><trkpt lat="42.6749767" lon="11.8235433"><ele>511.8</ele><time>2026-04-18T07:36:03.836Z</time></trkpt><trkpt lat="42.6749117" lon="11.8234717"><ele>512.0</ele><time>2026-04-18T07:36:04.836Z</time></trkpt><trkpt lat="42.67486" lon="11.8234017"><ele>512.8333333333333</ele><time>2026-04-18T07:36:05.837Z</time></trkpt><trkpt lat="42.6748183" lon="11.82331"><ele>513.6666666666666</ele><time>2026-04-18T07:36:06.837Z</time></trkpt><trkpt lat="42.6748117" lon="11.8232017"><ele>514.5</ele><time>2026-04-18T07:36:07.836Z</time></trkpt><trkpt lat="42.6748183" lon="11.8230817"><ele>515.3333333333334</ele><time>2026-04-18T07:36:08.836Z</time></trkpt><trkpt lat="42.6748433" lon="11.8229483"><ele>516.1666666666667</ele><time>2026-04-18T07:36:09.836Z</time></trkpt><trkpt lat="42.67487" lon="11.822825"><ele>517.0</ele><time>2026-04-18T07:36:10.837Z</time></trkpt><trkpt lat="42.67491" lon="11.8226917"><ele>515.0</ele><time>2026-04-18T07:36:11.837Z</time></trkpt><trkpt lat="42.6749633" lon="11.8225483"><ele>513.0</ele><time>2026-04-18T07:36:12.836Z</time></trkpt><trkpt lat="42.6750267" lon="11.8223867"><ele>511.0</ele><time>2026-04-18T07:36:13.837Z</time></trkpt><trkpt lat="42.675105" lon="11.8221767"><ele>509.0</ele><time>2026-04-18T07:36:14.837Z</time></trkpt><trkpt lat="42.675185" lon="11.8219617"><ele>509.0</ele><time>2026-04-18T07:36:15.836Z</time></trkpt><trkpt lat="42.67526" lon="11.821755"><ele>509.0</ele><time>2026-04-18T07:36:16.837Z</time></trkpt><trkpt lat="42.67533" lon="11.821565"><ele>509.0</ele><time>2026-04-18T07:36:17.837Z</time></trkpt><trkpt lat="42.675395" lon="11.8214"><ele>509.0</ele><time>2026-04-18T07:36:18.836Z</time></trkpt><trkpt lat="42.6754583" lon="11.8212517"><ele>509.0</ele><time>2026-04-18T07:36:19.837Z</time></trkpt><trkpt lat="42.6755133" lon="11.82113"><ele>509.0</ele><time>2026-04-18T07:36:20.836Z</time></trkpt><trkpt lat="42.6755883" lon="11.8210233"><ele>509.0</ele><time>2026-04-18T07:36:21.836Z</time></trkpt><trkpt lat="42.6756517" lon="11.8209283"><ele>509.0</ele><time>2026-04-18T07:36:22.836Z</time></trkpt><trkpt lat="42.6757017" lon="11.82084"><ele>509.3333333333333</ele><time>2026-04-18T07:36:23.837Z</time></trkpt><trkpt lat="42.67574" lon="11.8207617"><ele>509.66666666666663</ele><time>2026-04-18T07:36:24.837Z</time></trkpt><trkpt lat="42.675775" lon="11.82069"><ele>510.0</ele><time>2026-04-18T07:36:25.837Z</time></trkpt><trkpt lat="42.675745" lon="11.820575"><ele>510.33333333333337</ele><time>2026-04-18T07:36:28.837Z</time></trkpt><trkpt lat="42.675685" lon="11.8205233"><ele>510.6666666666667</ele><time>2026-04-18T07:36:29.836Z</time></trkpt><trkpt lat="42.67559" lon="11.8204783"><ele>511.0</ele><time>2026-04-18T07:36:30.837Z</time></trkpt><trkpt lat="42.6754617" lon="11.8204283"><ele>511.0</ele><time>2026-04-18T07:36:31.837Z</time></trkpt><trkpt lat="42.6752817" lon="11.82037"><ele>511.0</ele><time>2026-04-18T07:36:32.837Z</time></trkpt><trkpt lat="42.6751217" lon="11.8203117"><ele>511.0</ele><time>2026-04-18T07:36:33.837Z</time></trkpt><trkpt lat="42.6749733" lon="11.82026"><ele>511.20000000000005</ele><time>2026-04-18T07:36:34.836Z</time></trkpt><trkpt lat="42.6748583" lon="11.8202183"><ele>511.40000000000003</ele><time>2026-04-18T07:36:35.836Z</time></trkpt><trkpt lat="42.67475" lon="11.8201883"><ele>511.6</ele><time>2026-04-18T07:36:36.836Z</time></trkpt><trkpt lat="42.6746467" lon="11.8201617"><ele>511.8</ele><time>2026-04-18T07:36:37.837Z</time></trkpt><trkpt lat="42.6745433" lon="11.8201433"><ele>512.0</ele><time>2026-04-18T07:36:38.836Z</time></trkpt><trkpt lat="42.6744383" lon="11.8201317"><ele>512.4</ele><time>2026-04-18T07:36:39.836Z</time></trkpt><trkpt lat="42.6743367" lon="11.820115"><ele>512.8000000000001</ele><time>2026-04-18T07:36:40.837Z</time></trkpt><trkpt lat="42.6742283" lon="11.8201"><ele>513.2</ele><time>2026-04-18T07:36:41.837Z</time></trkpt><trkpt lat="42.6741283" lon="11.82009"><ele>513.6</ele><time>2026-04-18T07:36:42.837Z</time></trkpt><trkpt lat="42.6740217" lon="11.8200767"><ele>514.0</ele><time>2026-04-18T07:36:43.836Z</time></trkpt><trkpt lat="42.673915" lon="11.820065"><ele>514.0</ele><time>2026-04-18T07:36:44.837Z</time></trkpt><trkpt lat="42.67381" lon="11.8200567"><ele>514.0</ele><time>2026-04-18T07:36:45.836Z</time></trkpt><trkpt lat="42.6737017" lon="11.8200383"><ele>514.0</ele><time>2026-04-18T07:36:46.836Z</time></trkpt><trkpt lat="42.6735883" lon="11.82003"><ele>514.0</ele><time>2026-04-18T07:36:47.836Z</time></trkpt><trkpt lat="42.6734783" lon="11.8200117"><ele>514.0</ele><time>2026-04-18T07:36:48.837Z</time></trkpt><trkpt lat="42.6733717" lon="11.819995"><ele>514.6</ele><time>2026-04-18T07:36:49.836Z</time></trkpt><trkpt lat="42.67327" lon="11.8199817"><ele>515.2</ele><time>2026-04-18T07:36:50.837Z</time></trkpt><trkpt lat="42.6731583" lon="11.8199633"><ele>515.8000000000001</ele><time>2026-04-18T07:36:51.836Z</time></trkpt><trkpt lat="42.6730483" lon="11.8199517"><ele>516.4</ele><time>2026-04-18T07:36:52.836Z</time></trkpt><trkpt lat="42.6729533" lon="11.8199283"><ele>517.0</ele><time>2026-04-18T07:36:53.836Z</time></trkpt><trkpt lat="42.672855" lon="11.8199017"><ele>516.0</ele><time>2026-04-18T07:36:54.836Z</time></trkpt><trkpt lat="42.67275" lon="11.81986"><ele>515.0</ele><time>2026-04-18T07:36:55.836Z</time></trkpt><trkpt lat="42.67265" lon="11.81979"><ele>514.0</ele><time>2026-04-18T07:36:56.836Z</time></trkpt><trkpt lat="42.6725417" lon="11.819695"><ele>513.0</ele><time>2026-04-18T07:36:57.837Z</time></trkpt><trkpt lat="42.67244" lon="11.8195883"><ele>513.0</ele><time>2026-04-18T07:36:58.837Z</time></trkpt><trkpt lat="42.6723517" lon="11.8194633"><ele>513.0</ele><time>2026-04-18T07:36:59.836Z</time></trkpt><trkpt lat="42.6722783" lon="11.8193333"><ele>513.0</ele><time>2026-04-18T07:37:00.836Z</time></trkpt><trkpt lat="42.6722233" lon="11.8191767"><ele>513.0</ele><time>2026-04-18T07:37:01.836Z</time></trkpt><trkpt lat="42.6721683" lon="11.818985"><ele>514.6666666666666</ele><time>2026-04-18T07:37:02.837Z</time></trkpt><trkpt lat="42.6721117" lon="11.818765"><ele>516.3333333333333</ele><time>2026-04-18T07:37:03.836Z</time></trkpt><trkpt lat="42.672045" lon="11.8185267"><ele>518.0</ele><time>2026-04-18T07:37:04.836Z</time></trkpt><trkpt lat="42.6719617" lon="11.8182967"><ele>517.0</ele><time>2026-04-18T07:37:05.836Z</time></trkpt><trkpt lat="42.671865" lon="11.8180883"><ele>516.0</ele><time>2026-04-18T07:37:06.836Z</time></trkpt><trkpt lat="42.6717333" lon="11.81789"><ele>515.0</ele><time>2026-04-18T07:37:07.836Z</time></trkpt><trkpt lat="42.6715783" lon="11.8177017"><ele>516.0</ele><time>2026-04-18T07:37:08.836Z</time></trkpt><trkpt lat="42.671445" lon="11.8175567"><ele>517.0</ele><time>2026-04-18T07:37:09.836Z</time></trkpt><trkpt lat="42.671345" lon="11.8174117"><ele>518.0</ele><time>2026-04-18T07:37:10.836Z</time></trkpt><trkpt lat="42.671275" lon="11.8172667"><ele>519.0</ele><time>2026-04-18T07:37:11.837Z</time></trkpt><trkpt lat="42.6712467" lon="11.817125"><ele>519.0</ele><time>2026-04-18T07:37:12.836Z</time></trkpt><trkpt lat="42.671245" lon="11.8170133"><ele>519.0</ele><time>2026-04-18T07:37:13.836Z</time></trkpt><trkpt lat="42.671265" lon="11.816875"><ele>519.0</ele><time>2026-04-18T07:37:15.837Z</time></trkpt><trkpt lat="42.67134" lon="11.8167967"><ele>519.0</ele><time>2026-04-18T07:37:18.836Z</time></trkpt><trkpt lat="42.6714717" lon="11.8167383"><ele>519.0</ele><time>2026-04-18T07:37:20.837Z</time></trkpt><trkpt lat="42.6715917" lon="11.8167133"><ele>518.3333333333334</ele><time>2026-04-18T07:37:21.836Z</time></trkpt><trkpt lat="42.6717367" lon="11.8166933"><ele>517.6666666666667</ele><time>2026-04-18T07:37:22.836Z</time></trkpt><trkpt lat="42.6719033" lon="11.8166717"><ele>517.0</ele><time>2026-04-18T07:37:23.837Z</time></trkpt><trkpt lat="42.6720783" lon="11.816645"><ele>516.6</ele><time>2026-04-18T07:37:24.836Z</time></trkpt><trkpt lat="42.6722283" lon="11.8166233"><ele>516.2</ele><time>2026-04-18T07:37:25.837Z</time></trkpt><trkpt lat="42.672345" lon="11.8166117"><ele>515.8</ele><time>2026-04-18T07:37:26.836Z</time></trkpt><trkpt lat="42.67243" lon="11.8166067"><ele>515.4</ele><time>2026-04-18T07:37:27.836Z</time></trkpt><trkpt lat="42.6725117" lon="11.8165667"><ele>515.0</ele><time>2026-04-18T07:37:29.837Z</time></trkpt><trkpt lat="42.6724533" lon="11.8164783"><ele>515.0</ele><time>2026-04-18T07:37:33.836Z</time></trkpt><trkpt lat="42.6723683" lon="11.8164867"><ele>515.0</ele><time>2026-04-18T07:37:48.837Z</time></trkpt><trkpt lat="42.6722717" lon="11.816485"><ele>515.0</ele><time>2026-04-18T07:37:50.836Z</time></trkpt><trkpt lat="42.6721483" lon="11.8164167"><ele>515.0</ele><time>2026-04-18T07:37:52.837Z</time></trkpt><trkpt lat="42.6720717" lon="11.8163467"><ele>515.0</ele><time>2026-04-18T07:37:53.836Z</time></trkpt><trkpt lat="42.6720067" lon="11.8162717"><ele>515.4</ele><time>2026-04-18T07:37:54.836Z</time></trkpt><trkpt lat="42.6719383" lon="11.81619"><ele>515.8</ele><time>2026-04-18T07:37:55.837Z</time></trkpt><trkpt lat="42.671885" lon="11.816115"><ele>516.2</ele><time>2026-04-18T07:37:56.837Z</time></trkpt><trkpt lat="42.6718467" lon="11.8160117"><ele>516.6</ele><time>2026-04-18T07:37:57.837Z</time></trkpt><trkpt lat="42.6718183" lon="11.8158633"><ele>517.0</ele><time>2026-04-18T07:37:58.837Z</time></trkpt><trkpt lat="42.6718" lon="11.81571"><ele>515.0</ele><time>2026-04-18T07:37:59.837Z</time></trkpt><trkpt lat="42.6717883" lon="11.81556"><ele>513.0</ele><time>2026-04-18T07:38:00.836Z</time></trkpt><trkpt lat="42.671785" lon="11.8154283"><ele>511.00000000000006</ele><time>2026-04-18T07:38:01.837Z</time></trkpt><trkpt lat="42.6717817" lon="11.815305"><ele>509.0</ele><time>2026-04-18T07:38:02.837Z</time></trkpt><trkpt lat="42.6717933" lon="11.815205"><ele>507.0</ele><time>2026-04-18T07:38:03.836Z</time></trkpt><trkpt lat="42.671855" lon="11.81507"><ele>506.8</ele><time>2026-04-18T07:38:05.836Z</time></trkpt><trkpt lat="42.6719567" lon="11.8149983"><ele>506.6</ele><time>2026-04-18T07:38:07.837Z</time></trkpt><trkpt lat="42.67202" lon="11.81497"><ele>506.40000000000003</ele><time>2026-04-18T07:38:08.837Z</time></trkpt><trkpt lat="42.672095" lon="11.814945"><ele>506.20000000000005</ele><time>2026-04-18T07:38:09.836Z</time></trkpt><trkpt lat="42.672185" lon="11.81492"><ele>506.0</ele><time>2026-04-18T07:38:10.837Z</time></trkpt><trkpt lat="42.67229" lon="11.814885"><ele>506.0</ele><time>2026-04-18T07:38:11.837Z</time></trkpt><trkpt lat="42.6723883" lon="11.8148283"><ele>506.0</ele><time>2026-04-18T07:38:12.836Z</time></trkpt><trkpt lat="42.672475" lon="11.8147617"><ele>506.0</ele><time>2026-04-18T07:38:13.836Z</time></trkpt><trkpt lat="42.67255" lon="11.81468"><ele>506.0</ele><time>2026-04-18T07:38:14.837Z</time></trkpt><trkpt lat="42.6726067" lon="11.8145783"><ele>506.0</ele><time>2026-04-18T07:38:15.837Z</time></trkpt><trkpt lat="42.672635" lon="11.8144967"><ele>505.99999999999994</ele><time>2026-04-18T07:38:16.836Z</time></trkpt><trkpt lat="42.67266" lon="11.81441"><ele>506.0</ele><time>2026-04-18T07:38:17.836Z</time></trkpt><trkpt lat="42.67266" lon="11.8143217"><ele>506.0</ele><time>2026-04-18T07:38:18.836Z</time></trkpt><trkpt lat="42.672645" lon="11.8142333"><ele>506.0</ele><time>2026-04-18T07:38:19.836Z</time></trkpt><trkpt lat="42.672595" lon="11.8141583"><ele>505.99999999999994</ele><time>2026-04-18T07:38:20.837Z</time></trkpt><trkpt lat="42.6725283" lon="11.8140617"><ele>506.0</ele><time>2026-04-18T07:38:21.836Z</time></trkpt><trkpt lat="42.6724667" lon="11.8139583"><ele>505.4</ele><time>2026-04-18T07:38:22.836Z</time></trkpt><trkpt lat="42.6724317" lon="11.813835"><ele>504.8</ele><time>2026-04-18T07:38:23.836Z</time></trkpt><trkpt lat="42.672415" lon="11.81369"><ele>504.19999999999993</ele><time>2026-04-18T07:38:24.837Z</time></trkpt><trkpt lat="42.67242" lon="11.8135583"><ele>503.59999999999997</ele><time>2026-04-18T07:38:25.837Z</time></trkpt><trkpt lat="42.6724233" lon="11.8134567"><ele>503.0</ele><time>2026-04-18T07:38:26.837Z</time></trkpt><trkpt lat="42.6724017" lon="11.8132933"><ele>503.0</ele><time>2026-04-18T07:38:28.836Z</time></trkpt><trkpt lat="42.6722733" lon="11.813195"><ele>503.0</ele><time>2026-04-18T07:38:30.836Z</time></trkpt><trkpt lat="42.6721783" lon="11.813155"><ele>503.0</ele><time>2026-04-18T07:38:31.837Z</time></trkpt><trkpt lat="42.6720783" lon="11.813125"><ele>503.0</ele><time>2026-04-18T07:38:32.836Z</time></trkpt><trkpt lat="42.6719717" lon="11.81311"><ele>503.79999999999995</ele><time>2026-04-18T07:38:33.836Z</time></trkpt><trkpt lat="42.6718567" lon="11.8131033"><ele>504.59999999999997</ele><time>2026-04-18T07:38:34.837Z</time></trkpt><trkpt lat="42.671745" lon="11.8130933"><ele>505.40000000000003</ele><time>2026-04-18T07:38:35.837Z</time></trkpt><trkpt lat="42.6716467" lon="11.8130817"><ele>506.20000000000005</ele><time>2026-04-18T07:38:36.836Z</time></trkpt><trkpt lat="42.67157" lon="11.8130567"><ele>507.0</ele><time>2026-04-18T07:38:37.836Z</time></trkpt><trkpt lat="42.67146" lon="11.8129617"><ele>507.0</ele><time>2026-04-18T07:38:39.837Z</time></trkpt><trkpt lat="42.671425" lon="11.8128883"><ele>507.0</ele><time>2026-04-18T07:38:40.836Z</time></trkpt><trkpt lat="42.6714133" lon="11.812795"><ele>507.0</ele><time>2026-04-18T07:38:41.836Z</time></trkpt><trkpt lat="42.67141" lon="11.8126733"><ele>507.0</ele><time>2026-04-18T07:38:42.836Z</time></trkpt><trkpt lat="42.6713967" lon="11.8125567"><ele>507.0</ele><time>2026-04-18T07:38:43.836Z</time></trkpt><trkpt lat="42.6713667" lon="11.8124467"><ele>507.0</ele><time>2026-04-18T07:38:44.836Z</time></trkpt><trkpt lat="42.6713" lon="11.812315"><ele>507.0</ele><time>2026-04-18T07:38:45.836Z</time></trkpt><trkpt lat="42.67124" lon="11.8121917"><ele>507.0</ele><time>2026-04-18T07:38:46.836Z</time></trkpt><trkpt lat="42.6712083" lon="11.8120833"><ele>507.0</ele><time>2026-04-18T07:38:47.836Z</time></trkpt><trkpt lat="42.6711983" lon="11.811975"><ele>507.0</ele><time>2026-04-18T07:38:48.837Z</time></trkpt><trkpt lat="42.6712" lon="11.81186"><ele>507.0</ele><time>2026-04-18T07:38:49.837Z</time></trkpt><trkpt lat="42.6711983" lon="11.8117683"><ele>507.0</ele><time>2026-04-18T07:38:50.837Z</time></trkpt><trkpt lat="42.671125" lon="11.811635"><ele>507.20000000000005</ele><time>2026-04-18T07:38:52.836Z</time></trkpt><trkpt lat="42.6710583" lon="11.811595"><ele>507.40000000000003</ele><time>2026-04-18T07:38:53.837Z</time></trkpt><trkpt lat="42.670975" lon="11.81158"><ele>507.59999999999997</ele><time>2026-04-18T07:38:54.836Z</time></trkpt><trkpt lat="42.6708767" lon="11.811555"><ele>507.79999999999995</ele><time>2026-04-18T07:38:55.836Z</time></trkpt><trkpt lat="42.6707767" lon="11.811515"><ele>508.0</ele><time>2026-04-18T07:38:56.836Z</time></trkpt><trkpt lat="42.6706867" lon="11.8114583"><ele>508.00000000000006</ele><time>2026-04-18T07:38:57.836Z</time></trkpt><trkpt lat="42.6706183" lon="11.81139"><ele>508.0</ele><time>2026-04-18T07:38:58.836Z</time></trkpt><trkpt lat="42.6705667" lon="11.8113283"><ele>508.0</ele><time>2026-04-18T07:38:59.837Z</time></trkpt><trkpt lat="42.6705367" lon="11.8111867"><ele>508.0</ele><time>2026-04-18T07:39:01.836Z</time></trkpt><trkpt lat="42.6705683" lon="11.8111067"><ele>508.00000000000006</ele><time>2026-04-18T07:39:02.836Z</time></trkpt><trkpt lat="42.6706217" lon="11.811035"><ele>508.0</ele><time>2026-04-18T07:39:03.836Z</time></trkpt><trkpt lat="42.6706967" lon="11.8109683"><ele>507.50000000000006</ele><time>2026-04-18T07:39:04.836Z</time></trkpt><trkpt lat="42.6707833" lon="11.8109133"><ele>507.0</ele><time>2026-04-18T07:39:05.837Z</time></trkpt><trkpt lat="42.6708683" lon="11.8108617"><ele>506.5</ele><time>2026-04-18T07:39:06.836Z</time></trkpt><trkpt lat="42.67093" lon="11.810815"><ele>506.0</ele><time>2026-04-18T07:39:07.836Z</time></trkpt><trkpt lat="42.6709767" lon="11.8107067"><ele>505.50000000000006</ele><time>2026-04-18T07:39:09.836Z</time></trkpt><trkpt lat="42.67095" lon="11.8106267"><ele>505.0</ele><time>2026-04-18T07:39:11.836Z</time></trkpt><trkpt lat="42.6708383" lon="11.8106133"><ele>505.00000000000006</ele><time>2026-04-18T07:39:13.837Z</time></trkpt><trkpt lat="42.6707533" lon="11.810635"><ele>505.0</ele><time>2026-04-18T07:39:14.836Z</time></trkpt><trkpt lat="42.670665" lon="11.8106767"><ele>505.0</ele><time>2026-04-18T07:39:15.837Z</time></trkpt><trkpt lat="42.6705833" lon="11.810705"><ele>505.0</ele><time>2026-04-18T07:39:16.836Z</time></trkpt><trkpt lat="42.67051" lon="11.8107267"><ele>505.00000000000006</ele><time>2026-04-18T07:39:17.837Z</time></trkpt><trkpt lat="42.6704317" lon="11.81073"><ele>505.0</ele><time>2026-04-18T07:39:18.836Z</time></trkpt><trkpt lat="42.6703517" lon="11.810725"><ele>505.00000000000006</ele><time>2026-04-18T07:39:19.836Z</time></trkpt><trkpt lat="42.67028" lon="11.8107133"><ele>505.0</ele><time>2026-04-18T07:39:20.836Z</time></trkpt><trkpt lat="42.6702133" lon="11.81068"><ele>505.0</ele><time>2026-04-18T07:39:21.836Z</time></trkpt><trkpt lat="42.6701583" lon="11.810625"><ele>505.0</ele><time>2026-04-18T07:39:22.836Z</time></trkpt><trkpt lat="42.6701167" lon="11.81055"><ele>505.00000000000006</ele><time>2026-04-18T07:39:23.837Z</time></trkpt><trkpt lat="42.6700783" lon="11.810385"><ele>505.0</ele><time>2026-04-18T07:39:25.836Z</time></trkpt><trkpt lat="42.67007" lon="11.8102933"><ele>503.8</ele><time>2026-04-18T07:39:26.837Z</time></trkpt><trkpt lat="42.6700683" lon="11.810175"><ele>502.6</ele><time>2026-04-18T07:39:27.836Z</time></trkpt><trkpt lat="42.6700767" lon="11.8100533"><ele>501.4</ele><time>2026-04-18T07:39:28.836Z</time></trkpt><trkpt lat="42.6701" lon="11.809925"><ele>500.2</ele><time>2026-04-18T07:39:29.836Z</time></trkpt><trkpt lat="42.670135" lon="11.8097933"><ele>499.0</ele><time>2026-04-18T07:39:30.836Z</time></trkpt><trkpt lat="42.6701817" lon="11.8096583"><ele>497.79999999999995</ele><time>2026-04-18T07:39:31.836Z</time></trkpt><trkpt lat="42.6702383" lon="11.809535"><ele>496.59999999999997</ele><time>2026-04-18T07:39:32.836Z</time></trkpt><trkpt lat="42.6703" lon="11.8094083"><ele>495.4</ele><time>2026-04-18T07:39:33.836Z</time></trkpt><trkpt lat="42.6703717" lon="11.809325"><ele>494.2</ele><time>2026-04-18T07:39:34.836Z</time></trkpt><trkpt lat="42.67044" lon="11.80927"><ele>493.0</ele><time>2026-04-18T07:39:35.836Z</time></trkpt><trkpt lat="42.670515" lon="11.80921"><ele>493.0</ele><time>2026-04-18T07:39:36.836Z</time></trkpt><trkpt lat="42.6705967" lon="11.8091533"><ele>492.99999999999994</ele><time>2026-04-18T07:39:37.836Z</time></trkpt><trkpt lat="42.6706883" lon="11.809085"><ele>492.99999999999994</ele><time>2026-04-18T07:39:38.836Z</time></trkpt><trkpt lat="42.670785" lon="11.8090033"><ele>493.0</ele><time>2026-04-18T07:39:39.837Z</time></trkpt><trkpt lat="42.6708917" lon="11.808915"><ele>493.0</ele><time>2026-04-18T07:39:40.837Z</time></trkpt><trkpt lat="42.670995" lon="11.8088217"><ele>493.0</ele><time>2026-04-18T07:39:41.837Z</time></trkpt><trkpt lat="42.671085" lon="11.8087317"><ele>492.99999999999994</ele><time>2026-04-18T07:39:42.837Z</time></trkpt><trkpt lat="42.6711617" lon="11.8086517"><ele>492.99999999999994</ele><time>2026-04-18T07:39:43.836Z</time></trkpt><trkpt lat="42.6712267" lon="11.8085783"><ele>493.0</ele><time>2026-04-18T07:39:44.837Z</time></trkpt><trkpt lat="42.6712883" lon="11.8085067"><ele>493.0</ele><time>2026-04-18T07:39:45.836Z</time></trkpt><trkpt lat="42.67136" lon="11.8084317"><ele>491.59999999999997</ele><time>2026-04-18T07:39:46.836Z</time></trkpt><trkpt lat="42.6714317" lon="11.8083517"><ele>490.19999999999993</ele><time>2026-04-18T07:39:47.836Z</time></trkpt><trkpt lat="42.67151" lon="11.8082933"><ele>488.8</ele><time>2026-04-18T07:39:48.837Z</time></trkpt><trkpt lat="42.671595" lon="11.80823"><ele>487.4</ele><time>2026-04-18T07:39:49.836Z</time></trkpt><trkpt lat="42.6716783" lon="11.80818"><ele>486.0</ele><time>2026-04-18T07:39:50.837Z</time></trkpt><trkpt lat="42.671765" lon="11.8081383"><ele>486.0</ele><time>2026-04-18T07:39:51.836Z</time></trkpt><trkpt lat="42.6718233" lon="11.8080917"><ele>486.0</ele><time>2026-04-18T07:39:52.836Z</time></trkpt><trkpt lat="42.6719317" lon="11.80801"><ele>486.0</ele><time>2026-04-18T07:39:54.837Z</time></trkpt><trkpt lat="42.6720033" lon="11.807895"><ele>486.0</ele><time>2026-04-18T07:39:56.837Z</time></trkpt><trkpt lat="42.6720383" lon="11.8077967"><ele>486.0</ele><time>2026-04-18T07:39:57.836Z</time></trkpt><trkpt lat="42.6720633" lon="11.8076883"><ele>484.4</ele><time>2026-04-18T07:39:58.836Z</time></trkpt><trkpt lat="42.6720617" lon="11.8075633"><ele>482.8</ele><time>2026-04-18T07:39:59.836Z</time></trkpt><trkpt lat="42.672045" lon="11.80743"><ele>481.19999999999993</ele><time>2026-04-18T07:40:00.836Z</time></trkpt><trkpt lat="42.6720183" lon="11.8072767"><ele>479.59999999999997</ele><time>2026-04-18T07:40:01.837Z</time></trkpt><trkpt lat="42.6719683" lon="11.8071117"><ele>478.0</ele><time>2026-04-18T07:40:02.836Z</time></trkpt><trkpt lat="42.6719267" lon="11.80695"><ele>479.5</ele><time>2026-04-18T07:40:03.837Z</time></trkpt><trkpt lat="42.6718867" lon="11.806785"><ele>481.0</ele><time>2026-04-18T07:40:04.836Z</time></trkpt><trkpt lat="42.671845" lon="11.806625"><ele>482.5</ele><time>2026-04-18T07:40:05.836Z</time></trkpt><trkpt lat="42.6718133" lon="11.8064617"><ele>484.0</ele><time>2026-04-18T07:40:06.837Z</time></trkpt><trkpt lat="42.6717767" lon="11.8063183"><ele>484.0</ele><time>2026-04-18T07:40:07.836Z</time></trkpt><trkpt lat="42.6717233" lon="11.8061867"><ele>484.0</ele><time>2026-04-18T07:40:08.837Z</time></trkpt><trkpt lat="42.6716517" lon="11.806025"><ele>484.0</ele><time>2026-04-18T07:40:09.836Z</time></trkpt><trkpt lat="42.671585" lon="11.8058667"><ele>484.0</ele><time>2026-04-18T07:40:10.836Z</time></trkpt><trkpt lat="42.6715" lon="11.805715"><ele>486.4</ele><time>2026-04-18T07:40:11.836Z</time></trkpt><trkpt lat="42.67143" lon="11.8055683"><ele>488.79999999999995</ele><time>2026-04-18T07:40:12.836Z</time></trkpt><trkpt lat="42.67137" lon="11.8054333"><ele>491.20000000000005</ele><time>2026-04-18T07:40:13.836Z</time></trkpt><trkpt lat="42.67132" lon="11.8053367"><ele>493.6</ele><time>2026-04-18T07:40:14.836Z</time></trkpt><trkpt lat="42.671295" lon="11.80523"><ele>496.0</ele><time>2026-04-18T07:40:15.836Z</time></trkpt><trkpt lat="42.671285" lon="11.80514"><ele>496.83333333333337</ele><time>2026-04-18T07:40:16.837Z</time></trkpt><trkpt lat="42.671305" lon="11.8049933"><ele>497.6666666666667</ele><time>2026-04-18T07:40:18.836Z</time></trkpt><trkpt lat="42.6713467" lon="11.80491"><ele>498.5</ele><time>2026-04-18T07:40:19.837Z</time></trkpt><trkpt lat="42.6713867" lon="11.804805"><ele>499.33333333333337</ele><time>2026-04-18T07:40:20.836Z</time></trkpt><trkpt lat="42.671435" lon="11.8046917"><ele>500.1666666666667</ele><time>2026-04-18T07:40:21.836Z</time></trkpt><trkpt lat="42.6714717" lon="11.8045933"><ele>501.0</ele><time>2026-04-18T07:40:22.836Z</time></trkpt><trkpt lat="42.6715233" lon="11.8044633"><ele>501.0</ele><time>2026-04-18T07:40:24.836Z</time></trkpt><trkpt lat="42.67157" lon="11.8043967"><ele>501.0</ele><time>2026-04-18T07:40:26.836Z</time></trkpt><trkpt lat="42.6716617" lon="11.8043317"><ele>501.0</ele><time>2026-04-18T07:40:28.836Z</time></trkpt><trkpt lat="42.6717667" lon="11.8043033"><ele>501.0</ele><time>2026-04-18T07:40:30.836Z</time></trkpt><trkpt lat="42.6719067" lon="11.8042933"><ele>501.0</ele><time>2026-04-18T07:40:32.837Z</time></trkpt><trkpt lat="42.67201" lon="11.80428"><ele>502.8</ele><time>2026-04-18T07:40:33.837Z</time></trkpt><trkpt lat="42.6721083" lon="11.804255"><ele>504.6</ele><time>2026-04-18T07:40:34.836Z</time></trkpt><trkpt lat="42.6722183" lon="11.8042083"><ele>506.4</ele><time>2026-04-18T07:40:35.836Z</time></trkpt><trkpt lat="42.6723133" lon="11.8041417"><ele>508.2</ele><time>2026-04-18T07:40:36.836Z</time></trkpt><trkpt lat="42.6724017" lon="11.8041033"><ele>510.0</ele><time>2026-04-18T07:40:37.836Z</time></trkpt><trkpt lat="42.6724833" lon="11.8040733"><ele>510.0</ele><time>2026-04-18T07:40:38.837Z</time></trkpt><trkpt lat="42.6725517" lon="11.8040567"><ele>510.0</ele><time>2026-04-18T07:40:39.837Z</time></trkpt><trkpt lat="42.6726433" lon="11.8040733"><ele>510.0</ele><time>2026-04-18T07:40:41.837Z</time></trkpt><trkpt lat="42.6727267" lon="11.804185"><ele>510.0</ele><time>2026-04-18T07:40:43.837Z</time></trkpt><trkpt lat="42.6727983" lon="11.804285"><ele>510.0</ele><time>2026-04-18T07:40:44.836Z</time></trkpt><trkpt lat="42.6728883" lon="11.804405"><ele>510.25</ele><time>2026-04-18T07:40:45.837Z</time></trkpt><trkpt lat="42.672985" lon="11.8045217"><ele>510.5</ele><time>2026-04-18T07:40:46.836Z</time></trkpt><trkpt lat="42.6730733" lon="11.80465"><ele>510.75</ele><time>2026-04-18T07:40:47.836Z</time></trkpt><trkpt lat="42.6731583" lon="11.8047867"><ele>511.0</ele><time>2026-04-18T07:40:48.837Z</time></trkpt><trkpt lat="42.6732417" lon="11.8049083"><ele>511.0</ele><time>2026-04-18T07:40:49.836Z</time></trkpt><trkpt lat="42.6733183" lon="11.805035"><ele>511.0</ele><time>2026-04-18T07:40:50.837Z</time></trkpt><trkpt lat="42.6733983" lon="11.8051467"><ele>511.0</ele><time>2026-04-18T07:40:51.836Z</time></trkpt><trkpt lat="42.6734733" lon="11.805275"><ele>511.0</ele><time>2026-04-18T07:40:52.837Z</time></trkpt><trkpt lat="42.67355" lon="11.8054067"><ele>510.8</ele><time>2026-04-18T07:40:53.836Z</time></trkpt><trkpt lat="42.67361" lon="11.8055483"><ele>510.6</ele><time>2026-04-18T07:40:54.837Z</time></trkpt><trkpt lat="42.6736817" lon="11.8056633"><ele>510.4</ele><time>2026-04-18T07:40:55.836Z</time></trkpt><trkpt lat="42.6737517" lon="11.805755"><ele>510.2</ele><time>2026-04-18T07:40:56.836Z</time></trkpt><trkpt lat="42.6738383" lon="11.80584"><ele>510.0</ele><time>2026-04-18T07:40:57.837Z</time></trkpt><trkpt lat="42.67394" lon="11.805915"><ele>510.0</ele><time>2026-04-18T07:40:58.836Z</time></trkpt><trkpt lat="42.6740517" lon="11.805975"><ele>510.0</ele><time>2026-04-18T07:40:59.836Z</time></trkpt><trkpt lat="42.67416" lon="11.8060017"><ele>510.0</ele><time>2026-04-18T07:41:00.836Z</time></trkpt><trkpt lat="42.6742733" lon="11.806015"><ele>510.0</ele><time>2026-04-18T07:41:01.837Z</time></trkpt><trkpt lat="42.674405" lon="11.806035"><ele>511.25</ele><time>2026-04-18T07:41:02.836Z</time></trkpt><trkpt lat="42.6745383" lon="11.8060283"><ele>512.5</ele><time>2026-04-18T07:41:03.836Z</time></trkpt><trkpt lat="42.6746733" lon="11.80603"><ele>513.75</ele><time>2026-04-18T07:41:04.836Z</time></trkpt><trkpt lat="42.67482" lon="11.8060417"><ele>515.0</ele><time>2026-04-18T07:41:05.837Z</time></trkpt><trkpt lat="42.6749483" lon="11.80606"><ele>515.0</ele><time>2026-04-18T07:41:06.837Z</time></trkpt><trkpt lat="42.675085" lon="11.8060917"><ele>515.0</ele><time>2026-04-18T07:41:07.836Z</time></trkpt><trkpt lat="42.675215" lon="11.8061133"><ele>515.0</ele><time>2026-04-18T07:41:08.837Z</time></trkpt><trkpt lat="42.67535" lon="11.80614"><ele>515.0</ele><time>2026-04-18T07:41:09.836Z</time></trkpt><trkpt lat="42.675475" lon="11.8061667"><ele>514.25</ele><time>2026-04-18T07:41:10.836Z</time></trkpt><trkpt lat="42.6755967" lon="11.8061883"><ele>513.5</ele><time>2026-04-18T07:41:11.836Z</time></trkpt><trkpt lat="42.6757217" lon="11.8062167"><ele>512.75</ele><time>2026-04-18T07:41:12.836Z</time></trkpt><trkpt lat="42.6758383" lon="11.8062483"><ele>512.0</ele><time>2026-04-18T07:41:13.836Z</time></trkpt><trkpt lat="42.6759517" lon="11.8062817"><ele>512.0</ele><time>2026-04-18T07:41:14.837Z</time></trkpt><trkpt lat="42.6760633" lon="11.80634"><ele>512.0</ele><time>2026-04-18T07:41:15.836Z</time></trkpt><trkpt lat="42.67619" lon="11.8064167"><ele>512.0</ele><time>2026-04-18T07:41:16.836Z</time></trkpt><trkpt lat="42.6763217" lon="11.8065067"><ele>512.0</ele><time>2026-04-18T07:41:17.836Z</time></trkpt><trkpt lat="42.67645" lon="11.8065817"><ele>511.75</ele><time>2026-04-18T07:41:18.837Z</time></trkpt><trkpt lat="42.67657" lon="11.8066383"><ele>511.5</ele><time>2026-04-18T07:41:19.837Z</time></trkpt><trkpt lat="42.6766833" lon="11.8067017"><ele>511.25</ele><time>2026-04-18T07:41:20.836Z</time></trkpt><trkpt lat="42.6767983" lon="11.8067617"><ele>511.0</ele><time>2026-04-18T07:41:21.837Z</time></trkpt><trkpt lat="42.6769033" lon="11.8068067"><ele>510.0</ele><time>2026-04-18T07:41:22.837Z</time></trkpt><trkpt lat="42.67701" lon="11.80684"><ele>509.0</ele><time>2026-04-18T07:41:23.837Z</time></trkpt><trkpt lat="42.67711" lon="11.8068417"><ele>508.0</ele><time>2026-04-18T07:41:24.837Z</time></trkpt><trkpt lat="42.6772317" lon="11.8068433"><ele>507.0</ele><time>2026-04-18T07:41:25.836Z</time></trkpt><trkpt lat="42.677345" lon="11.806835"><ele>506.0</ele><time>2026-04-18T07:41:26.837Z</time></trkpt><trkpt lat="42.6774733" lon="11.806835"><ele>506.0</ele><time>2026-04-18T07:41:27.836Z</time></trkpt><trkpt lat="42.6776" lon="11.80684"><ele>506.0</ele><time>2026-04-18T07:41:28.836Z</time></trkpt><trkpt lat="42.6777183" lon="11.8068567"><ele>506.0</ele><time>2026-04-18T07:41:29.836Z</time></trkpt><trkpt lat="42.67782" lon="11.806875"><ele>506.0</ele><time>2026-04-18T07:41:30.836Z</time></trkpt><trkpt lat="42.6779017" lon="11.8069033"><ele>506.0</ele><time>2026-04-18T07:41:31.836Z</time></trkpt><trkpt lat="42.6780067" lon="11.8069483"><ele>506.0</ele><time>2026-04-18T07:41:33.836Z</time></trkpt><trkpt lat="42.67803" lon="11.8068117"><ele>506.0</ele><time>2026-04-18T07:41:37.836Z</time></trkpt><trkpt lat="42.678005" lon="11.8067067"><ele>506.0</ele><time>2026-04-18T07:41:38.836Z</time></trkpt><trkpt lat="42.6779933" lon="11.806575"><ele>506.0</ele><time>2026-04-18T07:41:39.837Z</time></trkpt><trkpt lat="42.6779933" lon="11.8064417"><ele>506.0</ele><time>2026-04-18T07:41:40.836Z</time></trkpt><trkpt lat="42.678" lon="11.8063183"><ele>506.0</ele><time>2026-04-18T07:41:41.836Z</time></trkpt><trkpt lat="42.678005" lon="11.8061933"><ele>506.0</ele><time>2026-04-18T07:41:42.836Z</time></trkpt><trkpt lat="42.6780033" lon="11.8060467"><ele>506.0</ele><time>2026-04-18T07:41:43.836Z</time></trkpt><trkpt lat="42.6779917" lon="11.805885"><ele>506.0</ele><time>2026-04-18T07:41:44.837Z</time></trkpt><trkpt lat="42.6779633" lon="11.8057167"><ele>506.0</ele><time>2026-04-18T07:41:45.837Z</time></trkpt><trkpt lat="42.6779283" lon="11.80552"><ele>505.5</ele><time>2026-04-18T07:41:46.836Z</time></trkpt><trkpt lat="42.6779117" lon="11.8053117"><ele>505.0</ele><time>2026-04-18T07:41:47.837Z</time></trkpt><trkpt lat="42.677905" lon="11.80511"><ele>504.5</ele><time>2026-04-18T07:41:48.836Z</time></trkpt><trkpt lat="42.6778967" lon="11.80494"><ele>504.0</ele><time>2026-04-18T07:41:49.837Z</time></trkpt><trkpt lat="42.6778767" lon="11.8047833"><ele>504.0</ele><time>2026-04-18T07:41:50.836Z</time></trkpt><trkpt lat="42.677855" lon="11.8046167"><ele>504.0</ele><time>2026-04-18T07:41:51.836Z</time></trkpt><trkpt lat="42.6778317" lon="11.80445"><ele>504.0</ele><time>2026-04-18T07:41:52.836Z</time></trkpt><trkpt lat="42.6778017" lon="11.8042933"><ele>504.0</ele><time>2026-04-18T07:41:53.837Z</time></trkpt><trkpt lat="42.6777667" lon="11.80414"><ele>504.79999999999995</ele><time>2026-04-18T07:41:54.836Z</time></trkpt><trkpt lat="42.6777383" lon="11.8040133"><ele>505.59999999999997</ele><time>2026-04-18T07:41:55.836Z</time></trkpt><trkpt lat="42.6777233" lon="11.8038883"><ele>506.4</ele><time>2026-04-18T07:41:56.837Z</time></trkpt><trkpt lat="42.6777383" lon="11.8037633"><ele>507.2</ele><time>2026-04-18T07:41:57.836Z</time></trkpt><trkpt lat="42.67778" lon="11.80364"><ele>508.0</ele><time>2026-04-18T07:41:58.837Z</time></trkpt><trkpt lat="42.67785" lon="11.80353"><ele>507.75</ele><time>2026-04-18T07:41:59.836Z</time></trkpt><trkpt lat="42.6779433" lon="11.8034233"><ele>507.5</ele><time>2026-04-18T07:42:00.836Z</time></trkpt><trkpt lat="42.678045" lon="11.8033183"><ele>507.25</ele><time>2026-04-18T07:42:01.836Z</time></trkpt><trkpt lat="42.6781533" lon="11.8032067"><ele>507.0</ele><time>2026-04-18T07:42:02.836Z</time></trkpt><trkpt lat="42.67827" lon="11.8030917"><ele>507.0</ele><time>2026-04-18T07:42:03.836Z</time></trkpt><trkpt lat="42.6783933" lon="11.80299"><ele>507.0</ele><time>2026-04-18T07:42:04.837Z</time></trkpt><trkpt lat="42.6785233" lon="11.8028817"><ele>507.0</ele><time>2026-04-18T07:42:05.837Z</time></trkpt><trkpt lat="42.6786567" lon="11.802785"><ele>507.0</ele><time>2026-04-18T07:42:06.836Z</time></trkpt><trkpt lat="42.6787867" lon="11.8026867"><ele>505.75</ele><time>2026-04-18T07:42:07.837Z</time></trkpt><trkpt lat="42.6789067" lon="11.8026017"><ele>504.5</ele><time>2026-04-18T07:42:08.837Z</time></trkpt><trkpt lat="42.6790417" lon="11.8025083"><ele>503.25</ele><time>2026-04-18T07:42:09.836Z</time></trkpt><trkpt lat="42.67916" lon="11.802425"><ele>502.0</ele><time>2026-04-18T07:42:10.837Z</time></trkpt><trkpt lat="42.67927" lon="11.8023483"><ele>502.0</ele><time>2026-04-18T07:42:11.837Z</time></trkpt><trkpt lat="42.679365" lon="11.80228"><ele>502.00000000000006</ele><time>2026-04-18T07:42:12.836Z</time></trkpt><trkpt lat="42.6794533" lon="11.80222"><ele>502.00000000000006</ele><time>2026-04-18T07:42:13.837Z</time></trkpt><trkpt lat="42.6795367" lon="11.8021633"><ele>502.0</ele><time>2026-04-18T07:42:14.837Z</time></trkpt><trkpt lat="42.6796467" lon="11.802095"><ele>502.0</ele><time>2026-04-18T07:42:15.837Z</time></trkpt><trkpt lat="42.679765" lon="11.8020217"><ele>501.5</ele><time>2026-04-18T07:42:16.837Z</time></trkpt><trkpt lat="42.6798917" lon="11.8019617"><ele>501.0</ele><time>2026-04-18T07:42:17.836Z</time></trkpt><trkpt lat="42.6800117" lon="11.8019117"><ele>500.5</ele><time>2026-04-18T07:42:18.837Z</time></trkpt><trkpt lat="42.680135" lon="11.8018617"><ele>500.0</ele><time>2026-04-18T07:42:19.837Z</time></trkpt><trkpt lat="42.6802517" lon="11.801795"><ele>499.5</ele><time>2026-04-18T07:42:20.836Z</time></trkpt><trkpt lat="42.6803667" lon="11.8017167"><ele>499.0</ele><time>2026-04-18T07:42:21.836Z</time></trkpt><trkpt lat="42.68049" lon="11.80163"><ele>498.5</ele><time>2026-04-18T07:42:22.836Z</time></trkpt><trkpt lat="42.6806167" lon="11.8015467"><ele>498.0</ele><time>2026-04-18T07:42:23.837Z</time></trkpt><trkpt lat="42.6807283" lon="11.80147"><ele>498.0</ele><time>2026-04-18T07:42:24.836Z</time></trkpt><trkpt lat="42.6808433" lon="11.801415"><ele>497.99999999999994</ele><time>2026-04-18T07:42:25.836Z</time></trkpt><trkpt lat="42.6809583" lon="11.80135"><ele>497.99999999999994</ele><time>2026-04-18T07:42:26.837Z</time></trkpt><trkpt lat="42.6810517" lon="11.8012917"><ele>498.0</ele><time>2026-04-18T07:42:27.837Z</time></trkpt><trkpt lat="42.6811283" lon="11.8012367"><ele>498.0</ele><time>2026-04-18T07:42:28.836Z</time></trkpt><trkpt lat="42.6811933" lon="11.80116"><ele>498.0</ele><time>2026-04-18T07:42:29.836Z</time></trkpt><trkpt lat="42.6812333" lon="11.8010683"><ele>497.99999999999994</ele><time>2026-04-18T07:42:30.836Z</time></trkpt><trkpt lat="42.6812617" lon="11.800965"><ele>497.99999999999994</ele><time>2026-04-18T07:42:31.836Z</time></trkpt><trkpt lat="42.6812733" lon="11.8008517"><ele>498.0</ele><time>2026-04-18T07:42:32.836Z</time></trkpt><trkpt lat="42.681275" lon="11.8007217"><ele>498.0</ele><time>2026-04-18T07:42:33.836Z</time></trkpt><trkpt lat="42.6812767" lon="11.8005583"><ele>498.0</ele><time>2026-04-18T07:42:34.836Z</time></trkpt><trkpt lat="42.681275" lon="11.8004033"><ele>498.0</ele><time>2026-04-18T07:42:35.836Z</time></trkpt><trkpt lat="42.6812667" lon="11.80026"><ele>498.0</ele><time>2026-04-18T07:42:36.837Z</time></trkpt><trkpt lat="42.681245" lon="11.8001083"><ele>498.0</ele><time>2026-04-18T07:42:37.836Z</time></trkpt><trkpt lat="42.681195" lon="11.79994"><ele>498.25</ele><time>2026-04-18T07:42:38.836Z</time></trkpt><trkpt lat="42.6811317" lon="11.7997617"><ele>498.5</ele><time>2026-04-18T07:42:39.836Z</time></trkpt><trkpt lat="42.68107" lon="11.7995933"><ele>498.75</ele><time>2026-04-18T07:42:40.836Z</time></trkpt><trkpt lat="42.6810133" lon="11.7994333"><ele>499.0</ele><time>2026-04-18T07:42:41.837Z</time></trkpt><trkpt lat="42.6809617" lon="11.7992767"><ele>499.0</ele><time>2026-04-18T07:42:42.837Z</time></trkpt><trkpt lat="42.68091" lon="11.7991233"><ele>499.0</ele><time>2026-04-18T07:42:43.836Z</time></trkpt><trkpt lat="42.6808583" lon="11.7989633"><ele>499.0</ele><time>2026-04-18T07:42:44.837Z</time></trkpt><trkpt lat="42.680815" lon="11.7988117"><ele>499.0</ele><time>2026-04-18T07:42:45.837Z</time></trkpt><trkpt lat="42.6807783" lon="11.7986633"><ele>499.0</ele><time>2026-04-18T07:42:46.837Z</time></trkpt><trkpt lat="42.6807633" lon="11.7985333"><ele>499.0</ele><time>2026-04-18T07:42:47.837Z</time></trkpt><trkpt lat="42.680745" lon="11.7984083"><ele>499.0</ele><time>2026-04-18T07:42:48.837Z</time></trkpt><trkpt lat="42.6807117" lon="11.7982767"><ele>499.0</ele><time>2026-04-18T07:42:49.836Z</time></trkpt><trkpt lat="42.68068" lon="11.7981183"><ele>499.0</ele><time>2026-04-18T07:42:50.836Z</time></trkpt><trkpt lat="42.6806383" lon="11.7979533"><ele>499.0</ele><time>2026-04-18T07:42:51.836Z</time></trkpt><trkpt lat="42.6805967" lon="11.7977717"><ele>499.0</ele><time>2026-04-18T07:42:52.836Z</time></trkpt><trkpt lat="42.6805533" lon="11.797585"><ele>499.0</ele><time>2026-04-18T07:42:53.837Z</time></trkpt><trkpt lat="42.6805017" lon="11.797405"><ele>499.0</ele><time>2026-04-18T07:42:54.837Z</time></trkpt><trkpt lat="42.6804567" lon="11.7972333"><ele>498.75</ele><time>2026-04-18T07:42:55.837Z</time></trkpt><trkpt lat="42.6804" lon="11.7970783"><ele>498.5</ele><time>2026-04-18T07:42:56.837Z</time></trkpt><trkpt lat="42.68033" lon="11.79693"><ele>498.25</ele><time>2026-04-18T07:42:57.836Z</time></trkpt><trkpt lat="42.68026" lon="11.7967867"><ele>498.0</ele><time>2026-04-18T07:42:58.837Z</time></trkpt><trkpt lat="42.6801983" lon="11.79666"><ele>496.25</ele><time>2026-04-18T07:42:59.836Z</time></trkpt><trkpt lat="42.68014" lon="11.7965217"><ele>494.5</ele><time>2026-04-18T07:43:00.837Z</time></trkpt><trkpt lat="42.6800917" lon="11.7963767"><ele>492.75</ele><time>2026-04-18T07:43:01.837Z</time></trkpt><trkpt lat="42.6800533" lon="11.7962283"><ele>491.0</ele><time>2026-04-18T07:43:02.837Z</time></trkpt><trkpt lat="42.6800183" lon="11.7960917"><ele>490.4</ele><time>2026-04-18T07:43:03.836Z</time></trkpt><trkpt lat="42.67999" lon="11.79596"><ele>489.8</ele><time>2026-04-18T07:43:04.837Z</time></trkpt><trkpt lat="42.6799617" lon="11.79585"><ele>489.19999999999993</ele><time>2026-04-18T07:43:05.836Z</time></trkpt><trkpt lat="42.6799317" lon="11.7957567"><ele>488.59999999999997</ele><time>2026-04-18T07:43:06.836Z</time></trkpt><trkpt lat="42.6798817" lon="11.79566"><ele>488.0</ele><time>2026-04-18T07:43:07.837Z</time></trkpt><trkpt lat="42.6798033" lon="11.79557"><ele>488.0</ele><time>2026-04-18T07:43:08.836Z</time></trkpt><trkpt lat="42.679705" lon="11.795505"><ele>488.0</ele><time>2026-04-18T07:43:09.836Z</time></trkpt><trkpt lat="42.6795867" lon="11.7954517"><ele>488.0</ele><time>2026-04-18T07:43:10.837Z</time></trkpt><trkpt lat="42.6794733" lon="11.7953867"><ele>488.0</ele><time>2026-04-18T07:43:11.836Z</time></trkpt><trkpt lat="42.6793767" lon="11.7953117"><ele>486.5</ele><time>2026-04-18T07:43:12.836Z</time></trkpt><trkpt lat="42.6793" lon="11.795225"><ele>485.0</ele><time>2026-04-18T07:43:13.837Z</time></trkpt><trkpt lat="42.6792183" lon="11.7951367"><ele>483.5</ele><time>2026-04-18T07:43:14.836Z</time></trkpt><trkpt lat="42.67914" lon="11.7950133"><ele>482.0</ele><time>2026-04-18T07:43:15.836Z</time></trkpt><trkpt lat="42.67906" lon="11.7948767"><ele>482.0</ele><time>2026-04-18T07:43:16.837Z</time></trkpt><trkpt lat="42.6789833" lon="11.7947117"><ele>482.0</ele><time>2026-04-18T07:43:17.837Z</time></trkpt><trkpt lat="42.678905" lon="11.7945317"><ele>482.0</ele><time>2026-04-18T07:43:18.836Z</time></trkpt><trkpt lat="42.6788133" lon="11.7943583"><ele>481.3333333333333</ele><time>2026-04-18T07:43:19.836Z</time></trkpt><trkpt lat="42.6787083" lon="11.7941583"><ele>480.66666666666663</ele><time>2026-04-18T07:43:20.836Z</time></trkpt><trkpt lat="42.6786083" lon="11.7939717"><ele>480.0</ele><time>2026-04-18T07:43:21.837Z</time></trkpt><trkpt lat="42.6785183" lon="11.79381"><ele>479.4</ele><time>2026-04-18T07:43:22.836Z</time></trkpt><trkpt lat="42.67845" lon="11.7936783"><ele>478.8</ele><time>2026-04-18T07:43:23.837Z</time></trkpt><trkpt lat="42.678385" lon="11.7935683"><ele>478.20000000000005</ele><time>2026-04-18T07:43:24.836Z</time></trkpt><trkpt lat="42.6783233" lon="11.7934717"><ele>477.6</ele><time>2026-04-18T07:43:25.837Z</time></trkpt><trkpt lat="42.6782717" lon="11.7933667"><ele>477.0</ele><time>2026-04-18T07:43:26.836Z</time></trkpt><trkpt lat="42.67824" lon="11.7932417"><ele>477.0</ele><time>2026-04-18T07:43:27.837Z</time></trkpt><trkpt lat="42.6782067" lon="11.7931067"><ele>477.00000000000006</ele><time>2026-04-18T07:43:28.837Z</time></trkpt><trkpt lat="42.678175" lon="11.79298"><ele>477.00000000000006</ele><time>2026-04-18T07:43:29.837Z</time></trkpt><trkpt lat="42.6781383" lon="11.7928517"><ele>477.0</ele><time>2026-04-18T07:43:30.837Z</time></trkpt><trkpt lat="42.6781" lon="11.7927083"><ele>477.0</ele><time>2026-04-18T07:43:31.837Z</time></trkpt><trkpt lat="42.6780533" lon="11.7925583"><ele>477.5</ele><time>2026-04-18T07:43:32.837Z</time></trkpt><trkpt lat="42.6779967" lon="11.792405"><ele>478.0</ele><time>2026-04-18T07:43:33.836Z</time></trkpt><trkpt lat="42.677925" lon="11.7922517"><ele>478.5</ele><time>2026-04-18T07:43:34.836Z</time></trkpt><trkpt lat="42.6778467" lon="11.7921133"><ele>479.0</ele><time>2026-04-18T07:43:35.836Z</time></trkpt><trkpt lat="42.6777683" lon="11.7920033"><ele>479.0</ele><time>2026-04-18T07:43:36.836Z</time></trkpt><trkpt lat="42.6776733" lon="11.7918983"><ele>479.0</ele><time>2026-04-18T07:43:37.836Z</time></trkpt><trkpt lat="42.6775633" lon="11.79183"><ele>479.0</ele><time>2026-04-18T07:43:38.836Z</time></trkpt><trkpt lat="42.6774267" lon="11.791765"><ele>479.0</ele><time>2026-04-18T07:43:39.836Z</time></trkpt><trkpt lat="42.677265" lon="11.7917017"><ele>481.25</ele><time>2026-04-18T07:43:40.837Z</time></trkpt><trkpt lat="42.67712" lon="11.7916367"><ele>483.5</ele><time>2026-04-18T07:43:41.837Z</time></trkpt><trkpt lat="42.676975" lon="11.7915633"><ele>485.75</ele><time>2026-04-18T07:43:42.836Z</time></trkpt><trkpt lat="42.6768533" lon="11.7915083"><ele>488.0</ele><time>2026-04-18T07:43:43.836Z</time></trkpt><trkpt lat="42.6767483" lon="11.79145"><ele>488.0</ele><time>2026-04-18T07:43:44.837Z</time></trkpt><trkpt lat="42.6766517" lon="11.7913767"><ele>488.0</ele><time>2026-04-18T07:43:45.836Z</time></trkpt><trkpt lat="42.6765533" lon="11.79129"><ele>488.0</ele><time>2026-04-18T07:43:46.837Z</time></trkpt><trkpt lat="42.6764583" lon="11.7912067"><ele>488.0</ele><time>2026-04-18T07:43:47.836Z</time></trkpt><trkpt lat="42.6763667" lon="11.79112"><ele>488.0</ele><time>2026-04-18T07:43:48.837Z</time></trkpt><trkpt lat="42.6762683" lon="11.791035"><ele>488.0</ele><time>2026-04-18T07:43:49.836Z</time></trkpt><trkpt lat="42.6761633" lon="11.790935"><ele>488.0</ele><time>2026-04-18T07:43:50.836Z</time></trkpt><trkpt lat="42.67605" lon="11.79081"><ele>488.0</ele><time>2026-04-18T07:43:51.836Z</time></trkpt><trkpt lat="42.6759317" lon="11.7906817"><ele>489.5</ele><time>2026-04-18T07:43:52.837Z</time></trkpt><trkpt lat="42.67583" lon="11.7905683"><ele>491.0</ele><time>2026-04-18T07:43:53.837Z</time></trkpt><trkpt lat="42.675725" lon="11.7904433"><ele>492.5</ele><time>2026-04-18T07:43:54.837Z</time></trkpt><trkpt lat="42.6756117" lon="11.7902983"><ele>494.0</ele><time>2026-04-18T07:43:55.837Z</time></trkpt><trkpt lat="42.6755017" lon="11.79014"><ele>495.0</ele><time>2026-04-18T07:43:56.837Z</time></trkpt><trkpt lat="42.6753917" lon="11.7899867"><ele>496.0</ele><time>2026-04-18T07:43:57.836Z</time></trkpt><trkpt lat="42.6752883" lon="11.789865"><ele>497.0</ele><time>2026-04-18T07:43:58.837Z</time></trkpt><trkpt lat="42.6751833" lon="11.7897417"><ele>498.0</ele><time>2026-04-18T07:43:59.837Z</time></trkpt><trkpt lat="42.6750833" lon="11.7896133"><ele>498.0</ele><time>2026-04-18T07:44:00.837Z</time></trkpt><trkpt lat="42.6749967" lon="11.78948"><ele>498.0</ele><time>2026-04-18T07:44:01.836Z</time></trkpt><trkpt lat="42.6749017" lon="11.789345"><ele>498.0</ele><time>2026-04-18T07:44:02.836Z</time></trkpt><trkpt lat="42.6748133" lon="11.7891933"><ele>498.0</ele><time>2026-04-18T07:44:03.836Z</time></trkpt><trkpt lat="42.67474" lon="11.789045"><ele>498.66666666666663</ele><time>2026-04-18T07:44:04.836Z</time></trkpt><trkpt lat="42.6746767" lon="11.7888783"><ele>499.3333333333333</ele><time>2026-04-18T07:44:05.836Z</time></trkpt><trkpt lat="42.67461" lon="11.7886867"><ele>500.0</ele><time>2026-04-18T07:44:06.837Z</time></trkpt><trkpt lat="42.6745483" lon="11.7884767"><ele>501.5</ele><time>2026-04-18T07:44:07.836Z</time></trkpt><trkpt lat="42.6744917" lon="11.78828"><ele>503.0</ele><time>2026-04-18T07:44:08.837Z</time></trkpt><trkpt lat="42.6744467" lon="11.7880917"><ele>504.5</ele><time>2026-04-18T07:44:09.836Z</time></trkpt><trkpt lat="42.6744017" lon="11.7879283"><ele>506.0</ele><time>2026-04-18T07:44:10.836Z</time></trkpt><trkpt lat="42.6743617" lon="11.7877933"><ele>506.5</ele><time>2026-04-18T07:44:11.837Z</time></trkpt><trkpt lat="42.67432" lon="11.787655"><ele>507.0</ele><time>2026-04-18T07:44:12.836Z</time></trkpt><trkpt lat="42.6742683" lon="11.7875233"><ele>507.5</ele><time>2026-04-18T07:44:13.836Z</time></trkpt><trkpt lat="42.6741967" lon="11.7873883"><ele>508.0</ele><time>2026-04-18T07:44:14.836Z</time></trkpt><trkpt lat="42.6740983" lon="11.7872483"><ele>508.0</ele><time>2026-04-18T07:44:15.836Z</time></trkpt><trkpt lat="42.67399" lon="11.7871117"><ele>508.0</ele><time>2026-04-18T07:44:16.836Z</time></trkpt><trkpt lat="42.6738833" lon="11.7869783"><ele>508.0</ele><time>2026-04-18T07:44:17.836Z</time></trkpt><trkpt lat="42.67378" lon="11.7868583"><ele>508.0</ele><time>2026-04-18T07:44:18.836Z</time></trkpt><trkpt lat="42.673695" lon="11.7867333"><ele>507.25</ele><time>2026-04-18T07:44:19.837Z</time></trkpt><trkpt lat="42.6736133" lon="11.7866117"><ele>506.5</ele><time>2026-04-18T07:44:20.836Z</time></trkpt><trkpt lat="42.673555" lon="11.7864867"><ele>505.75</ele><time>2026-04-18T07:44:21.837Z</time></trkpt><trkpt lat="42.6735217" lon="11.7863533"><ele>505.0</ele><time>2026-04-18T07:44:22.836Z</time></trkpt><trkpt lat="42.6735" lon="11.7861917"><ele>505.0</ele><time>2026-04-18T07:44:23.837Z</time></trkpt><trkpt lat="42.6734883" lon="11.7860217"><ele>505.0</ele><time>2026-04-18T07:44:24.837Z</time></trkpt><trkpt lat="42.673485" lon="11.78583"><ele>505.0</ele><time>2026-04-18T07:44:25.837Z</time></trkpt><trkpt lat="42.673485" lon="11.7856317"><ele>505.0</ele><time>2026-04-18T07:44:26.837Z</time></trkpt><trkpt lat="42.673485" lon="11.7854533"><ele>504.6666666666667</ele><time>2026-04-18T07:44:27.837Z</time></trkpt><trkpt lat="42.6734833" lon="11.7852933"><ele>504.33333333333337</ele><time>2026-04-18T07:44:28.837Z</time></trkpt><trkpt lat="42.6734817" lon="11.78516"><ele>504.0</ele><time>2026-04-18T07:44:29.837Z</time></trkpt><trkpt lat="42.6734883" lon="11.7850533"><ele>503.66666666666663</ele><time>2026-04-18T07:44:30.836Z</time></trkpt><trkpt lat="42.6735033" lon="11.7849583"><ele>503.3333333333333</ele><time>2026-04-18T07:44:31.836Z</time></trkpt><trkpt lat="42.6735367" lon="11.7848583"><ele>503.0</ele><time>2026-04-18T07:44:32.836Z</time></trkpt><trkpt lat="42.6735933" lon="11.7847583"><ele>503.0</ele><time>2026-04-18T07:44:33.837Z</time></trkpt><trkpt lat="42.6736617" lon="11.7846767"><ele>502.99999999999994</ele><time>2026-04-18T07:44:34.836Z</time></trkpt><trkpt lat="42.6737433" lon="11.7845983"><ele>502.99999999999994</ele><time>2026-04-18T07:44:35.837Z</time></trkpt><trkpt lat="42.673835" lon="11.784515"><ele>503.0</ele><time>2026-04-18T07:44:36.836Z</time></trkpt><trkpt lat="42.6739367" lon="11.7844167"><ele>503.0</ele><time>2026-04-18T07:44:37.837Z</time></trkpt><trkpt lat="42.6740467" lon="11.784305"><ele>503.0</ele><time>2026-04-18T07:44:38.836Z</time></trkpt><trkpt lat="42.6741483" lon="11.7841983"><ele>502.99999999999994</ele><time>2026-04-18T07:44:39.837Z</time></trkpt><trkpt lat="42.674225" lon="11.7840933"><ele>502.99999999999994</ele><time>2026-04-18T07:44:40.837Z</time></trkpt><trkpt lat="42.6742717" lon="11.783985"><ele>503.0</ele><time>2026-04-18T07:44:41.837Z</time></trkpt><trkpt lat="42.6743" lon="11.783845"><ele>503.0</ele><time>2026-04-18T07:44:42.836Z</time></trkpt><trkpt lat="42.67431" lon="11.7836833"><ele>503.66666666666663</ele><time>2026-04-18T07:44:43.837Z</time></trkpt><trkpt lat="42.6743133" lon="11.7834867"><ele>504.33333333333337</ele><time>2026-04-18T07:44:44.836Z</time></trkpt><trkpt lat="42.6743267" lon="11.7832417"><ele>505.0</ele><time>2026-04-18T07:44:45.836Z</time></trkpt><trkpt lat="42.6743333" lon="11.7829717"><ele>505.0</ele><time>2026-04-18T07:44:46.836Z</time></trkpt><trkpt lat="42.6743417" lon="11.78273"><ele>505.0</ele><time>2026-04-18T07:44:47.837Z</time></trkpt><trkpt lat="42.6743517" lon="11.7825233"><ele>505.0</ele><time>2026-04-18T07:44:48.837Z</time></trkpt><trkpt lat="42.6743633" lon="11.7823333"><ele>504.0</ele><time>2026-04-18T07:44:49.836Z</time></trkpt><trkpt lat="42.6743683" lon="11.7821417"><ele>503.0</ele><time>2026-04-18T07:44:50.836Z</time></trkpt><trkpt lat="42.6743733" lon="11.7819383"><ele>502.0</ele><time>2026-04-18T07:44:51.836Z</time></trkpt><trkpt lat="42.6743833" lon="11.7817217"><ele>502.0</ele><time>2026-04-18T07:44:52.836Z</time></trkpt><trkpt lat="42.6743883" lon="11.7815167"><ele>502.0</ele><time>2026-04-18T07:44:53.837Z</time></trkpt><trkpt lat="42.674395" lon="11.781325"><ele>502.0</ele><time>2026-04-18T07:44:54.837Z</time></trkpt><trkpt lat="42.6743933" lon="11.7811417"><ele>502.0</ele><time>2026-04-18T07:44:55.837Z</time></trkpt><trkpt lat="42.6744017" lon="11.7809633"><ele>502.75</ele><time>2026-04-18T07:44:56.836Z</time></trkpt><trkpt lat="42.6744067" lon="11.780785"><ele>503.5</ele><time>2026-04-18T07:44:57.837Z</time></trkpt><trkpt lat="42.674405" lon="11.78061"><ele>504.25</ele><time>2026-04-18T07:44:58.836Z</time></trkpt><trkpt lat="42.6743967" lon="11.7804617"><ele>505.0</ele><time>2026-04-18T07:44:59.837Z</time></trkpt><trkpt lat="42.6743833" lon="11.7803017"><ele>504.75</ele><time>2026-04-18T07:45:00.837Z</time></trkpt><trkpt lat="42.674345" lon="11.78014"><ele>504.5</ele><time>2026-04-18T07:45:01.836Z</time></trkpt><trkpt lat="42.6743083" lon="11.7799667"><ele>504.25</ele><time>2026-04-18T07:45:02.837Z</time></trkpt><trkpt lat="42.6742817" lon="11.7797917"><ele>504.0</ele><time>2026-04-18T07:45:03.837Z</time></trkpt><trkpt lat="42.6742733" lon="11.7796133"><ele>504.0</ele><time>2026-04-18T07:45:04.837Z</time></trkpt><trkpt lat="42.67428" lon="11.7794467"><ele>504.0</ele><time>2026-04-18T07:45:05.836Z</time></trkpt><trkpt lat="42.6743017" lon="11.779255"><ele>504.0</ele><time>2026-04-18T07:45:06.837Z</time></trkpt><trkpt lat="42.6743383" lon="11.77905"><ele>504.0</ele><time>2026-04-18T07:45:07.837Z</time></trkpt><trkpt lat="42.6743917" lon="11.7787983"><ele>502.33333333333337</ele><time>2026-04-18T07:45:08.837Z</time></trkpt><trkpt lat="42.6744417" lon="11.7785317"><ele>500.6666666666667</ele><time>2026-04-18T07:45:09.837Z</time></trkpt><trkpt lat="42.6744883" lon="11.77828"><ele>499.0</ele><time>2026-04-18T07:45:10.836Z</time></trkpt><trkpt lat="42.674535" lon="11.77805"><ele>498.33333333333337</ele><time>2026-04-18T07:45:11.836Z</time></trkpt><trkpt lat="42.67458" lon="11.7778267"><ele>497.66666666666663</ele><time>2026-04-18T07:45:12.836Z</time></trkpt><trkpt lat="42.6746317" lon="11.7775933"><ele>497.0</ele><time>2026-04-18T07:45:13.837Z</time></trkpt><trkpt lat="42.67468" lon="11.7773567"><ele>496.66666666666663</ele><time>2026-04-18T07:45:14.836Z</time></trkpt><trkpt lat="42.6747267" lon="11.7771283"><ele>496.33333333333337</ele><time>2026-04-18T07:45:15.836Z</time></trkpt><trkpt lat="42.6747683" lon="11.7769167"><ele>496.0</ele><time>2026-04-18T07:45:16.836Z</time></trkpt><trkpt lat="42.6748133" lon="11.77671"><ele>495.75</ele><time>2026-04-18T07:45:17.837Z</time></trkpt><trkpt lat="42.674855" lon="11.7765117"><ele>495.5</ele><time>2026-04-18T07:45:18.836Z</time></trkpt><trkpt lat="42.67489" lon="11.776325"><ele>495.25</ele><time>2026-04-18T07:45:19.836Z</time></trkpt><trkpt lat="42.6749333" lon="11.776135"><ele>495.0</ele><time>2026-04-18T07:45:20.836Z</time></trkpt><trkpt lat="42.674975" lon="11.77595"><ele>494.75</ele><time>2026-04-18T07:45:21.837Z</time></trkpt><trkpt lat="42.6750167" lon="11.7757783"><ele>494.5</ele><time>2026-04-18T07:45:22.836Z</time></trkpt><trkpt lat="42.6750533" lon="11.7756183"><ele>494.25</ele><time>2026-04-18T07:45:23.836Z</time></trkpt><trkpt lat="42.6750867" lon="11.7754567"><ele>494.0</ele><time>2026-04-18T07:45:24.836Z</time></trkpt><trkpt lat="42.6751167" lon="11.77531"><ele>493.6</ele><time>2026-04-18T07:45:25.836Z</time></trkpt><trkpt lat="42.6751467" lon="11.77518"><ele>493.2</ele><time>2026-04-18T07:45:26.836Z</time></trkpt><trkpt lat="42.675175" lon="11.7750683"><ele>492.80000000000007</ele><time>2026-04-18T07:45:27.836Z</time></trkpt><trkpt lat="42.6752083" lon="11.7749817"><ele>492.40000000000003</ele><time>2026-04-18T07:45:28.836Z</time></trkpt><trkpt lat="42.6752983" lon="11.7749033"><ele>492.0</ele><time>2026-04-18T07:45:30.836Z</time></trkpt><trkpt lat="42.6754367" lon="11.7749467"><ele>491.0</ele><time>2026-04-18T07:45:32.837Z</time></trkpt><trkpt lat="42.67555" lon="11.7749617"><ele>490.0</ele><time>2026-04-18T07:45:33.836Z</time></trkpt><trkpt lat="42.6756867" lon="11.774985"><ele>489.0</ele><time>2026-04-18T07:45:34.836Z</time></trkpt><trkpt lat="42.675845" lon="11.7750133"><ele>488.0</ele><time>2026-04-18T07:45:35.836Z</time></trkpt><trkpt lat="42.676005" lon="11.77505"><ele>488.5</ele><time>2026-04-18T07:45:36.836Z</time></trkpt><trkpt lat="42.67615" lon="11.7750933"><ele>489.0</ele><time>2026-04-18T07:45:37.836Z</time></trkpt><trkpt lat="42.6762833" lon="11.775135"><ele>489.5</ele><time>2026-04-18T07:45:38.836Z</time></trkpt><trkpt lat="42.676415" lon="11.7751683"><ele>490.0</ele><time>2026-04-18T07:45:39.836Z</time></trkpt><trkpt lat="42.6765567" lon="11.7751867"><ele>491.0</ele><time>2026-04-18T07:45:40.836Z</time></trkpt><trkpt lat="42.6767167" lon="11.77522"><ele>492.0</ele><time>2026-04-18T07:45:41.836Z</time></trkpt><trkpt lat="42.676895" lon="11.7752667"><ele>493.0</ele><time>2026-04-18T07:45:42.836Z</time></trkpt><trkpt lat="42.6770717" lon="11.775305"><ele>493.5</ele><time>2026-04-18T07:45:43.836Z</time></trkpt><trkpt lat="42.6772183" lon="11.7753367"><ele>494.0</ele><time>2026-04-18T07:45:44.837Z</time></trkpt><trkpt lat="42.67736" lon="11.775365"><ele>494.5</ele><time>2026-04-18T07:45:45.836Z</time></trkpt><trkpt lat="42.6774967" lon="11.775385"><ele>495.0</ele><time>2026-04-18T07:45:46.836Z</time></trkpt><trkpt lat="42.677625" lon="11.7754033"><ele>495.0</ele><time>2026-04-18T07:45:47.837Z</time></trkpt><trkpt lat="42.6777467" lon="11.7754133"><ele>495.0</ele><time>2026-04-18T07:45:48.836Z</time></trkpt><trkpt lat="42.677865" lon="11.775405"><ele>495.0</ele><time>2026-04-18T07:45:49.836Z</time></trkpt><trkpt lat="42.67797" lon="11.7753683"><ele>495.0</ele><time>2026-04-18T07:45:50.837Z</time></trkpt><trkpt lat="42.678065" lon="11.77531"><ele>495.25</ele><time>2026-04-18T07:45:51.837Z</time></trkpt><trkpt lat="42.67816" lon="11.7752183"><ele>495.5</ele><time>2026-04-18T07:45:52.836Z</time></trkpt><trkpt lat="42.6782467" lon="11.7751067"><ele>495.75</ele><time>2026-04-18T07:45:53.837Z</time></trkpt><trkpt lat="42.678325" lon="11.7749717"><ele>496.0</ele><time>2026-04-18T07:45:54.836Z</time></trkpt><trkpt lat="42.6784033" lon="11.77482"><ele>496.0</ele><time>2026-04-18T07:45:55.837Z</time></trkpt><trkpt lat="42.678485" lon="11.7746717"><ele>496.0</ele><time>2026-04-18T07:45:56.837Z</time></trkpt><trkpt lat="42.6785617" lon="11.7745333"><ele>496.0</ele><time>2026-04-18T07:45:57.837Z</time></trkpt><trkpt lat="42.6786467" lon="11.77439"><ele>496.0</ele><time>2026-04-18T07:45:58.837Z</time></trkpt><trkpt lat="42.67873" lon="11.7742417"><ele>495.6666666666667</ele><time>2026-04-18T07:45:59.836Z</time></trkpt><trkpt lat="42.6788133" lon="11.7740917"><ele>495.33333333333337</ele><time>2026-04-18T07:46:00.837Z</time></trkpt><trkpt lat="42.67891" lon="11.7739283"><ele>495.0</ele><time>2026-04-18T07:46:01.836Z</time></trkpt><trkpt lat="42.6790267" lon="11.77375"><ele>495.0</ele><time>2026-04-18T07:46:02.837Z</time></trkpt><trkpt lat="42.6791383" lon="11.773575"><ele>495.0</ele><time>2026-04-18T07:46:03.836Z</time></trkpt><trkpt lat="42.6792383" lon="11.773405"><ele>495.0</ele><time>2026-04-18T07:46:04.836Z</time></trkpt><trkpt lat="42.6793233" lon="11.7732567"><ele>495.0</ele><time>2026-04-18T07:46:05.836Z</time></trkpt><trkpt lat="42.6794167" lon="11.7731233"><ele>495.0</ele><time>2026-04-18T07:46:06.837Z</time></trkpt><trkpt lat="42.6795083" lon="11.7730117"><ele>495.0</ele><time>2026-04-18T07:46:07.836Z</time></trkpt><trkpt lat="42.6796083" lon="11.772905"><ele>495.0</ele><time>2026-04-18T07:46:08.836Z</time></trkpt><trkpt lat="42.67972" lon="11.7727933"><ele>494.0</ele><time>2026-04-18T07:46:09.837Z</time></trkpt><trkpt lat="42.67984" lon="11.77267"><ele>493.0</ele><time>2026-04-18T07:46:10.837Z</time></trkpt><trkpt lat="42.679955" lon="11.7725483"><ele>492.0</ele><time>2026-04-18T07:46:11.837Z</time></trkpt><trkpt lat="42.680075" lon="11.7724217"><ele>491.0</ele><time>2026-04-18T07:46:12.836Z</time></trkpt><trkpt lat="42.6802033" lon="11.772295"><ele>490.66666666666663</ele><time>2026-04-18T07:46:13.837Z</time></trkpt><trkpt lat="42.6803317" lon="11.7721583"><ele>490.33333333333337</ele><time>2026-04-18T07:46:14.836Z</time></trkpt><trkpt lat="42.6804533" lon="11.7720383"><ele>490.0</ele><time>2026-04-18T07:46:15.836Z</time></trkpt><trkpt lat="42.68057" lon="11.7719183"><ele>489.8</ele><time>2026-04-18T07:46:16.837Z</time></trkpt><trkpt lat="42.6806683" lon="11.7718217"><ele>489.6</ele><time>2026-04-18T07:46:17.836Z</time></trkpt><trkpt lat="42.680755" lon="11.7717317"><ele>489.4</ele><time>2026-04-18T07:46:18.837Z</time></trkpt><trkpt lat="42.6808333" lon="11.7716417"><ele>489.2</ele><time>2026-04-18T07:46:19.837Z</time></trkpt><trkpt lat="42.6809167" lon="11.7715467"><ele>489.0</ele><time>2026-04-18T07:46:20.836Z</time></trkpt><trkpt lat="42.6809967" lon="11.7714683"><ele>489.0</ele><time>2026-04-18T07:46:21.837Z</time></trkpt><trkpt lat="42.6810567" lon="11.7714067"><ele>489.0</ele><time>2026-04-18T07:46:22.837Z</time></trkpt><trkpt lat="42.6811117" lon="11.7713567"><ele>489.0</ele><time>2026-04-18T07:46:23.836Z</time></trkpt><trkpt lat="42.681165" lon="11.7713033"><ele>489.0</ele><time>2026-04-18T07:46:24.836Z</time></trkpt><trkpt lat="42.6812233" lon="11.7712383"><ele>489.0</ele><time>2026-04-18T07:46:25.836Z</time></trkpt><trkpt lat="42.6812933" lon="11.7711617"><ele>489.0</ele><time>2026-04-18T07:46:26.836Z</time></trkpt><trkpt lat="42.681365" lon="11.7710733"><ele>489.0</ele><time>2026-04-18T07:46:27.836Z</time></trkpt><trkpt lat="42.681445" lon="11.7709717"><ele>489.0</ele><time>2026-04-18T07:46:28.837Z</time></trkpt><trkpt lat="42.6815233" lon="11.7708517"><ele>489.0</ele><time>2026-04-18T07:46:29.836Z</time></trkpt><trkpt lat="42.6816083" lon="11.77073"><ele>489.0</ele><time>2026-04-18T07:46:30.836Z</time></trkpt><trkpt lat="42.68169" lon="11.7706067"><ele>489.0</ele><time>2026-04-18T07:46:31.837Z</time></trkpt><trkpt lat="42.681775" lon="11.7704883"><ele>489.0</ele><time>2026-04-18T07:46:32.837Z</time></trkpt><trkpt lat="42.6818533" lon="11.77038"><ele>489.0</ele><time>2026-04-18T07:46:33.837Z</time></trkpt><trkpt lat="42.681925" lon="11.7702783"><ele>489.0</ele><time>2026-04-18T07:46:34.836Z</time></trkpt><trkpt lat="42.6819983" lon="11.770175"><ele>489.0</ele><time>2026-04-18T07:46:35.837Z</time></trkpt><trkpt lat="42.6820817" lon="11.7700783"><ele>488.0</ele><time>2026-04-18T07:46:36.837Z</time></trkpt><trkpt lat="42.6821583" lon="11.7699767"><ele>487.0</ele><time>2026-04-18T07:46:37.836Z</time></trkpt><trkpt lat="42.6822383" lon="11.76988"><ele>486.0</ele><time>2026-04-18T07:46:38.836Z</time></trkpt><trkpt lat="42.682305" lon="11.7697817"><ele>485.0</ele><time>2026-04-18T07:46:39.837Z</time></trkpt><trkpt lat="42.682375" lon="11.7696883"><ele>484.0</ele><time>2026-04-18T07:46:40.836Z</time></trkpt><trkpt lat="42.682435" lon="11.769605"><ele>484.00000000000006</ele><time>2026-04-18T07:46:41.837Z</time></trkpt><trkpt lat="42.6824983" lon="11.76953"><ele>484.0</ele><time>2026-04-18T07:46:42.836Z</time></trkpt><trkpt lat="42.6825583" lon="11.7694583"><ele>484.0</ele><time>2026-04-18T07:46:43.837Z</time></trkpt><trkpt lat="42.68261" lon="11.7693967"><ele>484.0</ele><time>2026-04-18T07:46:44.836Z</time></trkpt><trkpt lat="42.6826833" lon="11.7692933"><ele>484.00000000000006</ele><time>2026-04-18T07:46:46.836Z</time></trkpt><trkpt lat="42.6826883" lon="11.7692017"><ele>484.0</ele><time>2026-04-18T07:46:49.836Z</time></trkpt><trkpt lat="42.6825967" lon="11.7691283"><ele>483.25</ele><time>2026-04-18T07:46:52.836Z</time></trkpt><trkpt lat="42.6825183" lon="11.769125"><ele>482.5</ele><time>2026-04-18T07:46:53.837Z</time></trkpt><trkpt lat="42.6824133" lon="11.7691333"><ele>481.75</ele><time>2026-04-18T07:46:54.837Z</time></trkpt><trkpt lat="42.68227" lon="11.7691367"><ele>481.0</ele><time>2026-04-18T07:46:55.836Z</time></trkpt><trkpt lat="42.6821083" lon="11.7691317"><ele>480.33333333333337</ele><time>2026-04-18T07:46:56.837Z</time></trkpt><trkpt lat="42.68192" lon="11.7691083"><ele>479.66666666666663</ele><time>2026-04-18T07:46:57.836Z</time></trkpt><trkpt lat="42.681725" lon="11.7690617"><ele>479.0</ele><time>2026-04-18T07:46:58.837Z</time></trkpt><trkpt lat="42.6815333" lon="11.76901"><ele>479.0</ele><time>2026-04-18T07:46:59.837Z</time></trkpt><trkpt lat="42.6813517" lon="11.768955"><ele>479.0</ele><time>2026-04-18T07:47:00.837Z</time></trkpt><trkpt lat="42.681165" lon="11.7689083"><ele>479.0</ele><time>2026-04-18T07:47:01.836Z</time></trkpt><trkpt lat="42.6809867" lon="11.76886"><ele>477.66666666666663</ele><time>2026-04-18T07:47:02.837Z</time></trkpt><trkpt lat="42.680815" lon="11.7688133"><ele>476.33333333333337</ele><time>2026-04-18T07:47:03.836Z</time></trkpt><trkpt lat="42.6806517" lon="11.7687883"><ele>475.0</ele><time>2026-04-18T07:47:04.836Z</time></trkpt><trkpt lat="42.6804933" lon="11.7687717"><ele>475.0</ele><time>2026-04-18T07:47:05.836Z</time></trkpt><trkpt lat="42.6803333" lon="11.76876"><ele>475.0</ele><time>2026-04-18T07:47:06.836Z</time></trkpt><trkpt lat="42.6801883" lon="11.768755"><ele>475.0</ele><time>2026-04-18T07:47:07.836Z</time></trkpt><trkpt lat="42.6800367" lon="11.7687767"><ele>474.33333333333337</ele><time>2026-04-18T07:47:08.836Z</time></trkpt><trkpt lat="42.6798817" lon="11.7687817"><ele>473.66666666666663</ele><time>2026-04-18T07:47:09.837Z</time></trkpt><trkpt lat="42.6797317" lon="11.768795"><ele>473.0</ele><time>2026-04-18T07:47:10.836Z</time></trkpt><trkpt lat="42.6795817" lon="11.768795"><ele>473.0</ele><time>2026-04-18T07:47:11.836Z</time></trkpt><trkpt lat="42.67944" lon="11.768785"><ele>473.0</ele><time>2026-04-18T07:47:12.836Z</time></trkpt><trkpt lat="42.6792983" lon="11.7687417"><ele>473.0</ele><time>2026-04-18T07:47:13.837Z</time></trkpt><trkpt lat="42.679165" lon="11.76866"><ele>473.0</ele><time>2026-04-18T07:47:14.837Z</time></trkpt><trkpt lat="42.67904" lon="11.7685417"><ele>471.66666666666663</ele><time>2026-04-18T07:47:15.836Z</time></trkpt><trkpt lat="42.6789067" lon="11.7684083"><ele>470.33333333333337</ele><time>2026-04-18T07:47:16.836Z</time></trkpt><trkpt lat="42.6787933" lon="11.7682767"><ele>469.0</ele><time>2026-04-18T07:47:17.836Z</time></trkpt><trkpt lat="42.67868" lon="11.7681333"><ele>469.0</ele><time>2026-04-18T07:47:18.837Z</time></trkpt><trkpt lat="42.678565" lon="11.76803"><ele>469.0</ele><time>2026-04-18T07:47:19.837Z</time></trkpt><trkpt lat="42.6784317" lon="11.7679817"><ele>469.0</ele><time>2026-04-18T07:47:20.837Z</time></trkpt><trkpt lat="42.6783" lon="11.76798"><ele>469.0</ele><time>2026-04-18T07:47:21.836Z</time></trkpt><trkpt lat="42.6781683" lon="11.7680267"><ele>469.0</ele><time>2026-04-18T07:47:22.836Z</time></trkpt><trkpt lat="42.6780317" lon="11.7680967"><ele>469.0</ele><time>2026-04-18T07:47:23.836Z</time></trkpt><trkpt lat="42.677895" lon="11.7681617"><ele>469.0</ele><time>2026-04-18T07:47:24.836Z</time></trkpt><trkpt lat="42.6777583" lon="11.7682133"><ele>469.0</ele><time>2026-04-18T07:47:25.836Z</time></trkpt><trkpt lat="42.6776217" lon="11.7682633"><ele>468.25</ele><time>2026-04-18T07:47:26.836Z</time></trkpt><trkpt lat="42.6775" lon="11.7682967"><ele>467.5</ele><time>2026-04-18T07:47:27.836Z</time></trkpt><trkpt lat="42.677375" lon="11.768365"><ele>466.75</ele><time>2026-04-18T07:47:28.836Z</time></trkpt><trkpt lat="42.6772733" lon="11.768465"><ele>466.0</ele><time>2026-04-18T07:47:29.837Z</time></trkpt><trkpt lat="42.6771917" lon="11.768625"><ele>468.33333333333337</ele><time>2026-04-18T07:47:30.836Z</time></trkpt><trkpt lat="42.6771317" lon="11.768825"><ele>470.66666666666663</ele><time>2026-04-18T07:47:31.837Z</time></trkpt><trkpt lat="42.6770917" lon="11.769045"><ele>473.0</ele><time>2026-04-18T07:47:32.836Z</time></trkpt><trkpt lat="42.677035" lon="11.7692667"><ele>472.0</ele><time>2026-04-18T07:47:33.836Z</time></trkpt><trkpt lat="42.6769733" lon="11.769485"><ele>471.0</ele><time>2026-04-18T07:47:34.837Z</time></trkpt><trkpt lat="42.6769033" lon="11.76971"><ele>470.0</ele><time>2026-04-18T07:47:35.837Z</time></trkpt><trkpt lat="42.676835" lon="11.7699133"><ele>470.0</ele><time>2026-04-18T07:47:36.837Z</time></trkpt><trkpt lat="42.6767633" lon="11.7700933"><ele>470.0</ele><time>2026-04-18T07:47:37.837Z</time></trkpt><trkpt lat="42.6767033" lon="11.7702483"><ele>470.0</ele><time>2026-04-18T07:47:38.837Z</time></trkpt><trkpt lat="42.6766283" lon="11.77038"><ele>470.0</ele><time>2026-04-18T07:47:39.836Z</time></trkpt><trkpt lat="42.676545" lon="11.77049"><ele>469.8</ele><time>2026-04-18T07:47:40.837Z</time></trkpt><trkpt lat="42.67645" lon="11.7705333"><ele>469.6</ele><time>2026-04-18T07:47:41.837Z</time></trkpt><trkpt lat="42.6763517" lon="11.7705183"><ele>469.4</ele><time>2026-04-18T07:47:42.836Z</time></trkpt><trkpt lat="42.6762483" lon="11.77045"><ele>469.2</ele><time>2026-04-18T07:47:43.836Z</time></trkpt><trkpt lat="42.6761567" lon="11.7703583"><ele>469.0</ele><time>2026-04-18T07:47:44.837Z</time></trkpt><trkpt lat="42.6760767" lon="11.7702383"><ele>469.25</ele><time>2026-04-18T07:47:45.837Z</time></trkpt><trkpt lat="42.67604" lon="11.770105"><ele>469.5</ele><time>2026-04-18T07:47:46.836Z</time></trkpt><trkpt lat="42.6760433" lon="11.7699467"><ele>469.75</ele><time>2026-04-18T07:47:47.837Z</time></trkpt><trkpt lat="42.676075" lon="11.7697767"><ele>470.0</ele><time>2026-04-18T07:47:48.836Z</time></trkpt><trkpt lat="42.6761283" lon="11.76961"><ele>470.0</ele><time>2026-04-18T07:47:49.837Z</time></trkpt><trkpt lat="42.6761983" lon="11.7694433"><ele>470.0</ele><time>2026-04-18T07:47:50.836Z</time></trkpt><trkpt lat="42.67628" lon="11.76928"><ele>470.0</ele><time>2026-04-18T07:47:51.837Z</time></trkpt><trkpt lat="42.6763767" lon="11.7691"><ele>470.0</ele><time>2026-04-18T07:47:52.836Z</time></trkpt><trkpt lat="42.67647" lon="11.768895"><ele>470.0</ele><time>2026-04-18T07:47:53.836Z</time></trkpt><trkpt lat="42.6765533" lon="11.7686667"><ele>470.0</ele><time>2026-04-18T07:47:54.836Z</time></trkpt><trkpt lat="42.6766133" lon="11.7684183"><ele>472.3333333333333</ele><time>2026-04-18T07:47:55.837Z</time></trkpt><trkpt lat="42.676665" lon="11.768185"><ele>474.66666666666663</ele><time>2026-04-18T07:47:56.837Z</time></trkpt><trkpt lat="42.676735" lon="11.7679817"><ele>477.0</ele><time>2026-04-18T07:47:57.837Z</time></trkpt><trkpt lat="42.6768017" lon="11.767805"><ele>477.6</ele><time>2026-04-18T07:47:58.837Z</time></trkpt><trkpt lat="42.6768567" lon="11.767645"><ele>478.20000000000005</ele><time>2026-04-18T07:47:59.836Z</time></trkpt><trkpt lat="42.6768767" lon="11.7675"><ele>478.8</ele><time>2026-04-18T07:48:00.836Z</time></trkpt><trkpt lat="42.676865" lon="11.767365"><ele>479.4</ele><time>2026-04-18T07:48:01.837Z</time></trkpt><trkpt lat="42.6768117" lon="11.7672417"><ele>480.0</ele><time>2026-04-18T07:48:02.837Z</time></trkpt><trkpt lat="42.6767233" lon="11.7671383"><ele>480.0</ele><time>2026-04-18T07:48:03.836Z</time></trkpt><trkpt lat="42.6766017" lon="11.767055"><ele>480.0</ele><time>2026-04-18T07:48:04.836Z</time></trkpt><trkpt lat="42.67647" lon="11.7670017"><ele>480.0</ele><time>2026-04-18T07:48:05.836Z</time></trkpt><trkpt lat="42.67633" lon="11.7669683"><ele>480.0</ele><time>2026-04-18T07:48:06.836Z</time></trkpt><trkpt lat="42.6761817" lon="11.766945"><ele>480.0</ele><time>2026-04-18T07:48:07.837Z</time></trkpt><trkpt lat="42.676035" lon="11.766905"><ele>480.0</ele><time>2026-04-18T07:48:08.836Z</time></trkpt><trkpt lat="42.6758767" lon="11.7668483"><ele>480.0</ele><time>2026-04-18T07:48:09.836Z</time></trkpt><trkpt lat="42.675715" lon="11.7667933"><ele>480.0</ele><time>2026-04-18T07:48:10.836Z</time></trkpt><trkpt lat="42.6755633" lon="11.766745"><ele>480.0</ele><time>2026-04-18T07:48:11.836Z</time></trkpt><trkpt lat="42.6754067" lon="11.766695"><ele>480.0</ele><time>2026-04-18T07:48:12.837Z</time></trkpt><trkpt lat="42.6752717" lon="11.76663"><ele>480.6</ele><time>2026-04-18T07:48:13.836Z</time></trkpt><trkpt lat="42.6751617" lon="11.7665717"><ele>481.2</ele><time>2026-04-18T07:48:14.837Z</time></trkpt><trkpt lat="42.6750833" lon="11.7665267"><ele>481.79999999999995</ele><time>2026-04-18T07:48:15.837Z</time></trkpt><trkpt lat="42.6749933" lon="11.7664517"><ele>482.4</ele><time>2026-04-18T07:48:17.836Z</time></trkpt><trkpt lat="42.6748767" lon="11.7663983"><ele>483.0</ele><time>2026-04-18T07:48:19.837Z</time></trkpt><trkpt lat="42.6747983" lon="11.76636"><ele>483.0</ele><time>2026-04-18T07:48:20.836Z</time></trkpt><trkpt lat="42.6747083" lon="11.7663067"><ele>483.0</ele><time>2026-04-18T07:48:21.837Z</time></trkpt><trkpt lat="42.6746017" lon="11.7662383"><ele>483.0</ele><time>2026-04-18T07:48:22.836Z</time></trkpt><trkpt lat="42.6744717" lon="11.7661633"><ele>483.0</ele><time>2026-04-18T07:48:23.836Z</time></trkpt><trkpt lat="42.6743383" lon="11.7660917"><ele>482.75</ele><time>2026-04-18T07:48:24.837Z</time></trkpt><trkpt lat="42.6742117" lon="11.766015"><ele>482.5</ele><time>2026-04-18T07:48:25.836Z</time></trkpt><trkpt lat="42.6740983" lon="11.76595"><ele>482.25</ele><time>2026-04-18T07:48:26.836Z</time></trkpt><trkpt lat="42.673985" lon="11.7658833"><ele>482.0</ele><time>2026-04-18T07:48:27.837Z</time></trkpt><trkpt lat="42.6738683" lon="11.7658217"><ele>482.0</ele><time>2026-04-18T07:48:28.836Z</time></trkpt><trkpt lat="42.6737483" lon="11.7657483"><ele>482.0</ele><time>2026-04-18T07:48:29.836Z</time></trkpt><trkpt lat="42.6736167" lon="11.765655"><ele>482.0</ele><time>2026-04-18T07:48:30.836Z</time></trkpt><trkpt lat="42.6734683" lon="11.765575"><ele>482.0</ele><time>2026-04-18T07:48:31.836Z</time></trkpt><trkpt lat="42.6733133" lon="11.7655"><ele>479.3333333333333</ele><time>2026-04-18T07:48:32.836Z</time></trkpt><trkpt lat="42.6731683" lon="11.7654533"><ele>476.66666666666663</ele><time>2026-04-18T07:48:33.836Z</time></trkpt><trkpt lat="42.6730217" lon="11.765475"><ele>474.0</ele><time>2026-04-18T07:48:34.837Z</time></trkpt><trkpt lat="42.6728533" lon="11.76553"><ele>473.66666666666663</ele><time>2026-04-18T07:48:35.836Z</time></trkpt><trkpt lat="42.6726883" lon="11.7656217"><ele>473.3333333333333</ele><time>2026-04-18T07:48:36.836Z</time></trkpt><trkpt lat="42.6725083" lon="11.76571"><ele>473.0</ele><time>2026-04-18T07:48:37.836Z</time></trkpt><trkpt lat="42.6723133" lon="11.7658167"><ele>473.0</ele><time>2026-04-18T07:48:38.836Z</time></trkpt><trkpt lat="42.6721167" lon="11.7659267"><ele>473.0</ele><time>2026-04-18T07:48:39.837Z</time></trkpt><trkpt lat="42.6719233" lon="11.7660317"><ele>473.0</ele><time>2026-04-18T07:48:40.837Z</time></trkpt><trkpt lat="42.6717417" lon="11.7661217"><ele>474.3333333333333</ele><time>2026-04-18T07:48:41.836Z</time></trkpt><trkpt lat="42.6715717" lon="11.7662117"><ele>475.66666666666663</ele><time>2026-04-18T07:48:42.837Z</time></trkpt><trkpt lat="42.67142" lon="11.76629"><ele>477.0</ele><time>2026-04-18T07:48:43.837Z</time></trkpt><trkpt lat="42.6712533" lon="11.7663517"><ele>479.0</ele><time>2026-04-18T07:48:44.836Z</time></trkpt><trkpt lat="42.6710817" lon="11.7664067"><ele>481.0</ele><time>2026-04-18T07:48:45.836Z</time></trkpt><trkpt lat="42.6709017" lon="11.7664517"><ele>483.0</ele><time>2026-04-18T07:48:46.836Z</time></trkpt><trkpt lat="42.6707167" lon="11.766495"><ele>483.0</ele><time>2026-04-18T07:48:47.836Z</time></trkpt><trkpt lat="42.6705283" lon="11.7665233"><ele>483.0</ele><time>2026-04-18T07:48:48.836Z</time></trkpt><trkpt lat="42.6703517" lon="11.766535"><ele>483.0</ele><time>2026-04-18T07:48:49.836Z</time></trkpt><trkpt lat="42.6701883" lon="11.7665133"><ele>483.5</ele><time>2026-04-18T07:48:50.836Z</time></trkpt><trkpt lat="42.670035" lon="11.7664733"><ele>484.0</ele><time>2026-04-18T07:48:51.836Z</time></trkpt><trkpt lat="42.6699" lon="11.7664017"><ele>484.5</ele><time>2026-04-18T07:48:52.837Z</time></trkpt><trkpt lat="42.6697633" lon="11.7663317"><ele>485.0</ele><time>2026-04-18T07:48:53.836Z</time></trkpt><trkpt lat="42.6696333" lon="11.7662717"><ele>485.0</ele><time>2026-04-18T07:48:54.836Z</time></trkpt><trkpt lat="42.6694967" lon="11.7662267"><ele>485.0</ele><time>2026-04-18T07:48:55.836Z</time></trkpt><trkpt lat="42.6693583" lon="11.7661917"><ele>485.0</ele><time>2026-04-18T07:48:56.836Z</time></trkpt><trkpt lat="42.6692217" lon="11.7661917"><ele>485.0</ele><time>2026-04-18T07:48:57.837Z</time></trkpt><trkpt lat="42.6690983" lon="11.76619"><ele>485.66666666666663</ele><time>2026-04-18T07:48:58.836Z</time></trkpt><trkpt lat="42.668985" lon="11.766205"><ele>486.3333333333333</ele><time>2026-04-18T07:48:59.836Z</time></trkpt><trkpt lat="42.6689083" lon="11.76619"><ele>487.0</ele><time>2026-04-18T07:49:00.837Z</time></trkpt><trkpt lat="42.6688417" lon="11.76615"><ele>487.66666666666663</ele><time>2026-04-18T07:49:01.837Z</time></trkpt><trkpt lat="42.6687817" lon="11.7660933"><ele>488.3333333333333</ele><time>2026-04-18T07:49:02.836Z</time></trkpt><trkpt lat="42.668735" lon="11.7660233"><ele>489.0</ele><time>2026-04-18T07:49:03.837Z</time></trkpt><trkpt lat="42.6687" lon="11.7659383"><ele>489.0</ele><time>2026-04-18T07:49:04.836Z</time></trkpt><trkpt lat="42.6686767" lon="11.7658367"><ele>489.0</ele><time>2026-04-18T07:49:05.837Z</time></trkpt><trkpt lat="42.6686733" lon="11.7657433"><ele>489.0</ele><time>2026-04-18T07:49:06.836Z</time></trkpt><trkpt lat="42.66869" lon="11.76563"><ele>489.0</ele><time>2026-04-18T07:49:07.836Z</time></trkpt><trkpt lat="42.6687267" lon="11.765505"><ele>489.0</ele><time>2026-04-18T07:49:08.837Z</time></trkpt><trkpt lat="42.66879" lon="11.765355"><ele>489.0</ele><time>2026-04-18T07:49:09.836Z</time></trkpt><trkpt lat="42.6688483" lon="11.76521"><ele>489.0</ele><time>2026-04-18T07:49:10.837Z</time></trkpt><trkpt lat="42.668905" lon="11.7650733"><ele>489.0</ele><time>2026-04-18T07:49:11.836Z</time></trkpt><trkpt lat="42.66896" lon="11.764945"><ele>489.0</ele><time>2026-04-18T07:49:12.836Z</time></trkpt><trkpt lat="42.6690033" lon="11.7648383"><ele>489.0</ele><time>2026-04-18T07:49:13.836Z</time></trkpt><trkpt lat="42.669035" lon="11.76474"><ele>488.3333333333333</ele><time>2026-04-18T07:49:14.837Z</time></trkpt><trkpt lat="42.6690517" lon="11.7646233"><ele>487.66666666666663</ele><time>2026-04-18T07:49:15.836Z</time></trkpt><trkpt lat="42.6690717" lon="11.7645233"><ele>487.0</ele><time>2026-04-18T07:49:16.836Z</time></trkpt><trkpt lat="42.6690767" lon="11.7644167"><ele>486.3333333333333</ele><time>2026-04-18T07:49:17.836Z</time></trkpt><trkpt lat="42.6690817" lon="11.7643067"><ele>485.66666666666663</ele><time>2026-04-18T07:49:18.837Z</time></trkpt><trkpt lat="42.6690783" lon="11.7641933"><ele>485.0</ele><time>2026-04-18T07:49:19.836Z</time></trkpt><trkpt lat="42.669075" lon="11.76407"><ele>481.0</ele><time>2026-04-18T07:49:20.836Z</time></trkpt><trkpt lat="42.6690717" lon="11.763975"><ele>481.0</ele><time>2026-04-18T07:49:21.836Z</time></trkpt><trkpt lat="42.669065" lon="11.76388"><ele>481.0</ele><time>2026-04-18T07:49:22.836Z</time></trkpt><trkpt lat="42.6690717" lon="11.7637367"><ele>481.0</ele><time>2026-04-18T07:49:24.836Z</time></trkpt><trkpt lat="42.6690617" lon="11.7636433"><ele>481.0</ele><time>2026-04-18T07:49:26.836Z</time></trkpt><trkpt lat="42.669045" lon="11.7635267"><ele>475.0</ele><time>2026-04-18T07:49:56.837Z</time></trkpt></trkseg></trk></gpx>